<?xml version="1.0" encoding="UTF-8" standalone="no" ?>
<gpx xmlns="http://www.topografix.com/GPX/1/1" xmlns:xsi="http://www.w3.org/2001/XMLSchema-instance" xsi:schemaLocation="http://www.topografix.com/GPX/1/1 http://www.topografix.com/GPX/1/1/gpx.xsd" version="1.1" creator="VisuGPX - https://www.visugpx.com">
  <metadata>
    <name>2016-05-15-01 Collongues</name>
    <desc><![CDATA[rando à vtt très sympathique,  avec de beau paysage. Petite difficulté au niveau de la borne 47 et 44 un paysan s'octroi le droit de passage. Se qui nous oblige a contourner un peu le sentier.
Magnifique descente sur le GR510 après Briançonnet.]]></desc>
  </metadata>
  <trk>
    <name><![CDATA[2016-05-15-01 Collongues]]></name>
    <trkseg>
      <trkpt lat="43.88771" lon="6.86329">
        <ele>641.9</ele>
        <time>2016-05-15T07:40:55Z</time>
      </trkpt>
      <trkpt lat="43.88767" lon="6.86331">
        <ele>641</ele>
        <time>2016-05-15T07:40:57Z</time>
      </trkpt>
      <trkpt lat="43.88754" lon="6.86343">
        <ele>641</ele>
        <time>2016-05-15T07:41:05Z</time>
      </trkpt>
      <trkpt lat="43.8874" lon="6.86352">
        <ele>642</ele>
        <time>2016-05-15T07:41:13Z</time>
      </trkpt>
      <trkpt lat="43.88725" lon="6.86348">
        <ele>642</ele>
        <time>2016-05-15T07:41:21Z</time>
      </trkpt>
      <trkpt lat="43.88715" lon="6.86335">
        <ele>643</ele>
        <time>2016-05-15T07:41:28Z</time>
      </trkpt>
      <trkpt lat="43.88713" lon="6.86321">
        <ele>643.4</ele>
        <time>2016-05-15T07:41:34Z</time>
      </trkpt>
      <trkpt lat="43.8871" lon="6.86308">
        <ele>643.9</ele>
        <time>2016-05-15T07:41:40Z</time>
      </trkpt>
      <trkpt lat="43.88706" lon="6.86295">
        <ele>644.4</ele>
        <time>2016-05-15T07:41:46Z</time>
      </trkpt>
      <trkpt lat="43.88702" lon="6.86282">
        <ele>644.9</ele>
        <time>2016-05-15T07:41:52Z</time>
      </trkpt>
      <trkpt lat="43.88695" lon="6.86273">
        <ele>645.5</ele>
        <time>2016-05-15T07:41:59Z</time>
      </trkpt>
      <trkpt lat="43.88701" lon="6.86286">
        <ele>646.2</ele>
        <time>2016-05-15T07:42:08Z</time>
      </trkpt>
      <trkpt lat="43.88704" lon="6.86299">
        <ele>646.3</ele>
        <time>2016-05-15T07:42:11Z</time>
      </trkpt>
      <trkpt lat="43.8871" lon="6.86315">
        <ele>646.4</ele>
        <time>2016-05-15T07:42:14Z</time>
      </trkpt>
      <trkpt lat="43.88713" lon="6.8633">
        <ele>646.4</ele>
        <time>2016-05-15T07:42:17Z</time>
      </trkpt>
      <trkpt lat="43.88712" lon="6.86316">
        <ele>646.1</ele>
        <time>2016-05-15T07:42:31Z</time>
      </trkpt>
      <trkpt lat="43.88708" lon="6.86302">
        <ele>646.1</ele>
        <time>2016-05-15T07:42:38Z</time>
      </trkpt>
      <trkpt lat="43.88703" lon="6.8629">
        <ele>646.1</ele>
        <time>2016-05-15T07:42:44Z</time>
      </trkpt>
      <trkpt lat="43.88698" lon="6.86277">
        <ele>646.1</ele>
        <time>2016-05-15T07:42:50Z</time>
      </trkpt>
      <trkpt lat="43.88693" lon="6.86266">
        <ele>646.5</ele>
        <time>2016-05-15T07:42:55Z</time>
      </trkpt>
      <trkpt lat="43.88688" lon="6.86256">
        <ele>646.9</ele>
        <time>2016-05-15T07:43:00Z</time>
      </trkpt>
      <trkpt lat="43.88684" lon="6.86244">
        <ele>647.2</ele>
        <time>2016-05-15T07:43:05Z</time>
      </trkpt>
      <trkpt lat="43.8868" lon="6.86232">
        <ele>647.6</ele>
        <time>2016-05-15T07:43:10Z</time>
      </trkpt>
      <trkpt lat="43.88678" lon="6.86218">
        <ele>648.1</ele>
        <time>2016-05-15T07:43:16Z</time>
      </trkpt>
      <trkpt lat="43.88674" lon="6.86205">
        <ele>648.6</ele>
        <time>2016-05-15T07:43:22Z</time>
      </trkpt>
      <trkpt lat="43.88671" lon="6.86192">
        <ele>649.1</ele>
        <time>2016-05-15T07:43:27Z</time>
      </trkpt>
      <trkpt lat="43.88668" lon="6.86178">
        <ele>649.7</ele>
        <time>2016-05-15T07:43:33Z</time>
      </trkpt>
      <trkpt lat="43.88666" lon="6.86166">
        <ele>650.2</ele>
        <time>2016-05-15T07:43:38Z</time>
      </trkpt>
      <trkpt lat="43.88664" lon="6.86153">
        <ele>650.7</ele>
        <time>2016-05-15T07:43:43Z</time>
      </trkpt>
      <trkpt lat="43.8866" lon="6.8614">
        <ele>651.2</ele>
        <time>2016-05-15T07:43:48Z</time>
      </trkpt>
      <trkpt lat="43.88658" lon="6.86127">
        <ele>651.6</ele>
        <time>2016-05-15T07:43:53Z</time>
      </trkpt>
      <trkpt lat="43.88655" lon="6.86115">
        <ele>652.1</ele>
        <time>2016-05-15T07:43:58Z</time>
      </trkpt>
      <trkpt lat="43.88652" lon="6.86101">
        <ele>652.8</ele>
        <time>2016-05-15T07:44:04Z</time>
      </trkpt>
      <trkpt lat="43.88651" lon="6.86086">
        <ele>653.5</ele>
        <time>2016-05-15T07:44:10Z</time>
      </trkpt>
      <trkpt lat="43.88651" lon="6.86073">
        <ele>654.2</ele>
        <time>2016-05-15T07:44:15Z</time>
      </trkpt>
      <trkpt lat="43.88655" lon="6.8606">
        <ele>654.8</ele>
        <time>2016-05-15T07:44:20Z</time>
      </trkpt>
      <trkpt lat="43.8866" lon="6.8605">
        <ele>655.5</ele>
        <time>2016-05-15T07:44:25Z</time>
      </trkpt>
      <trkpt lat="43.88667" lon="6.8604">
        <ele>656.2</ele>
        <time>2016-05-15T07:44:31Z</time>
      </trkpt>
      <trkpt lat="43.88674" lon="6.86028">
        <ele>656.8</ele>
        <time>2016-05-15T07:44:37Z</time>
      </trkpt>
      <trkpt lat="43.88678" lon="6.86016">
        <ele>657.5</ele>
        <time>2016-05-15T07:44:43Z</time>
      </trkpt>
      <trkpt lat="43.88678" lon="6.86002">
        <ele>658.3</ele>
        <time>2016-05-15T07:44:49Z</time>
      </trkpt>
      <trkpt lat="43.88678" lon="6.85989">
        <ele>659.1</ele>
        <time>2016-05-15T07:44:55Z</time>
      </trkpt>
      <trkpt lat="43.88677" lon="6.85975">
        <ele>659.9</ele>
        <time>2016-05-15T07:45:01Z</time>
      </trkpt>
      <trkpt lat="43.88678" lon="6.85961">
        <ele>660.8</ele>
        <time>2016-05-15T07:45:07Z</time>
      </trkpt>
      <trkpt lat="43.88678" lon="6.85948">
        <ele>661.5</ele>
        <time>2016-05-15T07:45:13Z</time>
      </trkpt>
      <trkpt lat="43.8868" lon="6.85934">
        <ele>662.3</ele>
        <time>2016-05-15T07:45:20Z</time>
      </trkpt>
      <trkpt lat="43.8868" lon="6.8592">
        <ele>663.1</ele>
        <time>2016-05-15T07:45:26Z</time>
      </trkpt>
      <trkpt lat="43.88681" lon="6.85907">
        <ele>663.8</ele>
        <time>2016-05-15T07:45:32Z</time>
      </trkpt>
      <trkpt lat="43.88682" lon="6.85893">
        <ele>664.4</ele>
        <time>2016-05-15T07:45:38Z</time>
      </trkpt>
      <trkpt lat="43.88681" lon="6.85879">
        <ele>665.1</ele>
        <time>2016-05-15T07:45:44Z</time>
      </trkpt>
      <trkpt lat="43.88681" lon="6.85865">
        <ele>665.7</ele>
        <time>2016-05-15T07:45:50Z</time>
      </trkpt>
      <trkpt lat="43.88681" lon="6.85852">
        <ele>666.5</ele>
        <time>2016-05-15T07:45:56Z</time>
      </trkpt>
      <trkpt lat="43.8868" lon="6.85839">
        <ele>667.2</ele>
        <time>2016-05-15T07:46:02Z</time>
      </trkpt>
      <trkpt lat="43.88679" lon="6.85825">
        <ele>668</ele>
        <time>2016-05-15T07:46:09Z</time>
      </trkpt>
      <trkpt lat="43.88677" lon="6.85811">
        <ele>668.7</ele>
        <time>2016-05-15T07:46:15Z</time>
      </trkpt>
      <trkpt lat="43.88675" lon="6.85798">
        <ele>669.3</ele>
        <time>2016-05-15T07:46:20Z</time>
      </trkpt>
      <trkpt lat="43.88675" lon="6.85785">
        <ele>670.1</ele>
        <time>2016-05-15T07:46:26Z</time>
      </trkpt>
      <trkpt lat="43.88679" lon="6.85772">
        <ele>670.9</ele>
        <time>2016-05-15T07:46:32Z</time>
      </trkpt>
      <trkpt lat="43.88685" lon="6.85762">
        <ele>671.4</ele>
        <time>2016-05-15T07:46:37Z</time>
      </trkpt>
      <trkpt lat="43.88687" lon="6.85748">
        <ele>671.9</ele>
        <time>2016-05-15T07:46:43Z</time>
      </trkpt>
      <trkpt lat="43.88688" lon="6.85734">
        <ele>672.3</ele>
        <time>2016-05-15T07:46:49Z</time>
      </trkpt>
      <trkpt lat="43.8869" lon="6.85721">
        <ele>672.5</ele>
        <time>2016-05-15T07:46:54Z</time>
      </trkpt>
      <trkpt lat="43.88689" lon="6.85707">
        <ele>672.7</ele>
        <time>2016-05-15T07:47:01Z</time>
      </trkpt>
      <trkpt lat="43.8869" lon="6.85693">
        <ele>672.9</ele>
        <time>2016-05-15T07:47:17Z</time>
      </trkpt>
      <trkpt lat="43.88688" lon="6.85678">
        <ele>673</ele>
        <time>2016-05-15T07:47:22Z</time>
      </trkpt>
      <trkpt lat="43.8869" lon="6.85663">
        <ele>673.1</ele>
        <time>2016-05-15T07:47:27Z</time>
      </trkpt>
      <trkpt lat="43.88687" lon="6.8565">
        <ele>673.4</ele>
        <time>2016-05-15T07:47:34Z</time>
      </trkpt>
      <trkpt lat="43.88684" lon="6.85637">
        <ele>673.7</ele>
        <time>2016-05-15T07:47:41Z</time>
      </trkpt>
      <trkpt lat="43.8868" lon="6.85623">
        <ele>673.9</ele>
        <time>2016-05-15T07:47:49Z</time>
      </trkpt>
      <trkpt lat="43.88678" lon="6.8561">
        <ele>674.1</ele>
        <time>2016-05-15T07:47:54Z</time>
      </trkpt>
      <trkpt lat="43.88678" lon="6.85598">
        <ele>674.4</ele>
        <time>2016-05-15T07:48:00Z</time>
      </trkpt>
      <trkpt lat="43.88675" lon="6.85584">
        <ele>674.7</ele>
        <time>2016-05-15T07:48:07Z</time>
      </trkpt>
      <trkpt lat="43.88673" lon="6.8557">
        <ele>675.2</ele>
        <time>2016-05-15T07:48:15Z</time>
      </trkpt>
      <trkpt lat="43.88671" lon="6.85557">
        <ele>675.6</ele>
        <time>2016-05-15T07:48:20Z</time>
      </trkpt>
      <trkpt lat="43.8867" lon="6.85544">
        <ele>675.9</ele>
        <time>2016-05-15T07:48:26Z</time>
      </trkpt>
      <trkpt lat="43.88668" lon="6.85531">
        <ele>676.3</ele>
        <time>2016-05-15T07:48:33Z</time>
      </trkpt>
      <trkpt lat="43.88666" lon="6.85518">
        <ele>676.8</ele>
        <time>2016-05-15T07:48:39Z</time>
      </trkpt>
      <trkpt lat="43.88666" lon="6.85504">
        <ele>677.3</ele>
        <time>2016-05-15T07:48:45Z</time>
      </trkpt>
      <trkpt lat="43.88663" lon="6.8549">
        <ele>678</ele>
        <time>2016-05-15T07:48:53Z</time>
      </trkpt>
      <trkpt lat="43.8866" lon="6.85477">
        <ele>678.4</ele>
        <time>2016-05-15T07:48:59Z</time>
      </trkpt>
      <trkpt lat="43.88658" lon="6.85464">
        <ele>679.2</ele>
        <time>2016-05-15T07:49:06Z</time>
      </trkpt>
      <trkpt lat="43.88657" lon="6.8545">
        <ele>679.8</ele>
        <time>2016-05-15T07:49:14Z</time>
      </trkpt>
      <trkpt lat="43.88652" lon="6.85438">
        <ele>680.3</ele>
        <time>2016-05-15T07:49:21Z</time>
      </trkpt>
      <trkpt lat="43.8865" lon="6.85426">
        <ele>680.7</ele>
        <time>2016-05-15T07:49:28Z</time>
      </trkpt>
      <trkpt lat="43.88647" lon="6.85411">
        <ele>681.2</ele>
        <time>2016-05-15T07:49:34Z</time>
      </trkpt>
      <trkpt lat="43.88644" lon="6.85398">
        <ele>681.9</ele>
        <time>2016-05-15T07:49:42Z</time>
      </trkpt>
      <trkpt lat="43.88644" lon="6.85384">
        <ele>682.3</ele>
        <time>2016-05-15T07:49:48Z</time>
      </trkpt>
      <trkpt lat="43.88641" lon="6.85371">
        <ele>682.7</ele>
        <time>2016-05-15T07:49:54Z</time>
      </trkpt>
      <trkpt lat="43.8864" lon="6.85357">
        <ele>683</ele>
        <time>2016-05-15T07:50:00Z</time>
      </trkpt>
      <trkpt lat="43.88638" lon="6.85344">
        <ele>683.3</ele>
        <time>2016-05-15T07:50:08Z</time>
      </trkpt>
      <trkpt lat="43.88636" lon="6.8533">
        <ele>683.7</ele>
        <time>2016-05-15T07:50:17Z</time>
      </trkpt>
      <trkpt lat="43.88636" lon="6.85315">
        <ele>684</ele>
        <time>2016-05-15T07:50:23Z</time>
      </trkpt>
      <trkpt lat="43.88635" lon="6.85302">
        <ele>684.4</ele>
        <time>2016-05-15T07:50:30Z</time>
      </trkpt>
      <trkpt lat="43.88631" lon="6.85289">
        <ele>684.7</ele>
        <time>2016-05-15T07:50:35Z</time>
      </trkpt>
      <trkpt lat="43.88628" lon="6.85277">
        <ele>685.3</ele>
        <time>2016-05-15T07:50:40Z</time>
      </trkpt>
      <trkpt lat="43.88628" lon="6.85263">
        <ele>685.9</ele>
        <time>2016-05-15T07:50:47Z</time>
      </trkpt>
      <trkpt lat="43.88626" lon="6.85251">
        <ele>686.4</ele>
        <time>2016-05-15T07:50:53Z</time>
      </trkpt>
      <trkpt lat="43.88625" lon="6.85237">
        <ele>686.8</ele>
        <time>2016-05-15T07:51:00Z</time>
      </trkpt>
      <trkpt lat="43.88621" lon="6.85224">
        <ele>687.1</ele>
        <time>2016-05-15T07:51:06Z</time>
      </trkpt>
      <trkpt lat="43.88623" lon="6.85212">
        <ele>686.7</ele>
        <time>2016-05-15T07:51:11Z</time>
      </trkpt>
      <trkpt lat="43.88625" lon="6.85199">
        <ele>687.2</ele>
        <time>2016-05-15T07:51:17Z</time>
      </trkpt>
      <trkpt lat="43.88628" lon="6.85186">
        <ele>687.6</ele>
        <time>2016-05-15T07:51:23Z</time>
      </trkpt>
      <trkpt lat="43.88632" lon="6.85174">
        <ele>687.8</ele>
        <time>2016-05-15T07:51:28Z</time>
      </trkpt>
      <trkpt lat="43.88634" lon="6.85159">
        <ele>687.9</ele>
        <time>2016-05-15T07:51:33Z</time>
      </trkpt>
      <trkpt lat="43.88635" lon="6.85146">
        <ele>687.9</ele>
        <time>2016-05-15T07:51:37Z</time>
      </trkpt>
      <trkpt lat="43.88638" lon="6.85131">
        <ele>687.7</ele>
        <time>2016-05-15T07:51:41Z</time>
      </trkpt>
      <trkpt lat="43.88642" lon="6.85118">
        <ele>687.3</ele>
        <time>2016-05-15T07:51:45Z</time>
      </trkpt>
      <trkpt lat="43.88647" lon="6.85102">
        <ele>686.7</ele>
        <time>2016-05-15T07:51:49Z</time>
      </trkpt>
      <trkpt lat="43.88651" lon="6.85088">
        <ele>686.2</ele>
        <time>2016-05-15T07:51:52Z</time>
      </trkpt>
      <trkpt lat="43.88655" lon="6.85075">
        <ele>685.6</ele>
        <time>2016-05-15T07:51:55Z</time>
      </trkpt>
      <trkpt lat="43.8866" lon="6.85064">
        <ele>685.1</ele>
        <time>2016-05-15T07:51:57Z</time>
      </trkpt>
      <trkpt lat="43.88664" lon="6.85046">
        <ele>684.5</ele>
        <time>2016-05-15T07:52:00Z</time>
      </trkpt>
      <trkpt lat="43.8867" lon="6.85033">
        <ele>684</ele>
        <time>2016-05-15T07:52:02Z</time>
      </trkpt>
      <trkpt lat="43.88673" lon="6.85022">
        <ele>683.5</ele>
        <time>2016-05-15T07:52:04Z</time>
      </trkpt>
      <trkpt lat="43.88678" lon="6.85011">
        <ele>683</ele>
        <time>2016-05-15T07:52:06Z</time>
      </trkpt>
      <trkpt lat="43.88682" lon="6.85">
        <ele>682.3</ele>
        <time>2016-05-15T07:52:08Z</time>
      </trkpt>
      <trkpt lat="43.88685" lon="6.84985">
        <ele>681.6</ele>
        <time>2016-05-15T07:52:10Z</time>
      </trkpt>
      <trkpt lat="43.88687" lon="6.84967">
        <ele>680.8</ele>
        <time>2016-05-15T07:52:12Z</time>
      </trkpt>
      <trkpt lat="43.88686" lon="6.84947">
        <ele>679.9</ele>
        <time>2016-05-15T07:52:14Z</time>
      </trkpt>
      <trkpt lat="43.88685" lon="6.84929">
        <ele>679</ele>
        <time>2016-05-15T07:52:16Z</time>
      </trkpt>
      <trkpt lat="43.88685" lon="6.84912">
        <ele>678.2</ele>
        <time>2016-05-15T07:52:18Z</time>
      </trkpt>
      <trkpt lat="43.88684" lon="6.84895">
        <ele>677.3</ele>
        <time>2016-05-15T07:52:20Z</time>
      </trkpt>
      <trkpt lat="43.88683" lon="6.84879">
        <ele>676.5</ele>
        <time>2016-05-15T07:52:22Z</time>
      </trkpt>
      <trkpt lat="43.88684" lon="6.84864">
        <ele>675.8</ele>
        <time>2016-05-15T07:52:24Z</time>
      </trkpt>
      <trkpt lat="43.88686" lon="6.84851">
        <ele>675.2</ele>
        <time>2016-05-15T07:52:26Z</time>
      </trkpt>
      <trkpt lat="43.8869" lon="6.84835">
        <ele>674.4</ele>
        <time>2016-05-15T07:52:29Z</time>
      </trkpt>
      <trkpt lat="43.88693" lon="6.84821">
        <ele>673.5</ele>
        <time>2016-05-15T07:52:33Z</time>
      </trkpt>
      <trkpt lat="43.88699" lon="6.84808">
        <ele>672.7</ele>
        <time>2016-05-15T07:52:38Z</time>
      </trkpt>
      <trkpt lat="43.88702" lon="6.84795">
        <ele>672.2</ele>
        <time>2016-05-15T07:52:43Z</time>
      </trkpt>
      <trkpt lat="43.88705" lon="6.84783">
        <ele>672</ele>
        <time>2016-05-15T07:52:48Z</time>
      </trkpt>
      <trkpt lat="43.88707" lon="6.84769">
        <ele>671.4</ele>
        <time>2016-05-15T07:52:53Z</time>
      </trkpt>
      <trkpt lat="43.8871" lon="6.84755">
        <ele>671.7</ele>
        <time>2016-05-15T07:52:59Z</time>
      </trkpt>
      <trkpt lat="43.88713" lon="6.84742">
        <ele>672</ele>
        <time>2016-05-15T07:53:05Z</time>
      </trkpt>
      <trkpt lat="43.88716" lon="6.84728">
        <ele>672.6</ele>
        <time>2016-05-15T07:53:11Z</time>
      </trkpt>
      <trkpt lat="43.88717" lon="6.84714">
        <ele>673.3</ele>
        <time>2016-05-15T07:53:17Z</time>
      </trkpt>
      <trkpt lat="43.8872" lon="6.84702">
        <ele>674</ele>
        <time>2016-05-15T07:53:23Z</time>
      </trkpt>
      <trkpt lat="43.88723" lon="6.8469">
        <ele>674.7</ele>
        <time>2016-05-15T07:53:29Z</time>
      </trkpt>
      <trkpt lat="43.88726" lon="6.84676">
        <ele>675.8</ele>
        <time>2016-05-15T07:53:36Z</time>
      </trkpt>
      <trkpt lat="43.8873" lon="6.84663">
        <ele>676.7</ele>
        <time>2016-05-15T07:53:43Z</time>
      </trkpt>
      <trkpt lat="43.88734" lon="6.84652">
        <ele>677.8</ele>
        <time>2016-05-15T07:53:50Z</time>
      </trkpt>
      <trkpt lat="43.88739" lon="6.8464">
        <ele>679.1</ele>
        <time>2016-05-15T07:53:57Z</time>
      </trkpt>
      <trkpt lat="43.88743" lon="6.84629">
        <ele>680.5</ele>
        <time>2016-05-15T07:54:04Z</time>
      </trkpt>
      <trkpt lat="43.88747" lon="6.84617">
        <ele>681.7</ele>
        <time>2016-05-15T07:54:11Z</time>
      </trkpt>
      <trkpt lat="43.88752" lon="6.84606">
        <ele>683.2</ele>
        <time>2016-05-15T07:54:19Z</time>
      </trkpt>
      <trkpt lat="43.88757" lon="6.84594">
        <ele>685.1</ele>
        <time>2016-05-15T07:54:28Z</time>
      </trkpt>
      <trkpt lat="43.88762" lon="6.84583">
        <ele>687</ele>
        <time>2016-05-15T07:54:37Z</time>
      </trkpt>
      <trkpt lat="43.88768" lon="6.84573">
        <ele>689</ele>
        <time>2016-05-15T07:54:46Z</time>
      </trkpt>
      <trkpt lat="43.88775" lon="6.84564">
        <ele>690.8</ele>
        <time>2016-05-15T07:54:55Z</time>
      </trkpt>
      <trkpt lat="43.88784" lon="6.84558">
        <ele>692.5</ele>
        <time>2016-05-15T07:55:04Z</time>
      </trkpt>
      <trkpt lat="43.88792" lon="6.84551">
        <ele>693.8</ele>
        <time>2016-05-15T07:55:12Z</time>
      </trkpt>
      <trkpt lat="43.88799" lon="6.84541">
        <ele>694.8</ele>
        <time>2016-05-15T07:55:20Z</time>
      </trkpt>
      <trkpt lat="43.88805" lon="6.84532">
        <ele>696</ele>
        <time>2016-05-15T07:55:28Z</time>
      </trkpt>
      <trkpt lat="43.88812" lon="6.84521">
        <ele>697</ele>
        <time>2016-05-15T07:55:36Z</time>
      </trkpt>
      <trkpt lat="43.88819" lon="6.84513">
        <ele>698.1</ele>
        <time>2016-05-15T07:55:44Z</time>
      </trkpt>
      <trkpt lat="43.88826" lon="6.84505">
        <ele>699.1</ele>
        <time>2016-05-15T07:55:52Z</time>
      </trkpt>
      <trkpt lat="43.88834" lon="6.84495">
        <ele>700.2</ele>
        <time>2016-05-15T07:56:00Z</time>
      </trkpt>
      <trkpt lat="43.88842" lon="6.84486">
        <ele>701</ele>
        <time>2016-05-15T07:56:07Z</time>
      </trkpt>
      <trkpt lat="43.88848" lon="6.84477">
        <ele>701.7</ele>
        <time>2016-05-15T07:56:14Z</time>
      </trkpt>
      <trkpt lat="43.88857" lon="6.8447">
        <ele>702.3</ele>
        <time>2016-05-15T07:56:21Z</time>
      </trkpt>
      <trkpt lat="43.88864" lon="6.8446">
        <ele>703</ele>
        <time>2016-05-15T07:56:28Z</time>
      </trkpt>
      <trkpt lat="43.88871" lon="6.8445">
        <ele>703.9</ele>
        <time>2016-05-15T07:56:35Z</time>
      </trkpt>
      <trkpt lat="43.88877" lon="6.84439">
        <ele>704.7</ele>
        <time>2016-05-15T07:56:42Z</time>
      </trkpt>
      <trkpt lat="43.88884" lon="6.84429">
        <ele>705.8</ele>
        <time>2016-05-15T07:56:50Z</time>
      </trkpt>
      <trkpt lat="43.8889" lon="6.84419">
        <ele>706.8</ele>
        <time>2016-05-15T07:56:57Z</time>
      </trkpt>
      <trkpt lat="43.88897" lon="6.8441">
        <ele>707.8</ele>
        <time>2016-05-15T07:57:04Z</time>
      </trkpt>
      <trkpt lat="43.88904" lon="6.84402">
        <ele>709</ele>
        <time>2016-05-15T07:57:12Z</time>
      </trkpt>
      <trkpt lat="43.88911" lon="6.84393">
        <ele>709.9</ele>
        <time>2016-05-15T07:57:19Z</time>
      </trkpt>
      <trkpt lat="43.88917" lon="6.84381">
        <ele>711</ele>
        <time>2016-05-15T07:57:26Z</time>
      </trkpt>
      <trkpt lat="43.88923" lon="6.84369">
        <ele>711.9</ele>
        <time>2016-05-15T07:57:33Z</time>
      </trkpt>
      <trkpt lat="43.88929" lon="6.84359">
        <ele>712.6</ele>
        <time>2016-05-15T07:57:39Z</time>
      </trkpt>
      <trkpt lat="43.88935" lon="6.84348">
        <ele>713.3</ele>
        <time>2016-05-15T07:57:46Z</time>
      </trkpt>
      <trkpt lat="43.88943" lon="6.84338">
        <ele>714.1</ele>
        <time>2016-05-15T07:57:53Z</time>
      </trkpt>
      <trkpt lat="43.88948" lon="6.84328">
        <ele>714.7</ele>
        <time>2016-05-15T07:57:59Z</time>
      </trkpt>
      <trkpt lat="43.88954" lon="6.84317">
        <ele>715.4</ele>
        <time>2016-05-15T07:58:06Z</time>
      </trkpt>
      <trkpt lat="43.88959" lon="6.84306">
        <ele>715.9</ele>
        <time>2016-05-15T07:58:12Z</time>
      </trkpt>
      <trkpt lat="43.88963" lon="6.84295">
        <ele>716.4</ele>
        <time>2016-05-15T07:58:18Z</time>
      </trkpt>
      <trkpt lat="43.88966" lon="6.84281">
        <ele>717</ele>
        <time>2016-05-15T07:58:24Z</time>
      </trkpt>
      <trkpt lat="43.8897" lon="6.84268">
        <ele>717.4</ele>
        <time>2016-05-15T07:58:30Z</time>
      </trkpt>
      <trkpt lat="43.88974" lon="6.84256">
        <ele>717.9</ele>
        <time>2016-05-15T07:58:36Z</time>
      </trkpt>
      <trkpt lat="43.88978" lon="6.84243">
        <ele>718.5</ele>
        <time>2016-05-15T07:58:43Z</time>
      </trkpt>
      <trkpt lat="43.8898" lon="6.8423">
        <ele>719</ele>
        <time>2016-05-15T07:58:50Z</time>
      </trkpt>
      <trkpt lat="43.88983" lon="6.84218">
        <ele>720.2</ele>
        <time>2016-05-15T07:58:57Z</time>
      </trkpt>
      <trkpt lat="43.88985" lon="6.84205">
        <ele>721</ele>
        <time>2016-05-15T07:59:04Z</time>
      </trkpt>
      <trkpt lat="43.88987" lon="6.84193">
        <ele>721.8</ele>
        <time>2016-05-15T07:59:11Z</time>
      </trkpt>
      <trkpt lat="43.8899" lon="6.84179">
        <ele>722.8</ele>
        <time>2016-05-15T07:59:19Z</time>
      </trkpt>
      <trkpt lat="43.88989" lon="6.84166">
        <ele>723.7</ele>
        <time>2016-05-15T07:59:26Z</time>
      </trkpt>
      <trkpt lat="43.88988" lon="6.84152">
        <ele>724.7</ele>
        <time>2016-05-15T07:59:34Z</time>
      </trkpt>
      <trkpt lat="43.88989" lon="6.84138">
        <ele>725.9</ele>
        <time>2016-05-15T07:59:42Z</time>
      </trkpt>
      <trkpt lat="43.8899" lon="6.84125">
        <ele>726.9</ele>
        <time>2016-05-15T07:59:49Z</time>
      </trkpt>
      <trkpt lat="43.88991" lon="6.84113">
        <ele>728.3</ele>
        <time>2016-05-15T07:59:57Z</time>
      </trkpt>
      <trkpt lat="43.88992" lon="6.84099">
        <ele>729.9</ele>
        <time>2016-05-15T08:00:06Z</time>
      </trkpt>
      <trkpt lat="43.88994" lon="6.84086">
        <ele>731.5</ele>
        <time>2016-05-15T08:00:14Z</time>
      </trkpt>
      <trkpt lat="43.88997" lon="6.84074">
        <ele>733.3</ele>
        <time>2016-05-15T08:00:24Z</time>
      </trkpt>
      <trkpt lat="43.89003" lon="6.84064">
        <ele>735.3</ele>
        <time>2016-05-15T08:00:34Z</time>
      </trkpt>
      <trkpt lat="43.8901" lon="6.84054">
        <ele>737.3</ele>
        <time>2016-05-15T08:00:43Z</time>
      </trkpt>
      <trkpt lat="43.89016" lon="6.84045">
        <ele>738.9</ele>
        <time>2016-05-15T08:00:51Z</time>
      </trkpt>
      <trkpt lat="43.89022" lon="6.84034">
        <ele>740.6</ele>
        <time>2016-05-15T08:00:59Z</time>
      </trkpt>
      <trkpt lat="43.89025" lon="6.84023">
        <ele>742.2</ele>
        <time>2016-05-15T08:01:07Z</time>
      </trkpt>
      <trkpt lat="43.89029" lon="6.84011">
        <ele>743.7</ele>
        <time>2016-05-15T08:01:15Z</time>
      </trkpt>
      <trkpt lat="43.89032" lon="6.83998">
        <ele>745.3</ele>
        <time>2016-05-15T08:01:23Z</time>
      </trkpt>
      <trkpt lat="43.89036" lon="6.83985">
        <ele>746.7</ele>
        <time>2016-05-15T08:01:31Z</time>
      </trkpt>
      <trkpt lat="43.89039" lon="6.83973">
        <ele>747.8</ele>
        <time>2016-05-15T08:01:38Z</time>
      </trkpt>
      <trkpt lat="43.89043" lon="6.8396">
        <ele>749</ele>
        <time>2016-05-15T08:01:46Z</time>
      </trkpt>
      <trkpt lat="43.89045" lon="6.83947">
        <ele>750.5</ele>
        <time>2016-05-15T08:01:54Z</time>
      </trkpt>
      <trkpt lat="43.89043" lon="6.83934">
        <ele>752.3</ele>
        <time>2016-05-15T08:02:03Z</time>
      </trkpt>
      <trkpt lat="43.89037" lon="6.83942">
        <ele>754.4</ele>
        <time>2016-05-15T08:02:19Z</time>
      </trkpt>
      <trkpt lat="43.89037" lon="6.83929">
        <ele>756</ele>
        <time>2016-05-15T08:08:58Z</time>
      </trkpt>
      <trkpt lat="43.89046" lon="6.83929">
        <ele>756</ele>
        <time>2016-05-15T08:12:00Z</time>
      </trkpt>
      <trkpt lat="43.89053" lon="6.83921">
        <ele>756.4</ele>
        <time>2016-05-15T08:12:10Z</time>
      </trkpt>
      <trkpt lat="43.89061" lon="6.83913">
        <ele>757.1</ele>
        <time>2016-05-15T08:12:20Z</time>
      </trkpt>
      <trkpt lat="43.8907" lon="6.83907">
        <ele>758.3</ele>
        <time>2016-05-15T08:12:32Z</time>
      </trkpt>
      <trkpt lat="43.89077" lon="6.83896">
        <ele>759</ele>
        <time>2016-05-15T08:12:40Z</time>
      </trkpt>
      <trkpt lat="43.89084" lon="6.83887">
        <ele>759.8</ele>
        <time>2016-05-15T08:12:48Z</time>
      </trkpt>
      <trkpt lat="43.89089" lon="6.83877">
        <ele>760.6</ele>
        <time>2016-05-15T08:12:55Z</time>
      </trkpt>
      <trkpt lat="43.89095" lon="6.83867">
        <ele>761.4</ele>
        <time>2016-05-15T08:13:02Z</time>
      </trkpt>
      <trkpt lat="43.891" lon="6.83856">
        <ele>762.4</ele>
        <time>2016-05-15T08:13:08Z</time>
      </trkpt>
      <trkpt lat="43.89106" lon="6.83846">
        <ele>763.8</ele>
        <time>2016-05-15T08:13:16Z</time>
      </trkpt>
      <trkpt lat="43.89116" lon="6.83841">
        <ele>764.8</ele>
        <time>2016-05-15T08:13:22Z</time>
      </trkpt>
      <trkpt lat="43.89124" lon="6.83835">
        <ele>765.8</ele>
        <time>2016-05-15T08:13:30Z</time>
      </trkpt>
      <trkpt lat="43.89132" lon="6.83827">
        <ele>766.7</ele>
        <time>2016-05-15T08:13:38Z</time>
      </trkpt>
      <trkpt lat="43.89139" lon="6.83818">
        <ele>767.4</ele>
        <time>2016-05-15T08:13:46Z</time>
      </trkpt>
      <trkpt lat="43.89146" lon="6.83809">
        <ele>767.8</ele>
        <time>2016-05-15T08:13:52Z</time>
      </trkpt>
      <trkpt lat="43.89151" lon="6.83799">
        <ele>768.3</ele>
        <time>2016-05-15T08:13:59Z</time>
      </trkpt>
      <trkpt lat="43.89157" lon="6.83789">
        <ele>768.7</ele>
        <time>2016-05-15T08:14:05Z</time>
      </trkpt>
      <trkpt lat="43.89161" lon="6.83777">
        <ele>769.1</ele>
        <time>2016-05-15T08:14:11Z</time>
      </trkpt>
      <trkpt lat="43.89165" lon="6.83764">
        <ele>769.4</ele>
        <time>2016-05-15T08:14:19Z</time>
      </trkpt>
      <trkpt lat="43.89171" lon="6.83752">
        <ele>769.6</ele>
        <time>2016-05-15T08:14:25Z</time>
      </trkpt>
      <trkpt lat="43.89177" lon="6.83741">
        <ele>769.8</ele>
        <time>2016-05-15T08:14:29Z</time>
      </trkpt>
      <trkpt lat="43.89182" lon="6.83728">
        <ele>769.8</ele>
        <time>2016-05-15T08:14:32Z</time>
      </trkpt>
      <trkpt lat="43.89188" lon="6.83717">
        <ele>769.7</ele>
        <time>2016-05-15T08:14:35Z</time>
      </trkpt>
      <trkpt lat="43.8919" lon="6.83704">
        <ele>769.7</ele>
        <time>2016-05-15T08:14:38Z</time>
      </trkpt>
      <trkpt lat="43.89192" lon="6.83689">
        <ele>769.6</ele>
        <time>2016-05-15T08:14:42Z</time>
      </trkpt>
      <trkpt lat="43.89196" lon="6.83676">
        <ele>769.5</ele>
        <time>2016-05-15T08:14:49Z</time>
      </trkpt>
      <trkpt lat="43.892" lon="6.83662">
        <ele>769.4</ele>
        <time>2016-05-15T08:14:56Z</time>
      </trkpt>
      <trkpt lat="43.89205" lon="6.8365">
        <ele>769.4</ele>
        <time>2016-05-15T08:15:02Z</time>
      </trkpt>
      <trkpt lat="43.8921" lon="6.83639">
        <ele>769.4</ele>
        <time>2016-05-15T08:15:08Z</time>
      </trkpt>
      <trkpt lat="43.89214" lon="6.83628">
        <ele>769.5</ele>
        <time>2016-05-15T08:15:13Z</time>
      </trkpt>
      <trkpt lat="43.8922" lon="6.83616">
        <ele>769.6</ele>
        <time>2016-05-15T08:15:20Z</time>
      </trkpt>
      <trkpt lat="43.89228" lon="6.8361">
        <ele>769.7</ele>
        <time>2016-05-15T08:16:26Z</time>
      </trkpt>
      <trkpt lat="43.89223" lon="6.83599">
        <ele>769.8</ele>
        <time>2016-05-15T08:17:34Z</time>
      </trkpt>
      <trkpt lat="43.89222" lon="6.83584">
        <ele>769.8</ele>
        <time>2016-05-15T08:17:41Z</time>
      </trkpt>
      <trkpt lat="43.89221" lon="6.8357">
        <ele>770.1</ele>
        <time>2016-05-15T08:17:48Z</time>
      </trkpt>
      <trkpt lat="43.89216" lon="6.83558">
        <ele>770.4</ele>
        <time>2016-05-15T08:17:54Z</time>
      </trkpt>
      <trkpt lat="43.89211" lon="6.83547">
        <ele>770.8</ele>
        <time>2016-05-15T08:18:00Z</time>
      </trkpt>
      <trkpt lat="43.89205" lon="6.83537">
        <ele>771.3</ele>
        <time>2016-05-15T08:18:07Z</time>
      </trkpt>
      <trkpt lat="43.89204" lon="6.83523">
        <ele>771.9</ele>
        <time>2016-05-15T08:18:14Z</time>
      </trkpt>
      <trkpt lat="43.89203" lon="6.83511">
        <ele>772.5</ele>
        <time>2016-05-15T08:18:20Z</time>
      </trkpt>
      <trkpt lat="43.89197" lon="6.83499">
        <ele>773.6</ele>
        <time>2016-05-15T08:18:27Z</time>
      </trkpt>
      <trkpt lat="43.8919" lon="6.83491">
        <ele>774.5</ele>
        <time>2016-05-15T08:18:33Z</time>
      </trkpt>
      <trkpt lat="43.89183" lon="6.83481">
        <ele>776.6</ele>
        <time>2016-05-15T08:18:42Z</time>
      </trkpt>
      <trkpt lat="43.89181" lon="6.83467">
        <ele>779.9</ele>
        <time>2016-05-15T08:19:03Z</time>
      </trkpt>
      <trkpt lat="43.89179" lon="6.83455">
        <ele>781.5</ele>
        <time>2016-05-15T08:19:15Z</time>
      </trkpt>
      <trkpt lat="43.89176" lon="6.83443">
        <ele>783</ele>
        <time>2016-05-15T08:19:26Z</time>
      </trkpt>
      <trkpt lat="43.8917" lon="6.83433">
        <ele>784.7</ele>
        <time>2016-05-15T08:19:39Z</time>
      </trkpt>
      <trkpt lat="43.89163" lon="6.83424">
        <ele>786.4</ele>
        <time>2016-05-15T08:19:53Z</time>
      </trkpt>
      <trkpt lat="43.89162" lon="6.83411">
        <ele>789.1</ele>
        <time>2016-05-15T08:20:15Z</time>
      </trkpt>
      <trkpt lat="43.89163" lon="6.83399">
        <ele>791.6</ele>
        <time>2016-05-15T08:21:05Z</time>
      </trkpt>
      <trkpt lat="43.89164" lon="6.83386">
        <ele>794.6</ele>
        <time>2016-05-15T08:21:55Z</time>
      </trkpt>
      <trkpt lat="43.89169" lon="6.83374">
        <ele>796.3</ele>
        <time>2016-05-15T08:22:10Z</time>
      </trkpt>
      <trkpt lat="43.89177" lon="6.83367">
        <ele>799.3</ele>
        <time>2016-05-15T08:22:32Z</time>
      </trkpt>
      <trkpt lat="43.89183" lon="6.83357">
        <ele>801.4</ele>
        <time>2016-05-15T08:22:51Z</time>
      </trkpt>
      <trkpt lat="43.89182" lon="6.83344">
        <ele>803.8</ele>
        <time>2016-05-15T08:23:07Z</time>
      </trkpt>
      <trkpt lat="43.89176" lon="6.83334">
        <ele>806</ele>
        <time>2016-05-15T08:23:24Z</time>
      </trkpt>
      <trkpt lat="43.8917" lon="6.83324">
        <ele>808.2</ele>
        <time>2016-05-15T08:23:39Z</time>
      </trkpt>
      <trkpt lat="43.89169" lon="6.8331">
        <ele>810</ele>
        <time>2016-05-15T08:23:52Z</time>
      </trkpt>
      <trkpt lat="43.89162" lon="6.83303">
        <ele>811.7</ele>
        <time>2016-05-15T08:24:06Z</time>
      </trkpt>
      <trkpt lat="43.89154" lon="6.83296">
        <ele>813</ele>
        <time>2016-05-15T08:24:18Z</time>
      </trkpt>
      <trkpt lat="43.89147" lon="6.83287">
        <ele>814.7</ele>
        <time>2016-05-15T08:24:32Z</time>
      </trkpt>
      <trkpt lat="43.89139" lon="6.83279">
        <ele>816.1</ele>
        <time>2016-05-15T08:24:43Z</time>
      </trkpt>
      <trkpt lat="43.89133" lon="6.83268">
        <ele>817.3</ele>
        <time>2016-05-15T08:24:54Z</time>
      </trkpt>
      <trkpt lat="43.89125" lon="6.83263">
        <ele>818.5</ele>
        <time>2016-05-15T08:25:03Z</time>
      </trkpt>
      <trkpt lat="43.89117" lon="6.83255">
        <ele>820.8</ele>
        <time>2016-05-15T08:25:17Z</time>
      </trkpt>
      <trkpt lat="43.8911" lon="6.83246">
        <ele>823.3</ele>
        <time>2016-05-15T08:25:33Z</time>
      </trkpt>
      <trkpt lat="43.89107" lon="6.83234">
        <ele>825.3</ele>
        <time>2016-05-15T08:25:47Z</time>
      </trkpt>
      <trkpt lat="43.89101" lon="6.83225">
        <ele>826.8</ele>
        <time>2016-05-15T08:25:58Z</time>
      </trkpt>
      <trkpt lat="43.89097" lon="6.83213">
        <ele>829.2</ele>
        <time>2016-05-15T08:26:13Z</time>
      </trkpt>
      <trkpt lat="43.89102" lon="6.83202">
        <ele>830.1</ele>
        <time>2016-05-15T08:26:19Z</time>
      </trkpt>
      <trkpt lat="43.89096" lon="6.83193">
        <ele>832.7</ele>
        <time>2016-05-15T08:26:41Z</time>
      </trkpt>
      <trkpt lat="43.89097" lon="6.8318">
        <ele>834.3</ele>
        <time>2016-05-15T08:29:13Z</time>
      </trkpt>
      <trkpt lat="43.89094" lon="6.83168">
        <ele>835</ele>
        <time>2016-05-15T08:29:25Z</time>
      </trkpt>
      <trkpt lat="43.8909" lon="6.83157">
        <ele>836.2</ele>
        <time>2016-05-15T08:29:36Z</time>
      </trkpt>
      <trkpt lat="43.89085" lon="6.83145">
        <ele>837.7</ele>
        <time>2016-05-15T08:29:50Z</time>
      </trkpt>
      <trkpt lat="43.8908" lon="6.83134">
        <ele>839</ele>
        <time>2016-05-15T08:30:00Z</time>
      </trkpt>
      <trkpt lat="43.89079" lon="6.8312">
        <ele>840.3</ele>
        <time>2016-05-15T08:30:10Z</time>
      </trkpt>
      <trkpt lat="43.89079" lon="6.83107">
        <ele>841.1</ele>
        <time>2016-05-15T08:30:19Z</time>
      </trkpt>
      <trkpt lat="43.89074" lon="6.83096">
        <ele>842.1</ele>
        <time>2016-05-15T08:30:31Z</time>
      </trkpt>
      <trkpt lat="43.89069" lon="6.83086">
        <ele>842.8</ele>
        <time>2016-05-15T08:30:45Z</time>
      </trkpt>
      <trkpt lat="43.89065" lon="6.83074">
        <ele>843.7</ele>
        <time>2016-05-15T08:30:58Z</time>
      </trkpt>
      <trkpt lat="43.89063" lon="6.8306">
        <ele>845.1</ele>
        <time>2016-05-15T08:31:10Z</time>
      </trkpt>
      <trkpt lat="43.89058" lon="6.83049">
        <ele>846.7</ele>
        <time>2016-05-15T08:31:22Z</time>
      </trkpt>
      <trkpt lat="43.89053" lon="6.83038">
        <ele>848.3</ele>
        <time>2016-05-15T08:31:34Z</time>
      </trkpt>
      <trkpt lat="43.8905" lon="6.83025">
        <ele>849.3</ele>
        <time>2016-05-15T08:31:45Z</time>
      </trkpt>
      <trkpt lat="43.8905" lon="6.83013">
        <ele>850.3</ele>
        <time>2016-05-15T08:31:55Z</time>
      </trkpt>
      <trkpt lat="43.89047" lon="6.83001">
        <ele>852.2</ele>
        <time>2016-05-15T08:32:11Z</time>
      </trkpt>
      <trkpt lat="43.89045" lon="6.82987">
        <ele>852.8</ele>
        <time>2016-05-15T08:32:18Z</time>
      </trkpt>
      <trkpt lat="43.89045" lon="6.82974">
        <ele>853.2</ele>
        <time>2016-05-15T08:32:24Z</time>
      </trkpt>
      <trkpt lat="43.89043" lon="6.82962">
        <ele>854.2</ele>
        <time>2016-05-15T08:32:38Z</time>
      </trkpt>
      <trkpt lat="43.89043" lon="6.82949">
        <ele>855.8</ele>
        <time>2016-05-15T08:33:29Z</time>
      </trkpt>
      <trkpt lat="43.89046" lon="6.82937">
        <ele>856</ele>
        <time>2016-05-15T08:33:38Z</time>
      </trkpt>
      <trkpt lat="43.89048" lon="6.82923">
        <ele>857</ele>
        <time>2016-05-15T08:33:47Z</time>
      </trkpt>
      <trkpt lat="43.89049" lon="6.82909">
        <ele>857.8</ele>
        <time>2016-05-15T08:33:54Z</time>
      </trkpt>
      <trkpt lat="43.89053" lon="6.82897">
        <ele>858.6</ele>
        <time>2016-05-15T08:34:00Z</time>
      </trkpt>
      <trkpt lat="43.89056" lon="6.82884">
        <ele>859.2</ele>
        <time>2016-05-15T08:34:06Z</time>
      </trkpt>
      <trkpt lat="43.89057" lon="6.8287">
        <ele>859.7</ele>
        <time>2016-05-15T08:34:12Z</time>
      </trkpt>
      <trkpt lat="43.8906" lon="6.82857">
        <ele>860.3</ele>
        <time>2016-05-15T08:34:18Z</time>
      </trkpt>
      <trkpt lat="43.89061" lon="6.82843">
        <ele>860.8</ele>
        <time>2016-05-15T08:34:24Z</time>
      </trkpt>
      <trkpt lat="43.89068" lon="6.82832">
        <ele>861.1</ele>
        <time>2016-05-15T08:34:29Z</time>
      </trkpt>
      <trkpt lat="43.89076" lon="6.82822">
        <ele>861</ele>
        <time>2016-05-15T08:34:34Z</time>
      </trkpt>
      <trkpt lat="43.89074" lon="6.82809">
        <ele>860.7</ele>
        <time>2016-05-15T08:34:40Z</time>
      </trkpt>
      <trkpt lat="43.89067" lon="6.82801">
        <ele>860.3</ele>
        <time>2016-05-15T08:34:51Z</time>
      </trkpt>
      <trkpt lat="43.89063" lon="6.82789">
        <ele>860.6</ele>
        <time>2016-05-15T08:35:01Z</time>
      </trkpt>
      <trkpt lat="43.89064" lon="6.82775">
        <ele>861.2</ele>
        <time>2016-05-15T08:35:08Z</time>
      </trkpt>
      <trkpt lat="43.89063" lon="6.82761">
        <ele>862.2</ele>
        <time>2016-05-15T08:35:15Z</time>
      </trkpt>
      <trkpt lat="43.89062" lon="6.82747">
        <ele>863.1</ele>
        <time>2016-05-15T08:35:22Z</time>
      </trkpt>
      <trkpt lat="43.89061" lon="6.82733">
        <ele>864</ele>
        <time>2016-05-15T08:35:29Z</time>
      </trkpt>
      <trkpt lat="43.8906" lon="6.82719">
        <ele>865.2</ele>
        <time>2016-05-15T08:35:36Z</time>
      </trkpt>
      <trkpt lat="43.89059" lon="6.82706">
        <ele>866.7</ele>
        <time>2016-05-15T08:35:43Z</time>
      </trkpt>
      <trkpt lat="43.89061" lon="6.82694">
        <ele>868.4</ele>
        <time>2016-05-15T08:35:51Z</time>
      </trkpt>
      <trkpt lat="43.89052" lon="6.82691">
        <ele>871.3</ele>
        <time>2016-05-15T08:36:38Z</time>
      </trkpt>
      <trkpt lat="43.89053" lon="6.82678">
        <ele>871.5</ele>
        <time>2016-05-15T08:37:47Z</time>
      </trkpt>
      <trkpt lat="43.89048" lon="6.82666">
        <ele>871.4</ele>
        <time>2016-05-15T08:38:01Z</time>
      </trkpt>
      <trkpt lat="43.89042" lon="6.82655">
        <ele>871.3</ele>
        <time>2016-05-15T08:38:11Z</time>
      </trkpt>
      <trkpt lat="43.89038" lon="6.82644">
        <ele>871.3</ele>
        <time>2016-05-15T08:38:20Z</time>
      </trkpt>
      <trkpt lat="43.89034" lon="6.82632">
        <ele>871.7</ele>
        <time>2016-05-15T08:38:29Z</time>
      </trkpt>
      <trkpt lat="43.89028" lon="6.82621">
        <ele>872.3</ele>
        <time>2016-05-15T08:38:39Z</time>
      </trkpt>
      <trkpt lat="43.89027" lon="6.82607">
        <ele>872.9</ele>
        <time>2016-05-15T08:38:47Z</time>
      </trkpt>
      <trkpt lat="43.89024" lon="6.82595">
        <ele>873.5</ele>
        <time>2016-05-15T08:38:55Z</time>
      </trkpt>
      <trkpt lat="43.89023" lon="6.82581">
        <ele>874</ele>
        <time>2016-05-15T08:39:03Z</time>
      </trkpt>
      <trkpt lat="43.89025" lon="6.82567">
        <ele>874.6</ele>
        <time>2016-05-15T08:39:10Z</time>
      </trkpt>
      <trkpt lat="43.89026" lon="6.82553">
        <ele>875.1</ele>
        <time>2016-05-15T08:39:17Z</time>
      </trkpt>
      <trkpt lat="43.89028" lon="6.82539">
        <ele>875.5</ele>
        <time>2016-05-15T08:39:24Z</time>
      </trkpt>
      <trkpt lat="43.89028" lon="6.82525">
        <ele>875.9</ele>
        <time>2016-05-15T08:39:31Z</time>
      </trkpt>
      <trkpt lat="43.89029" lon="6.82511">
        <ele>876.4</ele>
        <time>2016-05-15T08:39:38Z</time>
      </trkpt>
      <trkpt lat="43.89028" lon="6.82497">
        <ele>877</ele>
        <time>2016-05-15T08:39:45Z</time>
      </trkpt>
      <trkpt lat="43.89025" lon="6.82484">
        <ele>877.6</ele>
        <time>2016-05-15T08:39:51Z</time>
      </trkpt>
      <trkpt lat="43.89021" lon="6.82473">
        <ele>878.1</ele>
        <time>2016-05-15T08:39:57Z</time>
      </trkpt>
      <trkpt lat="43.89018" lon="6.82459">
        <ele>878.6</ele>
        <time>2016-05-15T08:40:04Z</time>
      </trkpt>
      <trkpt lat="43.89015" lon="6.82445">
        <ele>879.1</ele>
        <time>2016-05-15T08:40:11Z</time>
      </trkpt>
      <trkpt lat="43.89012" lon="6.82432">
        <ele>879.7</ele>
        <time>2016-05-15T08:40:18Z</time>
      </trkpt>
      <trkpt lat="43.89009" lon="6.82419">
        <ele>880.5</ele>
        <time>2016-05-15T08:40:25Z</time>
      </trkpt>
      <trkpt lat="43.89005" lon="6.82406">
        <ele>881.3</ele>
        <time>2016-05-15T08:40:32Z</time>
      </trkpt>
      <trkpt lat="43.89001" lon="6.82394">
        <ele>881.9</ele>
        <time>2016-05-15T08:40:38Z</time>
      </trkpt>
      <trkpt lat="43.88998" lon="6.82382">
        <ele>882.5</ele>
        <time>2016-05-15T08:40:44Z</time>
      </trkpt>
      <trkpt lat="43.88996" lon="6.82369">
        <ele>883.2</ele>
        <time>2016-05-15T08:40:50Z</time>
      </trkpt>
      <trkpt lat="43.88995" lon="6.82356">
        <ele>883.7</ele>
        <time>2016-05-15T08:40:56Z</time>
      </trkpt>
      <trkpt lat="43.88993" lon="6.82344">
        <ele>884.3</ele>
        <time>2016-05-15T08:41:02Z</time>
      </trkpt>
      <trkpt lat="43.88993" lon="6.82331">
        <ele>885</ele>
        <time>2016-05-15T08:41:10Z</time>
      </trkpt>
      <trkpt lat="43.88998" lon="6.82319">
        <ele>885.8</ele>
        <time>2016-05-15T08:41:20Z</time>
      </trkpt>
      <trkpt lat="43.89007" lon="6.82312">
        <ele>887.3</ele>
        <time>2016-05-15T08:41:48Z</time>
      </trkpt>
      <trkpt lat="43.89016" lon="6.82309">
        <ele>888.4</ele>
        <time>2016-05-15T08:41:58Z</time>
      </trkpt>
      <trkpt lat="43.89023" lon="6.823">
        <ele>889.8</ele>
        <time>2016-05-15T08:42:07Z</time>
      </trkpt>
      <trkpt lat="43.89032" lon="6.82295">
        <ele>891.5</ele>
        <time>2016-05-15T08:42:17Z</time>
      </trkpt>
      <trkpt lat="43.8904" lon="6.82287">
        <ele>892.8</ele>
        <time>2016-05-15T08:42:26Z</time>
      </trkpt>
      <trkpt lat="43.89047" lon="6.8228">
        <ele>893.9</ele>
        <time>2016-05-15T08:42:33Z</time>
      </trkpt>
      <trkpt lat="43.89054" lon="6.8227">
        <ele>895.4</ele>
        <time>2016-05-15T08:42:42Z</time>
      </trkpt>
      <trkpt lat="43.89062" lon="6.82264">
        <ele>896.8</ele>
        <time>2016-05-15T08:42:50Z</time>
      </trkpt>
      <trkpt lat="43.8907" lon="6.82256">
        <ele>898.5</ele>
        <time>2016-05-15T08:43:01Z</time>
      </trkpt>
      <trkpt lat="43.89079" lon="6.82251">
        <ele>899.7</ele>
        <time>2016-05-15T08:43:09Z</time>
      </trkpt>
      <trkpt lat="43.89087" lon="6.82246">
        <ele>900.9</ele>
        <time>2016-05-15T08:43:17Z</time>
      </trkpt>
      <trkpt lat="43.89096" lon="6.8224">
        <ele>902</ele>
        <time>2016-05-15T08:43:25Z</time>
      </trkpt>
      <trkpt lat="43.89104" lon="6.82235">
        <ele>902.9</ele>
        <time>2016-05-15T08:43:33Z</time>
      </trkpt>
      <trkpt lat="43.89113" lon="6.82231">
        <ele>904.3</ele>
        <time>2016-05-15T08:43:43Z</time>
      </trkpt>
      <trkpt lat="43.89123" lon="6.82225">
        <ele>905.6</ele>
        <time>2016-05-15T08:43:52Z</time>
      </trkpt>
      <trkpt lat="43.89132" lon="6.8222">
        <ele>907</ele>
        <time>2016-05-15T08:44:01Z</time>
      </trkpt>
      <trkpt lat="43.89141" lon="6.82216">
        <ele>908.5</ele>
        <time>2016-05-15T08:44:09Z</time>
      </trkpt>
      <trkpt lat="43.8915" lon="6.82211">
        <ele>910.5</ele>
        <time>2016-05-15T08:44:19Z</time>
      </trkpt>
      <trkpt lat="43.89158" lon="6.82204">
        <ele>912.1</ele>
        <time>2016-05-15T08:44:26Z</time>
      </trkpt>
      <trkpt lat="43.89165" lon="6.82196">
        <ele>913.9</ele>
        <time>2016-05-15T08:44:34Z</time>
      </trkpt>
      <trkpt lat="43.89172" lon="6.82187">
        <ele>915.8</ele>
        <time>2016-05-15T08:44:43Z</time>
      </trkpt>
      <trkpt lat="43.89182" lon="6.82183">
        <ele>917.7</ele>
        <time>2016-05-15T08:44:53Z</time>
      </trkpt>
      <trkpt lat="43.89192" lon="6.8218">
        <ele>919.1</ele>
        <time>2016-05-15T08:45:01Z</time>
      </trkpt>
      <trkpt lat="43.892" lon="6.82174">
        <ele>920.4</ele>
        <time>2016-05-15T08:45:09Z</time>
      </trkpt>
      <trkpt lat="43.89208" lon="6.82166">
        <ele>922.4</ele>
        <time>2016-05-15T08:45:19Z</time>
      </trkpt>
      <trkpt lat="43.89217" lon="6.82163">
        <ele>924</ele>
        <time>2016-05-15T08:45:27Z</time>
      </trkpt>
      <trkpt lat="43.89227" lon="6.82159">
        <ele>926</ele>
        <time>2016-05-15T08:45:38Z</time>
      </trkpt>
      <trkpt lat="43.89237" lon="6.82155">
        <ele>927.4</ele>
        <time>2016-05-15T08:45:47Z</time>
      </trkpt>
      <trkpt lat="43.89246" lon="6.82152">
        <ele>928.6</ele>
        <time>2016-05-15T08:45:54Z</time>
      </trkpt>
      <trkpt lat="43.89253" lon="6.82144">
        <ele>929.8</ele>
        <time>2016-05-15T08:46:01Z</time>
      </trkpt>
      <trkpt lat="43.89257" lon="6.82132">
        <ele>931.3</ele>
        <time>2016-05-15T08:46:09Z</time>
      </trkpt>
      <trkpt lat="43.89262" lon="6.8212">
        <ele>932.8</ele>
        <time>2016-05-15T08:46:17Z</time>
      </trkpt>
      <trkpt lat="43.89264" lon="6.82107">
        <ele>934.8</ele>
        <time>2016-05-15T08:46:27Z</time>
      </trkpt>
      <trkpt lat="43.89269" lon="6.82095">
        <ele>936.2</ele>
        <time>2016-05-15T08:46:36Z</time>
      </trkpt>
      <trkpt lat="43.89273" lon="6.82083">
        <ele>937.5</ele>
        <time>2016-05-15T08:46:44Z</time>
      </trkpt>
      <trkpt lat="43.89278" lon="6.82072">
        <ele>939</ele>
        <time>2016-05-15T08:46:54Z</time>
      </trkpt>
      <trkpt lat="43.89284" lon="6.82063">
        <ele>940.2</ele>
        <time>2016-05-15T08:47:02Z</time>
      </trkpt>
      <trkpt lat="43.89291" lon="6.82053">
        <ele>941.6</ele>
        <time>2016-05-15T08:47:11Z</time>
      </trkpt>
      <trkpt lat="43.89299" lon="6.82046">
        <ele>943</ele>
        <time>2016-05-15T08:47:20Z</time>
      </trkpt>
      <trkpt lat="43.89305" lon="6.82037">
        <ele>944.2</ele>
        <time>2016-05-15T08:47:29Z</time>
      </trkpt>
      <trkpt lat="43.89313" lon="6.82028">
        <ele>945.5</ele>
        <time>2016-05-15T08:47:38Z</time>
      </trkpt>
      <trkpt lat="43.89321" lon="6.82021">
        <ele>947.1</ele>
        <time>2016-05-15T08:47:48Z</time>
      </trkpt>
      <trkpt lat="43.89329" lon="6.82013">
        <ele>949</ele>
        <time>2016-05-15T08:47:58Z</time>
      </trkpt>
      <trkpt lat="43.89332" lon="6.82001">
        <ele>951</ele>
        <time>2016-05-15T08:48:09Z</time>
      </trkpt>
      <trkpt lat="43.8934" lon="6.81993">
        <ele>952.4</ele>
        <time>2016-05-15T08:48:17Z</time>
      </trkpt>
      <trkpt lat="43.89348" lon="6.81986">
        <ele>954.2</ele>
        <time>2016-05-15T08:48:26Z</time>
      </trkpt>
      <trkpt lat="43.89356" lon="6.81977">
        <ele>956</ele>
        <time>2016-05-15T08:48:35Z</time>
      </trkpt>
      <trkpt lat="43.89365" lon="6.8197">
        <ele>957.7</ele>
        <time>2016-05-15T08:48:43Z</time>
      </trkpt>
      <trkpt lat="43.89372" lon="6.81963">
        <ele>959.4</ele>
        <time>2016-05-15T08:48:52Z</time>
      </trkpt>
      <trkpt lat="43.8938" lon="6.81956">
        <ele>961</ele>
        <time>2016-05-15T08:49:00Z</time>
      </trkpt>
      <trkpt lat="43.89388" lon="6.81948">
        <ele>962.4</ele>
        <time>2016-05-15T08:49:07Z</time>
      </trkpt>
      <trkpt lat="43.89394" lon="6.81938">
        <ele>964</ele>
        <time>2016-05-15T08:49:15Z</time>
      </trkpt>
      <trkpt lat="43.894" lon="6.81926">
        <ele>965.1</ele>
        <time>2016-05-15T08:49:23Z</time>
      </trkpt>
      <trkpt lat="43.89405" lon="6.81914">
        <ele>966</ele>
        <time>2016-05-15T08:49:30Z</time>
      </trkpt>
      <trkpt lat="43.8941" lon="6.81904">
        <ele>966.7</ele>
        <time>2016-05-15T08:49:38Z</time>
      </trkpt>
      <trkpt lat="43.89405" lon="6.81894">
        <ele>967.4</ele>
        <time>2016-05-15T08:54:19Z</time>
      </trkpt>
      <trkpt lat="43.89396" lon="6.8189">
        <ele>967.4</ele>
        <time>2016-05-15T08:55:18Z</time>
      </trkpt>
      <trkpt lat="43.89404" lon="6.81898">
        <ele>967.4</ele>
        <time>2016-05-15T08:56:50Z</time>
      </trkpt>
      <trkpt lat="43.89411" lon="6.81889">
        <ele>966.7</ele>
        <time>2016-05-15T09:01:06Z</time>
      </trkpt>
      <trkpt lat="43.89414" lon="6.81878">
        <ele>966.7</ele>
        <time>2016-05-15T09:01:12Z</time>
      </trkpt>
      <trkpt lat="43.8942" lon="6.81867">
        <ele>966.7</ele>
        <time>2016-05-15T09:01:19Z</time>
      </trkpt>
      <trkpt lat="43.89425" lon="6.81856">
        <ele>966.7</ele>
        <time>2016-05-15T09:01:27Z</time>
      </trkpt>
      <trkpt lat="43.89429" lon="6.81842">
        <ele>966.8</ele>
        <time>2016-05-15T09:01:32Z</time>
      </trkpt>
      <trkpt lat="43.89434" lon="6.8183">
        <ele>966.8</ele>
        <time>2016-05-15T09:01:37Z</time>
      </trkpt>
      <trkpt lat="43.89437" lon="6.81816">
        <ele>966.8</ele>
        <time>2016-05-15T09:01:44Z</time>
      </trkpt>
      <trkpt lat="43.89442" lon="6.81803">
        <ele>966.8</ele>
        <time>2016-05-15T09:01:49Z</time>
      </trkpt>
      <trkpt lat="43.89442" lon="6.81788">
        <ele>966.8</ele>
        <time>2016-05-15T09:01:53Z</time>
      </trkpt>
      <trkpt lat="43.89445" lon="6.81776">
        <ele>966.8</ele>
        <time>2016-05-15T09:01:57Z</time>
      </trkpt>
      <trkpt lat="43.8945" lon="6.81763">
        <ele>966.8</ele>
        <time>2016-05-15T09:02:02Z</time>
      </trkpt>
      <trkpt lat="43.89453" lon="6.8175">
        <ele>966.8</ele>
        <time>2016-05-15T09:02:07Z</time>
      </trkpt>
      <trkpt lat="43.89456" lon="6.81736">
        <ele>966.9</ele>
        <time>2016-05-15T09:02:13Z</time>
      </trkpt>
      <trkpt lat="43.89454" lon="6.81722">
        <ele>967.1</ele>
        <time>2016-05-15T09:02:18Z</time>
      </trkpt>
      <trkpt lat="43.8945" lon="6.8171">
        <ele>967.3</ele>
        <time>2016-05-15T09:02:23Z</time>
      </trkpt>
      <trkpt lat="43.89446" lon="6.81697">
        <ele>967.4</ele>
        <time>2016-05-15T09:02:27Z</time>
      </trkpt>
      <trkpt lat="43.89443" lon="6.81683">
        <ele>967.4</ele>
        <time>2016-05-15T09:02:31Z</time>
      </trkpt>
      <trkpt lat="43.8944" lon="6.81668">
        <ele>967.5</ele>
        <time>2016-05-15T09:02:35Z</time>
      </trkpt>
      <trkpt lat="43.8944" lon="6.81654">
        <ele>967.5</ele>
        <time>2016-05-15T09:02:38Z</time>
      </trkpt>
      <trkpt lat="43.89439" lon="6.81636">
        <ele>967.3</ele>
        <time>2016-05-15T09:02:41Z</time>
      </trkpt>
      <trkpt lat="43.89442" lon="6.81621">
        <ele>967</ele>
        <time>2016-05-15T09:02:43Z</time>
      </trkpt>
      <trkpt lat="43.89445" lon="6.81606">
        <ele>966.6</ele>
        <time>2016-05-15T09:02:45Z</time>
      </trkpt>
      <trkpt lat="43.89454" lon="6.816">
        <ele>965.5</ele>
        <time>2016-05-15T09:02:50Z</time>
      </trkpt>
      <trkpt lat="43.89459" lon="6.81611">
        <ele>963.9</ele>
        <time>2016-05-15T09:03:00Z</time>
      </trkpt>
      <trkpt lat="43.89463" lon="6.81622">
        <ele>963.8</ele>
        <time>2016-05-15T09:03:11Z</time>
      </trkpt>
      <trkpt lat="43.89471" lon="6.8163">
        <ele>963.5</ele>
        <time>2016-05-15T09:03:18Z</time>
      </trkpt>
      <trkpt lat="43.89474" lon="6.81642">
        <ele>963.4</ele>
        <time>2016-05-15T09:03:26Z</time>
      </trkpt>
      <trkpt lat="43.8948" lon="6.81652">
        <ele>963.8</ele>
        <time>2016-05-15T09:03:33Z</time>
      </trkpt>
      <trkpt lat="43.89488" lon="6.81659">
        <ele>964.2</ele>
        <time>2016-05-15T09:03:39Z</time>
      </trkpt>
      <trkpt lat="43.89496" lon="6.81665">
        <ele>964.8</ele>
        <time>2016-05-15T09:03:45Z</time>
      </trkpt>
      <trkpt lat="43.89505" lon="6.81666">
        <ele>965.4</ele>
        <time>2016-05-15T09:03:51Z</time>
      </trkpt>
      <trkpt lat="43.89514" lon="6.81663">
        <ele>966.2</ele>
        <time>2016-05-15T09:03:59Z</time>
      </trkpt>
      <trkpt lat="43.89524" lon="6.81665">
        <ele>966.9</ele>
        <time>2016-05-15T09:04:05Z</time>
      </trkpt>
      <trkpt lat="43.89533" lon="6.81671">
        <ele>967.8</ele>
        <time>2016-05-15T09:04:12Z</time>
      </trkpt>
      <trkpt lat="43.89542" lon="6.81677">
        <ele>969</ele>
        <time>2016-05-15T09:04:20Z</time>
      </trkpt>
      <trkpt lat="43.8955" lon="6.81683">
        <ele>970.1</ele>
        <time>2016-05-15T09:04:27Z</time>
      </trkpt>
      <trkpt lat="43.89559" lon="6.81688">
        <ele>971.2</ele>
        <time>2016-05-15T09:04:35Z</time>
      </trkpt>
      <trkpt lat="43.89568" lon="6.81689">
        <ele>972.2</ele>
        <time>2016-05-15T09:04:42Z</time>
      </trkpt>
      <trkpt lat="43.89578" lon="6.81688">
        <ele>973.1</ele>
        <time>2016-05-15T09:04:50Z</time>
      </trkpt>
      <trkpt lat="43.89587" lon="6.81687">
        <ele>974</ele>
        <time>2016-05-15T09:04:58Z</time>
      </trkpt>
      <trkpt lat="43.89595" lon="6.81693">
        <ele>974.5</ele>
        <time>2016-05-15T09:05:04Z</time>
      </trkpt>
      <trkpt lat="43.89596" lon="6.81705">
        <ele>975.3</ele>
        <time>2016-05-15T09:05:12Z</time>
      </trkpt>
      <trkpt lat="43.89598" lon="6.81718">
        <ele>976</ele>
        <time>2016-05-15T09:05:19Z</time>
      </trkpt>
      <trkpt lat="43.89604" lon="6.81729">
        <ele>976.8</ele>
        <time>2016-05-15T09:05:27Z</time>
      </trkpt>
      <trkpt lat="43.8961" lon="6.81739">
        <ele>977.7</ele>
        <time>2016-05-15T09:05:34Z</time>
      </trkpt>
      <trkpt lat="43.89616" lon="6.81748">
        <ele>978.4</ele>
        <time>2016-05-15T09:05:41Z</time>
      </trkpt>
      <trkpt lat="43.89622" lon="6.81758">
        <ele>979.3</ele>
        <time>2016-05-15T09:05:49Z</time>
      </trkpt>
      <trkpt lat="43.89629" lon="6.81766">
        <ele>980.2</ele>
        <time>2016-05-15T09:05:57Z</time>
      </trkpt>
      <trkpt lat="43.89637" lon="6.81772">
        <ele>981.3</ele>
        <time>2016-05-15T09:06:05Z</time>
      </trkpt>
      <trkpt lat="43.89645" lon="6.81778">
        <ele>982.6</ele>
        <time>2016-05-15T09:06:13Z</time>
      </trkpt>
      <trkpt lat="43.89654" lon="6.81784">
        <ele>983.7</ele>
        <time>2016-05-15T09:06:21Z</time>
      </trkpt>
      <trkpt lat="43.89662" lon="6.81789">
        <ele>984.5</ele>
        <time>2016-05-15T09:06:29Z</time>
      </trkpt>
      <trkpt lat="43.89672" lon="6.81791">
        <ele>985.9</ele>
        <time>2016-05-15T09:06:40Z</time>
      </trkpt>
      <trkpt lat="43.89681" lon="6.81791">
        <ele>986.8</ele>
        <time>2016-05-15T09:06:47Z</time>
      </trkpt>
      <trkpt lat="43.89691" lon="6.81795">
        <ele>987.8</ele>
        <time>2016-05-15T09:06:55Z</time>
      </trkpt>
      <trkpt lat="43.89699" lon="6.81802">
        <ele>988.6</ele>
        <time>2016-05-15T09:07:03Z</time>
      </trkpt>
      <trkpt lat="43.89706" lon="6.81811">
        <ele>989.7</ele>
        <time>2016-05-15T09:07:12Z</time>
      </trkpt>
      <trkpt lat="43.89713" lon="6.8182">
        <ele>990.8</ele>
        <time>2016-05-15T09:07:21Z</time>
      </trkpt>
      <trkpt lat="43.8972" lon="6.81829">
        <ele>991.8</ele>
        <time>2016-05-15T09:07:30Z</time>
      </trkpt>
      <trkpt lat="43.89729" lon="6.81837">
        <ele>992.9</ele>
        <time>2016-05-15T09:07:39Z</time>
      </trkpt>
      <trkpt lat="43.89738" lon="6.81843">
        <ele>993.9</ele>
        <time>2016-05-15T09:07:47Z</time>
      </trkpt>
      <trkpt lat="43.89747" lon="6.81849">
        <ele>994.7</ele>
        <time>2016-05-15T09:07:55Z</time>
      </trkpt>
      <trkpt lat="43.89755" lon="6.81856">
        <ele>995.6</ele>
        <time>2016-05-15T09:08:03Z</time>
      </trkpt>
      <trkpt lat="43.89764" lon="6.8186">
        <ele>996.5</ele>
        <time>2016-05-15T09:08:11Z</time>
      </trkpt>
      <trkpt lat="43.89768" lon="6.81849">
        <ele>997.5</ele>
        <time>2016-05-15T09:08:19Z</time>
      </trkpt>
      <trkpt lat="43.89762" lon="6.81838">
        <ele>998.6</ele>
        <time>2016-05-15T09:08:28Z</time>
      </trkpt>
      <trkpt lat="43.89754" lon="6.81831">
        <ele>999.6</ele>
        <time>2016-05-15T09:08:37Z</time>
      </trkpt>
      <trkpt lat="43.89748" lon="6.81821">
        <ele>1000.7</ele>
        <time>2016-05-15T09:08:46Z</time>
      </trkpt>
      <trkpt lat="43.89741" lon="6.81811">
        <ele>1001.7</ele>
        <time>2016-05-15T09:08:54Z</time>
      </trkpt>
      <trkpt lat="43.89748" lon="6.81803">
        <ele>1003.2</ele>
        <time>2016-05-15T09:09:08Z</time>
      </trkpt>
      <trkpt lat="43.89755" lon="6.81812">
        <ele>1004</ele>
        <time>2016-05-15T09:09:17Z</time>
      </trkpt>
      <trkpt lat="43.89763" lon="6.81819">
        <ele>1004.6</ele>
        <time>2016-05-15T09:09:25Z</time>
      </trkpt>
      <trkpt lat="43.89773" lon="6.81822">
        <ele>1005.3</ele>
        <time>2016-05-15T09:09:33Z</time>
      </trkpt>
      <trkpt lat="43.89782" lon="6.81826">
        <ele>1006</ele>
        <time>2016-05-15T09:09:41Z</time>
      </trkpt>
      <trkpt lat="43.89791" lon="6.81832">
        <ele>1006.8</ele>
        <time>2016-05-15T09:09:49Z</time>
      </trkpt>
      <trkpt lat="43.89798" lon="6.81839">
        <ele>1007.5</ele>
        <time>2016-05-15T09:09:56Z</time>
      </trkpt>
      <trkpt lat="43.89806" lon="6.81849">
        <ele>1008.6</ele>
        <time>2016-05-15T09:10:04Z</time>
      </trkpt>
      <trkpt lat="43.89812" lon="6.81859">
        <ele>1009.7</ele>
        <time>2016-05-15T09:10:12Z</time>
      </trkpt>
      <trkpt lat="43.89822" lon="6.8186">
        <ele>1010.8</ele>
        <time>2016-05-15T09:10:20Z</time>
      </trkpt>
      <trkpt lat="43.89818" lon="6.81848">
        <ele>1011.8</ele>
        <time>2016-05-15T09:10:29Z</time>
      </trkpt>
      <trkpt lat="43.89813" lon="6.81838">
        <ele>1012.8</ele>
        <time>2016-05-15T09:10:36Z</time>
      </trkpt>
      <trkpt lat="43.89808" lon="6.81827">
        <ele>1013.8</ele>
        <time>2016-05-15T09:10:44Z</time>
      </trkpt>
      <trkpt lat="43.89801" lon="6.81818">
        <ele>1014.5</ele>
        <time>2016-05-15T09:10:52Z</time>
      </trkpt>
      <trkpt lat="43.89795" lon="6.81806">
        <ele>1015.6</ele>
        <time>2016-05-15T09:11:00Z</time>
      </trkpt>
      <trkpt lat="43.89792" lon="6.81794">
        <ele>1016.6</ele>
        <time>2016-05-15T09:11:08Z</time>
      </trkpt>
      <trkpt lat="43.89785" lon="6.81785">
        <ele>1017.7</ele>
        <time>2016-05-15T09:11:16Z</time>
      </trkpt>
      <trkpt lat="43.89782" lon="6.81772">
        <ele>1018.9</ele>
        <time>2016-05-15T09:11:25Z</time>
      </trkpt>
      <trkpt lat="43.8978" lon="6.8176">
        <ele>1019.8</ele>
        <time>2016-05-15T09:11:33Z</time>
      </trkpt>
      <trkpt lat="43.8978" lon="6.81747">
        <ele>1021</ele>
        <time>2016-05-15T09:11:41Z</time>
      </trkpt>
      <trkpt lat="43.89779" lon="6.81734">
        <ele>1021.9</ele>
        <time>2016-05-15T09:11:48Z</time>
      </trkpt>
      <trkpt lat="43.89773" lon="6.81723">
        <ele>1022.8</ele>
        <time>2016-05-15T09:11:57Z</time>
      </trkpt>
      <trkpt lat="43.89765" lon="6.81715">
        <ele>1023.8</ele>
        <time>2016-05-15T09:12:05Z</time>
      </trkpt>
      <trkpt lat="43.89757" lon="6.81707">
        <ele>1024.9</ele>
        <time>2016-05-15T09:12:14Z</time>
      </trkpt>
      <trkpt lat="43.8975" lon="6.81699">
        <ele>1026.1</ele>
        <time>2016-05-15T09:12:22Z</time>
      </trkpt>
      <trkpt lat="43.89743" lon="6.8169">
        <ele>1027.2</ele>
        <time>2016-05-15T09:12:30Z</time>
      </trkpt>
      <trkpt lat="43.89738" lon="6.81679">
        <ele>1028.3</ele>
        <time>2016-05-15T09:12:38Z</time>
      </trkpt>
      <trkpt lat="43.89732" lon="6.81669">
        <ele>1029.2</ele>
        <time>2016-05-15T09:12:47Z</time>
      </trkpt>
      <trkpt lat="43.89724" lon="6.8166">
        <ele>1030</ele>
        <time>2016-05-15T09:12:54Z</time>
      </trkpt>
      <trkpt lat="43.89717" lon="6.8165">
        <ele>1031</ele>
        <time>2016-05-15T09:13:02Z</time>
      </trkpt>
      <trkpt lat="43.89711" lon="6.81639">
        <ele>1031.9</ele>
        <time>2016-05-15T09:13:10Z</time>
      </trkpt>
      <trkpt lat="43.89707" lon="6.81627">
        <ele>1032.8</ele>
        <time>2016-05-15T09:13:19Z</time>
      </trkpt>
      <trkpt lat="43.89702" lon="6.81616">
        <ele>1033.6</ele>
        <time>2016-05-15T09:13:26Z</time>
      </trkpt>
      <trkpt lat="43.89697" lon="6.81605">
        <ele>1034.7</ele>
        <time>2016-05-15T09:13:35Z</time>
      </trkpt>
      <trkpt lat="43.89692" lon="6.81594">
        <ele>1035.8</ele>
        <time>2016-05-15T09:13:44Z</time>
      </trkpt>
      <trkpt lat="43.89689" lon="6.81581">
        <ele>1036.9</ele>
        <time>2016-05-15T09:13:53Z</time>
      </trkpt>
      <trkpt lat="43.89684" lon="6.8157">
        <ele>1037.8</ele>
        <time>2016-05-15T09:14:01Z</time>
      </trkpt>
      <trkpt lat="43.8968" lon="6.81558">
        <ele>1039</ele>
        <time>2016-05-15T09:14:10Z</time>
      </trkpt>
      <trkpt lat="43.89676" lon="6.81545">
        <ele>1040.3</ele>
        <time>2016-05-15T09:14:20Z</time>
      </trkpt>
      <trkpt lat="43.89669" lon="6.81535">
        <ele>1041.2</ele>
        <time>2016-05-15T09:14:29Z</time>
      </trkpt>
      <trkpt lat="43.89663" lon="6.81526">
        <ele>1042.1</ele>
        <time>2016-05-15T09:14:37Z</time>
      </trkpt>
      <trkpt lat="43.89658" lon="6.81515">
        <ele>1043.1</ele>
        <time>2016-05-15T09:14:46Z</time>
      </trkpt>
      <trkpt lat="43.89654" lon="6.81503">
        <ele>1044.2</ele>
        <time>2016-05-15T09:14:55Z</time>
      </trkpt>
      <trkpt lat="43.89651" lon="6.81491">
        <ele>1045.2</ele>
        <time>2016-05-15T09:15:03Z</time>
      </trkpt>
      <trkpt lat="43.89647" lon="6.8148">
        <ele>1046.3</ele>
        <time>2016-05-15T09:15:12Z</time>
      </trkpt>
      <trkpt lat="43.89644" lon="6.81467">
        <ele>1047.3</ele>
        <time>2016-05-15T09:15:20Z</time>
      </trkpt>
      <trkpt lat="43.89642" lon="6.81455">
        <ele>1048.6</ele>
        <time>2016-05-15T09:15:29Z</time>
      </trkpt>
      <trkpt lat="43.89641" lon="6.81442">
        <ele>1049.9</ele>
        <time>2016-05-15T09:15:38Z</time>
      </trkpt>
      <trkpt lat="43.89641" lon="6.81429">
        <ele>1051.1</ele>
        <time>2016-05-15T09:15:47Z</time>
      </trkpt>
      <trkpt lat="43.89638" lon="6.81416">
        <ele>1052</ele>
        <time>2016-05-15T09:15:54Z</time>
      </trkpt>
      <trkpt lat="43.89632" lon="6.81405">
        <ele>1053.1</ele>
        <time>2016-05-15T09:16:02Z</time>
      </trkpt>
      <trkpt lat="43.89627" lon="6.81394">
        <ele>1053.9</ele>
        <time>2016-05-15T09:16:10Z</time>
      </trkpt>
      <trkpt lat="43.89622" lon="6.81383">
        <ele>1055</ele>
        <time>2016-05-15T09:16:18Z</time>
      </trkpt>
      <trkpt lat="43.89616" lon="6.81372">
        <ele>1055.7</ele>
        <time>2016-05-15T09:16:26Z</time>
      </trkpt>
      <trkpt lat="43.89611" lon="6.81362">
        <ele>1056.4</ele>
        <time>2016-05-15T09:16:33Z</time>
      </trkpt>
      <trkpt lat="43.89604" lon="6.81352">
        <ele>1057.3</ele>
        <time>2016-05-15T09:16:41Z</time>
      </trkpt>
      <trkpt lat="43.89599" lon="6.81341">
        <ele>1058.2</ele>
        <time>2016-05-15T09:16:49Z</time>
      </trkpt>
      <trkpt lat="43.89594" lon="6.8133">
        <ele>1058.9</ele>
        <time>2016-05-15T09:16:56Z</time>
      </trkpt>
      <trkpt lat="43.89588" lon="6.8132">
        <ele>1060</ele>
        <time>2016-05-15T09:17:04Z</time>
      </trkpt>
      <trkpt lat="43.89584" lon="6.81309">
        <ele>1061</ele>
        <time>2016-05-15T09:17:12Z</time>
      </trkpt>
      <trkpt lat="43.8958" lon="6.81296">
        <ele>1062.3</ele>
        <time>2016-05-15T09:17:21Z</time>
      </trkpt>
      <trkpt lat="43.89575" lon="6.81286">
        <ele>1063.1</ele>
        <time>2016-05-15T09:17:27Z</time>
      </trkpt>
      <trkpt lat="43.89569" lon="6.81275">
        <ele>1064</ele>
        <time>2016-05-15T09:17:34Z</time>
      </trkpt>
      <trkpt lat="43.89561" lon="6.81267">
        <ele>1064.8</ele>
        <time>2016-05-15T09:17:41Z</time>
      </trkpt>
      <trkpt lat="43.89554" lon="6.81258">
        <ele>1065.6</ele>
        <time>2016-05-15T09:17:49Z</time>
      </trkpt>
      <trkpt lat="43.8955" lon="6.81247">
        <ele>1066.5</ele>
        <time>2016-05-15T09:17:57Z</time>
      </trkpt>
      <trkpt lat="43.89544" lon="6.81237">
        <ele>1067.4</ele>
        <time>2016-05-15T09:18:05Z</time>
      </trkpt>
      <trkpt lat="43.89537" lon="6.81229">
        <ele>1068.3</ele>
        <time>2016-05-15T09:18:12Z</time>
      </trkpt>
      <trkpt lat="43.8953" lon="6.81221">
        <ele>1069.1</ele>
        <time>2016-05-15T09:18:19Z</time>
      </trkpt>
      <trkpt lat="43.89522" lon="6.81213">
        <ele>1069.9</ele>
        <time>2016-05-15T09:18:26Z</time>
      </trkpt>
      <trkpt lat="43.89516" lon="6.81204">
        <ele>1070.5</ele>
        <time>2016-05-15T09:18:33Z</time>
      </trkpt>
      <trkpt lat="43.89511" lon="6.81194">
        <ele>1071.2</ele>
        <time>2016-05-15T09:18:40Z</time>
      </trkpt>
      <trkpt lat="43.89508" lon="6.81181">
        <ele>1072.3</ele>
        <time>2016-05-15T09:18:49Z</time>
      </trkpt>
      <trkpt lat="43.89504" lon="6.81168">
        <ele>1073.5</ele>
        <time>2016-05-15T09:18:57Z</time>
      </trkpt>
      <trkpt lat="43.895" lon="6.81156">
        <ele>1074.5</ele>
        <time>2016-05-15T09:19:05Z</time>
      </trkpt>
      <trkpt lat="43.89495" lon="6.81146">
        <ele>1075.4</ele>
        <time>2016-05-15T09:19:12Z</time>
      </trkpt>
      <trkpt lat="43.89487" lon="6.81138">
        <ele>1076.4</ele>
        <time>2016-05-15T09:19:20Z</time>
      </trkpt>
      <trkpt lat="43.89479" lon="6.81128">
        <ele>1077.6</ele>
        <time>2016-05-15T09:19:29Z</time>
      </trkpt>
      <trkpt lat="43.89472" lon="6.8112">
        <ele>1078.6</ele>
        <time>2016-05-15T09:19:37Z</time>
      </trkpt>
      <trkpt lat="43.89466" lon="6.81109">
        <ele>1079.6</ele>
        <time>2016-05-15T09:19:45Z</time>
      </trkpt>
      <trkpt lat="43.89466" lon="6.81096">
        <ele>1080.7</ele>
        <time>2016-05-15T09:19:54Z</time>
      </trkpt>
      <trkpt lat="43.89466" lon="6.81082">
        <ele>1081.6</ele>
        <time>2016-05-15T09:20:02Z</time>
      </trkpt>
      <trkpt lat="43.89462" lon="6.8107">
        <ele>1082.5</ele>
        <time>2016-05-15T09:20:09Z</time>
      </trkpt>
      <trkpt lat="43.89458" lon="6.81059">
        <ele>1083.6</ele>
        <time>2016-05-15T09:20:17Z</time>
      </trkpt>
      <trkpt lat="43.89451" lon="6.81049">
        <ele>1084.6</ele>
        <time>2016-05-15T09:20:24Z</time>
      </trkpt>
      <trkpt lat="43.89443" lon="6.8104">
        <ele>1085.7</ele>
        <time>2016-05-15T09:20:32Z</time>
      </trkpt>
      <trkpt lat="43.89436" lon="6.8103">
        <ele>1086.6</ele>
        <time>2016-05-15T09:20:40Z</time>
      </trkpt>
      <trkpt lat="43.8943" lon="6.8102">
        <ele>1087.3</ele>
        <time>2016-05-15T09:20:47Z</time>
      </trkpt>
      <trkpt lat="43.89424" lon="6.8101">
        <ele>1088.3</ele>
        <time>2016-05-15T09:20:55Z</time>
      </trkpt>
      <trkpt lat="43.8942" lon="6.80998">
        <ele>1089.3</ele>
        <time>2016-05-15T09:21:03Z</time>
      </trkpt>
      <trkpt lat="43.89416" lon="6.80986">
        <ele>1090.3</ele>
        <time>2016-05-15T09:21:11Z</time>
      </trkpt>
      <trkpt lat="43.89412" lon="6.80974">
        <ele>1091.2</ele>
        <time>2016-05-15T09:21:19Z</time>
      </trkpt>
      <trkpt lat="43.89411" lon="6.80961">
        <ele>1092.1</ele>
        <time>2016-05-15T09:21:27Z</time>
      </trkpt>
      <trkpt lat="43.89421" lon="6.80961">
        <ele>1093.9</ele>
        <time>2016-05-15T09:26:36Z</time>
      </trkpt>
      <trkpt lat="43.89427" lon="6.80971">
        <ele>1094</ele>
        <time>2016-05-15T09:26:42Z</time>
      </trkpt>
      <trkpt lat="43.89433" lon="6.80982">
        <ele>1094.1</ele>
        <time>2016-05-15T09:26:48Z</time>
      </trkpt>
      <trkpt lat="43.8944" lon="6.8099">
        <ele>1094.2</ele>
        <time>2016-05-15T09:26:54Z</time>
      </trkpt>
      <trkpt lat="43.89449" lon="6.80996">
        <ele>1094.5</ele>
        <time>2016-05-15T09:27:02Z</time>
      </trkpt>
      <trkpt lat="43.89458" lon="6.80999">
        <ele>1095.3</ele>
        <time>2016-05-15T09:27:10Z</time>
      </trkpt>
      <trkpt lat="43.89467" lon="6.80999">
        <ele>1096</ele>
        <time>2016-05-15T09:27:17Z</time>
      </trkpt>
      <trkpt lat="43.89476" lon="6.81001">
        <ele>1096.5</ele>
        <time>2016-05-15T09:27:23Z</time>
      </trkpt>
      <trkpt lat="43.89484" lon="6.81009">
        <ele>1097.1</ele>
        <time>2016-05-15T09:27:30Z</time>
      </trkpt>
      <trkpt lat="43.89491" lon="6.81017">
        <ele>1098</ele>
        <time>2016-05-15T09:27:37Z</time>
      </trkpt>
      <trkpt lat="43.89498" lon="6.81028">
        <ele>1099</ele>
        <time>2016-05-15T09:27:45Z</time>
      </trkpt>
      <trkpt lat="43.89505" lon="6.81037">
        <ele>1099.8</ele>
        <time>2016-05-15T09:27:52Z</time>
      </trkpt>
      <trkpt lat="43.89511" lon="6.81048">
        <ele>1100.5</ele>
        <time>2016-05-15T09:27:59Z</time>
      </trkpt>
      <trkpt lat="43.89518" lon="6.81058">
        <ele>1101.1</ele>
        <time>2016-05-15T09:28:05Z</time>
      </trkpt>
      <trkpt lat="43.89525" lon="6.81067">
        <ele>1101.6</ele>
        <time>2016-05-15T09:28:13Z</time>
      </trkpt>
      <trkpt lat="43.89532" lon="6.81075">
        <ele>1102.1</ele>
        <time>2016-05-15T09:28:19Z</time>
      </trkpt>
      <trkpt lat="43.8954" lon="6.81078">
        <ele>1103</ele>
        <time>2016-05-15T09:28:28Z</time>
      </trkpt>
      <trkpt lat="43.89537" lon="6.81066">
        <ele>1104.5</ele>
        <time>2016-05-15T09:28:45Z</time>
      </trkpt>
      <trkpt lat="43.89534" lon="6.81054">
        <ele>1105.5</ele>
        <time>2016-05-15T09:28:55Z</time>
      </trkpt>
      <trkpt lat="43.89531" lon="6.81042">
        <ele>1106.8</ele>
        <time>2016-05-15T09:29:06Z</time>
      </trkpt>
      <trkpt lat="43.89529" lon="6.8103">
        <ele>1107.7</ele>
        <time>2016-05-15T09:29:14Z</time>
      </trkpt>
      <trkpt lat="43.89525" lon="6.81018">
        <ele>1110.8</ele>
        <time>2016-05-15T09:30:36Z</time>
      </trkpt>
      <trkpt lat="43.89523" lon="6.81006">
        <ele>1110.8</ele>
        <time>2016-05-15T09:30:44Z</time>
      </trkpt>
      <trkpt lat="43.89524" lon="6.80992">
        <ele>1111</ele>
        <time>2016-05-15T09:30:54Z</time>
      </trkpt>
      <trkpt lat="43.89522" lon="6.80979">
        <ele>1111.8</ele>
        <time>2016-05-15T09:31:04Z</time>
      </trkpt>
      <trkpt lat="43.8952" lon="6.80967">
        <ele>1112.9</ele>
        <time>2016-05-15T09:31:14Z</time>
      </trkpt>
      <trkpt lat="43.89517" lon="6.80955">
        <ele>1114.1</ele>
        <time>2016-05-15T09:31:25Z</time>
      </trkpt>
      <trkpt lat="43.89516" lon="6.80943">
        <ele>1114.8</ele>
        <time>2016-05-15T09:31:34Z</time>
      </trkpt>
      <trkpt lat="43.89514" lon="6.8093">
        <ele>1115.5</ele>
        <time>2016-05-15T09:31:42Z</time>
      </trkpt>
      <trkpt lat="43.89513" lon="6.80917">
        <ele>1116.2</ele>
        <time>2016-05-15T09:31:50Z</time>
      </trkpt>
      <trkpt lat="43.8951" lon="6.80905">
        <ele>1117.2</ele>
        <time>2016-05-15T09:31:59Z</time>
      </trkpt>
      <trkpt lat="43.89507" lon="6.80893">
        <ele>1118.7</ele>
        <time>2016-05-15T09:32:09Z</time>
      </trkpt>
      <trkpt lat="43.89504" lon="6.80881">
        <ele>1120</ele>
        <time>2016-05-15T09:32:18Z</time>
      </trkpt>
      <trkpt lat="43.895" lon="6.80868">
        <ele>1121.6</ele>
        <time>2016-05-15T09:32:27Z</time>
      </trkpt>
      <trkpt lat="43.89498" lon="6.80856">
        <ele>1123.2</ele>
        <time>2016-05-15T09:32:36Z</time>
      </trkpt>
      <trkpt lat="43.89494" lon="6.80844">
        <ele>1124.8</ele>
        <time>2016-05-15T09:32:46Z</time>
      </trkpt>
      <trkpt lat="43.8949" lon="6.80832">
        <ele>1126.1</ele>
        <time>2016-05-15T09:32:56Z</time>
      </trkpt>
      <trkpt lat="43.89486" lon="6.80821">
        <ele>1127</ele>
        <time>2016-05-15T09:33:05Z</time>
      </trkpt>
      <trkpt lat="43.89481" lon="6.80809">
        <ele>1128.1</ele>
        <time>2016-05-15T09:33:14Z</time>
      </trkpt>
      <trkpt lat="43.89479" lon="6.80795">
        <ele>1129.3</ele>
        <time>2016-05-15T09:33:23Z</time>
      </trkpt>
      <trkpt lat="43.89475" lon="6.80784">
        <ele>1130.7</ele>
        <time>2016-05-15T09:33:33Z</time>
      </trkpt>
      <trkpt lat="43.89467" lon="6.80775">
        <ele>1131.9</ele>
        <time>2016-05-15T09:33:43Z</time>
      </trkpt>
      <trkpt lat="43.8946" lon="6.80764">
        <ele>1133</ele>
        <time>2016-05-15T09:33:53Z</time>
      </trkpt>
      <trkpt lat="43.89454" lon="6.80754">
        <ele>1134.1</ele>
        <time>2016-05-15T09:34:02Z</time>
      </trkpt>
      <trkpt lat="43.89447" lon="6.80744">
        <ele>1135</ele>
        <time>2016-05-15T09:34:10Z</time>
      </trkpt>
      <trkpt lat="43.89441" lon="6.80734">
        <ele>1136.4</ele>
        <time>2016-05-15T09:34:31Z</time>
      </trkpt>
      <trkpt lat="43.89437" lon="6.80722">
        <ele>1137</ele>
        <time>2016-05-15T09:34:42Z</time>
      </trkpt>
      <trkpt lat="43.89434" lon="6.8071">
        <ele>1137.6</ele>
        <time>2016-05-15T09:34:55Z</time>
      </trkpt>
      <trkpt lat="43.89429" lon="6.80698">
        <ele>1138.2</ele>
        <time>2016-05-15T09:35:06Z</time>
      </trkpt>
      <trkpt lat="43.89422" lon="6.80689">
        <ele>1139.6</ele>
        <time>2016-05-15T09:35:25Z</time>
      </trkpt>
      <trkpt lat="43.89415" lon="6.8068">
        <ele>1140.8</ele>
        <time>2016-05-15T09:35:41Z</time>
      </trkpt>
      <trkpt lat="43.89408" lon="6.80672">
        <ele>1141.5</ele>
        <time>2016-05-15T09:35:49Z</time>
      </trkpt>
      <trkpt lat="43.894" lon="6.80664">
        <ele>1142.3</ele>
        <time>2016-05-15T09:35:57Z</time>
      </trkpt>
      <trkpt lat="43.89392" lon="6.80657">
        <ele>1143.3</ele>
        <time>2016-05-15T09:36:07Z</time>
      </trkpt>
      <trkpt lat="43.89384" lon="6.8065">
        <ele>1144.1</ele>
        <time>2016-05-15T09:36:16Z</time>
      </trkpt>
      <trkpt lat="43.89375" lon="6.80644">
        <ele>1144.8</ele>
        <time>2016-05-15T09:36:24Z</time>
      </trkpt>
      <trkpt lat="43.89367" lon="6.80639">
        <ele>1145.5</ele>
        <time>2016-05-15T09:36:33Z</time>
      </trkpt>
      <trkpt lat="43.89358" lon="6.80634">
        <ele>1146.4</ele>
        <time>2016-05-15T09:36:42Z</time>
      </trkpt>
      <trkpt lat="43.89349" lon="6.80629">
        <ele>1147.2</ele>
        <time>2016-05-15T09:36:50Z</time>
      </trkpt>
      <trkpt lat="43.89341" lon="6.80622">
        <ele>1147.7</ele>
        <time>2016-05-15T09:36:57Z</time>
      </trkpt>
      <trkpt lat="43.89332" lon="6.80617">
        <ele>1148.2</ele>
        <time>2016-05-15T09:37:04Z</time>
      </trkpt>
      <trkpt lat="43.89323" lon="6.80612">
        <ele>1148.6</ele>
        <time>2016-05-15T09:37:12Z</time>
      </trkpt>
      <trkpt lat="43.89315" lon="6.80607">
        <ele>1149.1</ele>
        <time>2016-05-15T09:37:20Z</time>
      </trkpt>
      <trkpt lat="43.89306" lon="6.80604">
        <ele>1149.7</ele>
        <time>2016-05-15T09:37:27Z</time>
      </trkpt>
      <trkpt lat="43.89297" lon="6.806">
        <ele>1150.3</ele>
        <time>2016-05-15T09:37:34Z</time>
      </trkpt>
      <trkpt lat="43.89288" lon="6.80595">
        <ele>1150.6</ele>
        <time>2016-05-15T09:37:41Z</time>
      </trkpt>
      <trkpt lat="43.89279" lon="6.80591">
        <ele>1151</ele>
        <time>2016-05-15T09:37:47Z</time>
      </trkpt>
      <trkpt lat="43.8927" lon="6.80585">
        <ele>1151.5</ele>
        <time>2016-05-15T09:37:54Z</time>
      </trkpt>
      <trkpt lat="43.89262" lon="6.80581">
        <ele>1152</ele>
        <time>2016-05-15T09:38:00Z</time>
      </trkpt>
      <trkpt lat="43.89252" lon="6.80576">
        <ele>1152.4</ele>
        <time>2016-05-15T09:38:07Z</time>
      </trkpt>
      <trkpt lat="43.89242" lon="6.80571">
        <ele>1152.6</ele>
        <time>2016-05-15T09:38:14Z</time>
      </trkpt>
      <trkpt lat="43.89233" lon="6.8057">
        <ele>1153</ele>
        <time>2016-05-15T09:38:45Z</time>
      </trkpt>
      <trkpt lat="43.89224" lon="6.80566">
        <ele>1152.6</ele>
        <time>2016-05-15T09:42:14Z</time>
      </trkpt>
      <trkpt lat="43.89216" lon="6.8056">
        <ele>1152.6</ele>
        <time>2016-05-15T09:42:22Z</time>
      </trkpt>
      <trkpt lat="43.89207" lon="6.80555">
        <ele>1152.8</ele>
        <time>2016-05-15T09:42:33Z</time>
      </trkpt>
      <trkpt lat="43.89199" lon="6.80549">
        <ele>1153.4</ele>
        <time>2016-05-15T09:42:55Z</time>
      </trkpt>
      <trkpt lat="43.89189" lon="6.80547">
        <ele>1153.7</ele>
        <time>2016-05-15T09:43:04Z</time>
      </trkpt>
      <trkpt lat="43.89181" lon="6.80542">
        <ele>1154.1</ele>
        <time>2016-05-15T09:43:11Z</time>
      </trkpt>
      <trkpt lat="43.89172" lon="6.80536">
        <ele>1155.4</ele>
        <time>2016-05-15T09:43:38Z</time>
      </trkpt>
      <trkpt lat="43.89163" lon="6.8053">
        <ele>1156</ele>
        <time>2016-05-15T09:43:48Z</time>
      </trkpt>
      <trkpt lat="43.89155" lon="6.80524">
        <ele>1156.6</ele>
        <time>2016-05-15T09:43:57Z</time>
      </trkpt>
      <trkpt lat="43.89146" lon="6.80519">
        <ele>1157.7</ele>
        <time>2016-05-15T09:44:21Z</time>
      </trkpt>
      <trkpt lat="43.89138" lon="6.80514">
        <ele>1158.5</ele>
        <time>2016-05-15T09:44:43Z</time>
      </trkpt>
      <trkpt lat="43.89132" lon="6.80505">
        <ele>1159.6</ele>
        <time>2016-05-15T09:46:46Z</time>
      </trkpt>
      <trkpt lat="43.89123" lon="6.80498">
        <ele>1160</ele>
        <time>2016-05-15T09:46:54Z</time>
      </trkpt>
      <trkpt lat="43.89116" lon="6.80489">
        <ele>1160.4</ele>
        <time>2016-05-15T09:47:02Z</time>
      </trkpt>
      <trkpt lat="43.89109" lon="6.8048">
        <ele>1161</ele>
        <time>2016-05-15T09:47:10Z</time>
      </trkpt>
      <trkpt lat="43.89104" lon="6.80468">
        <ele>1161.9</ele>
        <time>2016-05-15T09:47:19Z</time>
      </trkpt>
      <trkpt lat="43.89098" lon="6.80458">
        <ele>1163.1</ele>
        <time>2016-05-15T09:47:28Z</time>
      </trkpt>
      <trkpt lat="43.89092" lon="6.80447">
        <ele>1164.3</ele>
        <time>2016-05-15T09:47:36Z</time>
      </trkpt>
      <trkpt lat="43.89087" lon="6.80436">
        <ele>1165.2</ele>
        <time>2016-05-15T09:47:44Z</time>
      </trkpt>
      <trkpt lat="43.89082" lon="6.80425">
        <ele>1166.5</ele>
        <time>2016-05-15T09:47:52Z</time>
      </trkpt>
      <trkpt lat="43.89077" lon="6.80414">
        <ele>1167.6</ele>
        <time>2016-05-15T09:48:00Z</time>
      </trkpt>
      <trkpt lat="43.89071" lon="6.80405">
        <ele>1169.1</ele>
        <time>2016-05-15T09:48:14Z</time>
      </trkpt>
      <trkpt lat="43.89062" lon="6.80398">
        <ele>1171</ele>
        <time>2016-05-15T09:51:07Z</time>
      </trkpt>
      <trkpt lat="43.89056" lon="6.80388">
        <ele>1171.2</ele>
        <time>2016-05-15T09:51:17Z</time>
      </trkpt>
      <trkpt lat="43.8905" lon="6.80378">
        <ele>1172.2</ele>
        <time>2016-05-15T09:51:28Z</time>
      </trkpt>
      <trkpt lat="43.89043" lon="6.80371">
        <ele>1173.5</ele>
        <time>2016-05-15T09:51:41Z</time>
      </trkpt>
      <trkpt lat="43.89035" lon="6.80361">
        <ele>1175.1</ele>
        <time>2016-05-15T09:51:53Z</time>
      </trkpt>
      <trkpt lat="43.89028" lon="6.80352">
        <ele>1175.8</ele>
        <time>2016-05-15T09:52:01Z</time>
      </trkpt>
      <trkpt lat="43.89021" lon="6.80343">
        <ele>1176.9</ele>
        <time>2016-05-15T09:52:13Z</time>
      </trkpt>
      <trkpt lat="43.89015" lon="6.80333">
        <ele>1177.6</ele>
        <time>2016-05-15T09:52:21Z</time>
      </trkpt>
      <trkpt lat="43.89009" lon="6.80323">
        <ele>1178</ele>
        <time>2016-05-15T09:52:27Z</time>
      </trkpt>
      <trkpt lat="43.89001" lon="6.80312">
        <ele>1178.4</ele>
        <time>2016-05-15T09:52:35Z</time>
      </trkpt>
      <trkpt lat="43.88994" lon="6.803">
        <ele>1178.5</ele>
        <time>2016-05-15T09:52:41Z</time>
      </trkpt>
      <trkpt lat="43.88986" lon="6.80292">
        <ele>1178.6</ele>
        <time>2016-05-15T09:52:47Z</time>
      </trkpt>
      <trkpt lat="43.88977" lon="6.80285">
        <ele>1178.7</ele>
        <time>2016-05-15T09:52:55Z</time>
      </trkpt>
      <trkpt lat="43.88967" lon="6.8028">
        <ele>1179</ele>
        <time>2016-05-15T09:53:03Z</time>
      </trkpt>
      <trkpt lat="43.88959" lon="6.80274">
        <ele>1179.4</ele>
        <time>2016-05-15T09:53:08Z</time>
      </trkpt>
      <trkpt lat="43.88952" lon="6.80266">
        <ele>1180</ele>
        <time>2016-05-15T09:53:15Z</time>
      </trkpt>
      <trkpt lat="43.88945" lon="6.80257">
        <ele>1180.4</ele>
        <time>2016-05-15T09:53:21Z</time>
      </trkpt>
      <trkpt lat="43.88941" lon="6.80244">
        <ele>1181.4</ele>
        <time>2016-05-15T09:53:29Z</time>
      </trkpt>
      <trkpt lat="43.88934" lon="6.80233">
        <ele>1182.9</ele>
        <time>2016-05-15T09:53:37Z</time>
      </trkpt>
      <trkpt lat="43.88929" lon="6.80222">
        <ele>1184.4</ele>
        <time>2016-05-15T09:53:45Z</time>
      </trkpt>
      <trkpt lat="43.88925" lon="6.80211">
        <ele>1185.7</ele>
        <time>2016-05-15T09:53:54Z</time>
      </trkpt>
      <trkpt lat="43.88921" lon="6.802">
        <ele>1186.8</ele>
        <time>2016-05-15T09:54:01Z</time>
      </trkpt>
      <trkpt lat="43.88917" lon="6.80186">
        <ele>1188</ele>
        <time>2016-05-15T09:54:08Z</time>
      </trkpt>
      <trkpt lat="43.88912" lon="6.80174">
        <ele>1189.4</ele>
        <time>2016-05-15T09:54:18Z</time>
      </trkpt>
      <trkpt lat="43.88906" lon="6.80164">
        <ele>1190.2</ele>
        <time>2016-05-15T09:54:25Z</time>
      </trkpt>
      <trkpt lat="43.88913" lon="6.80155">
        <ele>1191.2</ele>
        <time>2016-05-15T09:54:35Z</time>
      </trkpt>
      <trkpt lat="43.88918" lon="6.80144">
        <ele>1192.3</ele>
        <time>2016-05-15T09:54:44Z</time>
      </trkpt>
      <trkpt lat="43.88917" lon="6.80131">
        <ele>1193.3</ele>
        <time>2016-05-15T09:54:53Z</time>
      </trkpt>
      <trkpt lat="43.88914" lon="6.80118">
        <ele>1194.3</ele>
        <time>2016-05-15T09:55:02Z</time>
      </trkpt>
      <trkpt lat="43.88912" lon="6.80104">
        <ele>1195.2</ele>
        <time>2016-05-15T09:55:10Z</time>
      </trkpt>
      <trkpt lat="43.88911" lon="6.80092">
        <ele>1195.9</ele>
        <time>2016-05-15T09:55:17Z</time>
      </trkpt>
      <trkpt lat="43.88909" lon="6.80078">
        <ele>1196.7</ele>
        <time>2016-05-15T09:55:24Z</time>
      </trkpt>
      <trkpt lat="43.88908" lon="6.80064">
        <ele>1197.3</ele>
        <time>2016-05-15T09:55:31Z</time>
      </trkpt>
      <trkpt lat="43.88905" lon="6.80051">
        <ele>1197.9</ele>
        <time>2016-05-15T09:55:38Z</time>
      </trkpt>
      <trkpt lat="43.88902" lon="6.80038">
        <ele>1198.6</ele>
        <time>2016-05-15T09:55:46Z</time>
      </trkpt>
      <trkpt lat="43.88898" lon="6.80025">
        <ele>1199.2</ele>
        <time>2016-05-15T09:55:53Z</time>
      </trkpt>
      <trkpt lat="43.88894" lon="6.80013">
        <ele>1199.9</ele>
        <time>2016-05-15T09:56:00Z</time>
      </trkpt>
      <trkpt lat="43.88889" lon="6.80002">
        <ele>1200.7</ele>
        <time>2016-05-15T09:56:07Z</time>
      </trkpt>
      <trkpt lat="43.88885" lon="6.79989">
        <ele>1201.7</ele>
        <time>2016-05-15T09:56:15Z</time>
      </trkpt>
      <trkpt lat="43.8888" lon="6.79977">
        <ele>1202.9</ele>
        <time>2016-05-15T09:56:23Z</time>
      </trkpt>
      <trkpt lat="43.88875" lon="6.79965">
        <ele>1204.1</ele>
        <time>2016-05-15T09:56:31Z</time>
      </trkpt>
      <trkpt lat="43.88871" lon="6.79952">
        <ele>1205.3</ele>
        <time>2016-05-15T09:56:39Z</time>
      </trkpt>
      <trkpt lat="43.88868" lon="6.79939">
        <ele>1206.6</ele>
        <time>2016-05-15T09:56:47Z</time>
      </trkpt>
      <trkpt lat="43.88865" lon="6.79927">
        <ele>1207.9</ele>
        <time>2016-05-15T09:56:55Z</time>
      </trkpt>
      <trkpt lat="43.88862" lon="6.79914">
        <ele>1209.3</ele>
        <time>2016-05-15T09:57:04Z</time>
      </trkpt>
      <trkpt lat="43.88859" lon="6.79902">
        <ele>1210.7</ele>
        <time>2016-05-15T09:57:13Z</time>
      </trkpt>
      <trkpt lat="43.88856" lon="6.79889">
        <ele>1212</ele>
        <time>2016-05-15T09:57:22Z</time>
      </trkpt>
      <trkpt lat="43.88854" lon="6.79876">
        <ele>1213.5</ele>
        <time>2016-05-15T09:57:31Z</time>
      </trkpt>
      <trkpt lat="43.88853" lon="6.79863">
        <ele>1215</ele>
        <time>2016-05-15T09:57:40Z</time>
      </trkpt>
      <trkpt lat="43.88856" lon="6.79851">
        <ele>1216.4</ele>
        <time>2016-05-15T09:57:49Z</time>
      </trkpt>
      <trkpt lat="43.88862" lon="6.79841">
        <ele>1218.3</ele>
        <time>2016-05-15T09:57:59Z</time>
      </trkpt>
      <trkpt lat="43.88853" lon="6.79843">
        <ele>1222.2</ele>
        <time>2016-05-15T09:58:32Z</time>
      </trkpt>
      <trkpt lat="43.88846" lon="6.79851">
        <ele>1221.7</ele>
        <time>2016-05-15T09:58:49Z</time>
      </trkpt>
      <trkpt lat="43.88838" lon="6.79857">
        <ele>1220</ele>
        <time>2016-05-15T09:58:58Z</time>
      </trkpt>
      <trkpt lat="43.8883" lon="6.79851">
        <ele>1217.2</ele>
        <time>2016-05-15T09:59:10Z</time>
      </trkpt>
      <trkpt lat="43.88824" lon="6.7984">
        <ele>1213.8</ele>
        <time>2016-05-15T10:00:05Z</time>
      </trkpt>
      <trkpt lat="43.8882" lon="6.79828">
        <ele>1213.7</ele>
        <time>2016-05-15T10:00:17Z</time>
      </trkpt>
      <trkpt lat="43.88815" lon="6.79817">
        <ele>1213.8</ele>
        <time>2016-05-15T10:00:27Z</time>
      </trkpt>
      <trkpt lat="43.8881" lon="6.79806">
        <ele>1214.5</ele>
        <time>2016-05-15T10:00:49Z</time>
      </trkpt>
      <trkpt lat="43.88805" lon="6.79796">
        <ele>1214.7</ele>
        <time>2016-05-15T10:00:58Z</time>
      </trkpt>
      <trkpt lat="43.88798" lon="6.79787">
        <ele>1214.9</ele>
        <time>2016-05-15T10:01:10Z</time>
      </trkpt>
      <trkpt lat="43.88789" lon="6.7978">
        <ele>1214.6</ele>
        <time>2016-05-15T10:01:15Z</time>
      </trkpt>
      <trkpt lat="43.88783" lon="6.7977">
        <ele>1214.1</ele>
        <time>2016-05-15T10:01:20Z</time>
      </trkpt>
      <trkpt lat="43.88778" lon="6.79758">
        <ele>1212.6</ele>
        <time>2016-05-15T10:01:38Z</time>
      </trkpt>
      <trkpt lat="43.88777" lon="6.79745">
        <ele>1212.2</ele>
        <time>2016-05-15T10:01:48Z</time>
      </trkpt>
      <trkpt lat="43.88774" lon="6.79732">
        <ele>1212</ele>
        <time>2016-05-15T10:01:57Z</time>
      </trkpt>
      <trkpt lat="43.88774" lon="6.79719">
        <ele>1212.3</ele>
        <time>2016-05-15T10:02:08Z</time>
      </trkpt>
      <trkpt lat="43.88774" lon="6.79707">
        <ele>1213.9</ele>
        <time>2016-05-15T10:02:21Z</time>
      </trkpt>
      <trkpt lat="43.88771" lon="6.79694">
        <ele>1216</ele>
        <time>2016-05-15T10:05:14Z</time>
      </trkpt>
      <trkpt lat="43.8877" lon="6.79681">
        <ele>1216.2</ele>
        <time>2016-05-15T10:05:35Z</time>
      </trkpt>
      <trkpt lat="43.88767" lon="6.79668">
        <ele>1217.2</ele>
        <time>2016-05-15T10:05:48Z</time>
      </trkpt>
      <trkpt lat="43.88766" lon="6.79655">
        <ele>1218.6</ele>
        <time>2016-05-15T10:06:01Z</time>
      </trkpt>
      <trkpt lat="43.88764" lon="6.79642">
        <ele>1220</ele>
        <time>2016-05-15T10:06:13Z</time>
      </trkpt>
      <trkpt lat="43.88772" lon="6.79638">
        <ele>1222.2</ele>
        <time>2016-05-15T10:06:46Z</time>
      </trkpt>
      <trkpt lat="43.88779" lon="6.79628">
        <ele>1228</ele>
        <time>2016-05-15T10:07:57Z</time>
      </trkpt>
      <trkpt lat="43.88775" lon="6.79614">
        <ele>1228</ele>
        <time>2016-05-15T10:08:01Z</time>
      </trkpt>
      <trkpt lat="43.88773" lon="6.79601">
        <ele>1228</ele>
        <time>2016-05-15T10:08:04Z</time>
      </trkpt>
      <trkpt lat="43.88769" lon="6.79585">
        <ele>1227.9</ele>
        <time>2016-05-15T10:08:07Z</time>
      </trkpt>
      <trkpt lat="43.88768" lon="6.79569">
        <ele>1227.6</ele>
        <time>2016-05-15T10:08:09Z</time>
      </trkpt>
      <trkpt lat="43.88768" lon="6.79553">
        <ele>1227.3</ele>
        <time>2016-05-15T10:08:11Z</time>
      </trkpt>
      <trkpt lat="43.8877" lon="6.79537">
        <ele>1226.9</ele>
        <time>2016-05-15T10:08:14Z</time>
      </trkpt>
      <trkpt lat="43.8877" lon="6.79523">
        <ele>1226.5</ele>
        <time>2016-05-15T10:08:18Z</time>
      </trkpt>
      <trkpt lat="43.88771" lon="6.79511">
        <ele>1225.6</ele>
        <time>2016-05-15T10:08:31Z</time>
      </trkpt>
      <trkpt lat="43.88774" lon="6.79499">
        <ele>1225.4</ele>
        <time>2016-05-15T10:08:35Z</time>
      </trkpt>
      <trkpt lat="43.88777" lon="6.79485">
        <ele>1225.2</ele>
        <time>2016-05-15T10:08:37Z</time>
      </trkpt>
      <trkpt lat="43.8878" lon="6.79469">
        <ele>1224.8</ele>
        <time>2016-05-15T10:08:39Z</time>
      </trkpt>
      <trkpt lat="43.88785" lon="6.79454">
        <ele>1224.3</ele>
        <time>2016-05-15T10:08:41Z</time>
      </trkpt>
      <trkpt lat="43.88789" lon="6.79441">
        <ele>1223.9</ele>
        <time>2016-05-15T10:08:43Z</time>
      </trkpt>
      <trkpt lat="43.88793" lon="6.79427">
        <ele>1223.2</ele>
        <time>2016-05-15T10:08:46Z</time>
      </trkpt>
      <trkpt lat="43.88801" lon="6.79419">
        <ele>1222.6</ele>
        <time>2016-05-15T10:08:49Z</time>
      </trkpt>
      <trkpt lat="43.88806" lon="6.79403">
        <ele>1221.9</ele>
        <time>2016-05-15T10:08:52Z</time>
      </trkpt>
      <trkpt lat="43.88809" lon="6.7939">
        <ele>1221.3</ele>
        <time>2016-05-15T10:08:54Z</time>
      </trkpt>
      <trkpt lat="43.8881" lon="6.79377">
        <ele>1220.6</ele>
        <time>2016-05-15T10:08:56Z</time>
      </trkpt>
      <trkpt lat="43.88815" lon="6.79365">
        <ele>1219.7</ele>
        <time>2016-05-15T10:08:59Z</time>
      </trkpt>
      <trkpt lat="43.88816" lon="6.79352">
        <ele>1218.8</ele>
        <time>2016-05-15T10:09:03Z</time>
      </trkpt>
      <trkpt lat="43.88817" lon="6.79338">
        <ele>1218</ele>
        <time>2016-05-15T10:09:07Z</time>
      </trkpt>
      <trkpt lat="43.88819" lon="6.79324">
        <ele>1217.5</ele>
        <time>2016-05-15T10:09:11Z</time>
      </trkpt>
      <trkpt lat="43.88819" lon="6.79311">
        <ele>1217.3</ele>
        <time>2016-05-15T10:09:15Z</time>
      </trkpt>
      <trkpt lat="43.88816" lon="6.79296">
        <ele>1217.5</ele>
        <time>2016-05-15T10:09:20Z</time>
      </trkpt>
      <trkpt lat="43.88814" lon="6.79284">
        <ele>1217.6</ele>
        <time>2016-05-15T10:09:23Z</time>
      </trkpt>
      <trkpt lat="43.88813" lon="6.79269">
        <ele>1217.7</ele>
        <time>2016-05-15T10:09:27Z</time>
      </trkpt>
      <trkpt lat="43.88809" lon="6.79255">
        <ele>1217.6</ele>
        <time>2016-05-15T10:09:30Z</time>
      </trkpt>
      <trkpt lat="43.88804" lon="6.79244">
        <ele>1216.2</ele>
        <time>2016-05-15T10:09:43Z</time>
      </trkpt>
      <trkpt lat="43.8881" lon="6.79254">
        <ele>1214.3</ele>
        <time>2016-05-15T10:28:31Z</time>
      </trkpt>
      <trkpt lat="43.88803" lon="6.79245">
        <ele>1214.2</ele>
        <time>2016-05-15T10:39:36Z</time>
      </trkpt>
      <trkpt lat="43.88801" lon="6.79231">
        <ele>1214.5</ele>
        <time>2016-05-15T10:51:59Z</time>
      </trkpt>
      <trkpt lat="43.88796" lon="6.79219">
        <ele>1214.4</ele>
        <time>2016-05-15T10:52:02Z</time>
      </trkpt>
      <trkpt lat="43.8879" lon="6.79208">
        <ele>1214.3</ele>
        <time>2016-05-15T10:52:05Z</time>
      </trkpt>
      <trkpt lat="43.88783" lon="6.79196">
        <ele>1214.1</ele>
        <time>2016-05-15T10:52:09Z</time>
      </trkpt>
      <trkpt lat="43.88774" lon="6.79185">
        <ele>1214</ele>
        <time>2016-05-15T10:52:13Z</time>
      </trkpt>
      <trkpt lat="43.88767" lon="6.79176">
        <ele>1214</ele>
        <time>2016-05-15T10:52:16Z</time>
      </trkpt>
      <trkpt lat="43.88762" lon="6.79164">
        <ele>1214</ele>
        <time>2016-05-15T10:52:19Z</time>
      </trkpt>
      <trkpt lat="43.88756" lon="6.7915">
        <ele>1213.5</ele>
        <time>2016-05-15T10:52:23Z</time>
      </trkpt>
      <trkpt lat="43.88747" lon="6.7914">
        <ele>1213</ele>
        <time>2016-05-15T10:52:27Z</time>
      </trkpt>
      <trkpt lat="43.88739" lon="6.79129">
        <ele>1212.7</ele>
        <time>2016-05-15T10:52:30Z</time>
      </trkpt>
      <trkpt lat="43.88729" lon="6.79122">
        <ele>1212.4</ele>
        <time>2016-05-15T10:52:34Z</time>
      </trkpt>
      <trkpt lat="43.88721" lon="6.79112">
        <ele>1212.4</ele>
        <time>2016-05-15T10:52:37Z</time>
      </trkpt>
      <trkpt lat="43.88711" lon="6.79106">
        <ele>1212.4</ele>
        <time>2016-05-15T10:52:40Z</time>
      </trkpt>
      <trkpt lat="43.88703" lon="6.79097">
        <ele>1212.5</ele>
        <time>2016-05-15T10:52:43Z</time>
      </trkpt>
      <trkpt lat="43.88694" lon="6.79089">
        <ele>1212.7</ele>
        <time>2016-05-15T10:52:46Z</time>
      </trkpt>
      <trkpt lat="43.88687" lon="6.7908">
        <ele>1213</ele>
        <time>2016-05-15T10:52:50Z</time>
      </trkpt>
      <trkpt lat="43.88679" lon="6.79067">
        <ele>1213.4</ele>
        <time>2016-05-15T10:52:54Z</time>
      </trkpt>
      <trkpt lat="43.88671" lon="6.79057">
        <ele>1213.6</ele>
        <time>2016-05-15T10:52:57Z</time>
      </trkpt>
      <trkpt lat="43.88662" lon="6.79048">
        <ele>1213.9</ele>
        <time>2016-05-15T10:53:01Z</time>
      </trkpt>
      <trkpt lat="43.88655" lon="6.79038">
        <ele>1214.3</ele>
        <time>2016-05-15T10:53:04Z</time>
      </trkpt>
      <trkpt lat="43.88647" lon="6.79028">
        <ele>1215</ele>
        <time>2016-05-15T10:53:09Z</time>
      </trkpt>
      <trkpt lat="43.88638" lon="6.79022">
        <ele>1215.8</ele>
        <time>2016-05-15T10:53:16Z</time>
      </trkpt>
      <trkpt lat="43.8863" lon="6.79013">
        <ele>1216.6</ele>
        <time>2016-05-15T10:53:24Z</time>
      </trkpt>
      <trkpt lat="43.88621" lon="6.79006">
        <ele>1217.2</ele>
        <time>2016-05-15T10:53:31Z</time>
      </trkpt>
      <trkpt lat="43.88614" lon="6.78999">
        <ele>1217.9</ele>
        <time>2016-05-15T10:53:37Z</time>
      </trkpt>
      <trkpt lat="43.88605" lon="6.78992">
        <ele>1218.6</ele>
        <time>2016-05-15T10:53:43Z</time>
      </trkpt>
      <trkpt lat="43.88596" lon="6.78986">
        <ele>1219.3</ele>
        <time>2016-05-15T10:53:49Z</time>
      </trkpt>
      <trkpt lat="43.88589" lon="6.78976">
        <ele>1220.3</ele>
        <time>2016-05-15T10:53:56Z</time>
      </trkpt>
      <trkpt lat="43.88583" lon="6.78967">
        <ele>1221.7</ele>
        <time>2016-05-15T10:54:04Z</time>
      </trkpt>
      <trkpt lat="43.8858" lon="6.78955">
        <ele>1224.2</ele>
        <time>2016-05-15T10:55:17Z</time>
      </trkpt>
      <trkpt lat="43.8857" lon="6.78948">
        <ele>1224.2</ele>
        <time>2016-05-15T10:55:20Z</time>
      </trkpt>
      <trkpt lat="43.88559" lon="6.7894">
        <ele>1223.9</ele>
        <time>2016-05-15T10:55:23Z</time>
      </trkpt>
      <trkpt lat="43.88551" lon="6.78932">
        <ele>1223.4</ele>
        <time>2016-05-15T10:55:25Z</time>
      </trkpt>
      <trkpt lat="43.88542" lon="6.78925">
        <ele>1222.9</ele>
        <time>2016-05-15T10:55:27Z</time>
      </trkpt>
      <trkpt lat="43.88535" lon="6.78912">
        <ele>1221.7</ele>
        <time>2016-05-15T10:55:30Z</time>
      </trkpt>
      <trkpt lat="43.88526" lon="6.78897">
        <ele>1220.6</ele>
        <time>2016-05-15T10:55:32Z</time>
      </trkpt>
      <trkpt lat="43.88527" lon="6.78884">
        <ele>1219.3</ele>
        <time>2016-05-15T10:55:34Z</time>
      </trkpt>
      <trkpt lat="43.8853" lon="6.78868">
        <ele>1217.7</ele>
        <time>2016-05-15T10:55:36Z</time>
      </trkpt>
      <trkpt lat="43.88531" lon="6.78853">
        <ele>1216.2</ele>
        <time>2016-05-15T10:55:38Z</time>
      </trkpt>
      <trkpt lat="43.88527" lon="6.78835">
        <ele>1214.8</ele>
        <time>2016-05-15T10:55:40Z</time>
      </trkpt>
      <trkpt lat="43.8852" lon="6.7882">
        <ele>1213.5</ele>
        <time>2016-05-15T10:55:42Z</time>
      </trkpt>
      <trkpt lat="43.88513" lon="6.78806">
        <ele>1212.3</ele>
        <time>2016-05-15T10:55:44Z</time>
      </trkpt>
      <trkpt lat="43.88505" lon="6.78794">
        <ele>1211</ele>
        <time>2016-05-15T10:55:47Z</time>
      </trkpt>
      <trkpt lat="43.88505" lon="6.78778">
        <ele>1209.7</ele>
        <time>2016-05-15T10:55:50Z</time>
      </trkpt>
      <trkpt lat="43.88507" lon="6.78765">
        <ele>1208.9</ele>
        <time>2016-05-15T10:55:52Z</time>
      </trkpt>
      <trkpt lat="43.8851" lon="6.7875">
        <ele>1208.2</ele>
        <time>2016-05-15T10:55:54Z</time>
      </trkpt>
      <trkpt lat="43.88513" lon="6.78735">
        <ele>1207.3</ele>
        <time>2016-05-15T10:55:56Z</time>
      </trkpt>
      <trkpt lat="43.88518" lon="6.78717">
        <ele>1206.3</ele>
        <time>2016-05-15T10:55:58Z</time>
      </trkpt>
      <trkpt lat="43.88516" lon="6.78701">
        <ele>1205.1</ele>
        <time>2016-05-15T10:56:00Z</time>
      </trkpt>
      <trkpt lat="43.88518" lon="6.78686">
        <ele>1202.3</ele>
        <time>2016-05-15T10:56:05Z</time>
      </trkpt>
      <trkpt lat="43.88524" lon="6.78676">
        <ele>1198.2</ele>
        <time>2016-05-15T10:56:18Z</time>
      </trkpt>
      <trkpt lat="43.88532" lon="6.78665">
        <ele>1197.2</ele>
        <time>2016-05-15T10:56:24Z</time>
      </trkpt>
      <trkpt lat="43.8854" lon="6.78658">
        <ele>1196.7</ele>
        <time>2016-05-15T10:56:28Z</time>
      </trkpt>
      <trkpt lat="43.88548" lon="6.78652">
        <ele>1196.4</ele>
        <time>2016-05-15T10:56:36Z</time>
      </trkpt>
      <trkpt lat="43.88555" lon="6.78642">
        <ele>1196.7</ele>
        <time>2016-05-15T10:56:45Z</time>
      </trkpt>
      <trkpt lat="43.88553" lon="6.78629">
        <ele>1197.5</ele>
        <time>2016-05-15T10:56:54Z</time>
      </trkpt>
      <trkpt lat="43.88551" lon="6.78616">
        <ele>1198.5</ele>
        <time>2016-05-15T10:57:06Z</time>
      </trkpt>
      <trkpt lat="43.88548" lon="6.78603">
        <ele>1198.8</ele>
        <time>2016-05-15T10:57:10Z</time>
      </trkpt>
      <trkpt lat="43.88543" lon="6.78589">
        <ele>1199</ele>
        <time>2016-05-15T10:57:13Z</time>
      </trkpt>
      <trkpt lat="43.88538" lon="6.78576">
        <ele>1199</ele>
        <time>2016-05-15T10:57:16Z</time>
      </trkpt>
      <trkpt lat="43.88531" lon="6.78561">
        <ele>1198.8</ele>
        <time>2016-05-15T10:57:19Z</time>
      </trkpt>
      <trkpt lat="43.88523" lon="6.78548">
        <ele>1198.6</ele>
        <time>2016-05-15T10:57:22Z</time>
      </trkpt>
      <trkpt lat="43.88515" lon="6.78533">
        <ele>1198.1</ele>
        <time>2016-05-15T10:57:25Z</time>
      </trkpt>
      <trkpt lat="43.8851" lon="6.78523">
        <ele>1197.8</ele>
        <time>2016-05-15T10:57:27Z</time>
      </trkpt>
      <trkpt lat="43.88502" lon="6.78507">
        <ele>1197.1</ele>
        <time>2016-05-15T10:57:30Z</time>
      </trkpt>
      <trkpt lat="43.88493" lon="6.78498">
        <ele>1196.5</ele>
        <time>2016-05-15T10:57:32Z</time>
      </trkpt>
      <trkpt lat="43.88484" lon="6.78492">
        <ele>1195.8</ele>
        <time>2016-05-15T10:57:35Z</time>
      </trkpt>
      <trkpt lat="43.88477" lon="6.78483">
        <ele>1195.2</ele>
        <time>2016-05-15T10:57:40Z</time>
      </trkpt>
      <trkpt lat="43.8847" lon="6.78475">
        <ele>1194.9</ele>
        <time>2016-05-15T10:57:44Z</time>
      </trkpt>
      <trkpt lat="43.88463" lon="6.78467">
        <ele>1194.8</ele>
        <time>2016-05-15T10:57:47Z</time>
      </trkpt>
      <trkpt lat="43.88457" lon="6.78456">
        <ele>1194.7</ele>
        <time>2016-05-15T10:57:50Z</time>
      </trkpt>
      <trkpt lat="43.88451" lon="6.78442">
        <ele>1194.5</ele>
        <time>2016-05-15T10:57:54Z</time>
      </trkpt>
      <trkpt lat="43.88447" lon="6.7843">
        <ele>1194.5</ele>
        <time>2016-05-15T10:57:56Z</time>
      </trkpt>
      <trkpt lat="43.88443" lon="6.78415">
        <ele>1194.4</ele>
        <time>2016-05-15T10:57:59Z</time>
      </trkpt>
      <trkpt lat="43.88438" lon="6.78404">
        <ele>1194.3</ele>
        <time>2016-05-15T10:58:10Z</time>
      </trkpt>
      <trkpt lat="43.88432" lon="6.78395">
        <ele>1194.3</ele>
        <time>2016-05-15T10:58:16Z</time>
      </trkpt>
      <trkpt lat="43.88424" lon="6.78383">
        <ele>1194.5</ele>
        <time>2016-05-15T10:58:21Z</time>
      </trkpt>
      <trkpt lat="43.88418" lon="6.78372">
        <ele>1194.6</ele>
        <time>2016-05-15T10:58:25Z</time>
      </trkpt>
      <trkpt lat="43.88411" lon="6.7836">
        <ele>1195</ele>
        <time>2016-05-15T10:58:30Z</time>
      </trkpt>
      <trkpt lat="43.88406" lon="6.78347">
        <ele>1195.5</ele>
        <time>2016-05-15T10:58:34Z</time>
      </trkpt>
      <trkpt lat="43.88401" lon="6.78333">
        <ele>1195.7</ele>
        <time>2016-05-15T10:58:37Z</time>
      </trkpt>
      <trkpt lat="43.88394" lon="6.78321">
        <ele>1195.9</ele>
        <time>2016-05-15T10:58:41Z</time>
      </trkpt>
      <trkpt lat="43.88392" lon="6.78308">
        <ele>1196</ele>
        <time>2016-05-15T10:58:44Z</time>
      </trkpt>
      <trkpt lat="43.88387" lon="6.78292">
        <ele>1195.8</ele>
        <time>2016-05-15T10:58:47Z</time>
      </trkpt>
      <trkpt lat="43.88381" lon="6.78279">
        <ele>1195.7</ele>
        <time>2016-05-15T10:58:50Z</time>
      </trkpt>
      <trkpt lat="43.88378" lon="6.78266">
        <ele>1195.6</ele>
        <time>2016-05-15T10:58:53Z</time>
      </trkpt>
      <trkpt lat="43.88377" lon="6.78251">
        <ele>1195.5</ele>
        <time>2016-05-15T10:58:56Z</time>
      </trkpt>
      <trkpt lat="43.88371" lon="6.7824">
        <ele>1195.5</ele>
        <time>2016-05-15T10:59:01Z</time>
      </trkpt>
      <trkpt lat="43.88364" lon="6.7823">
        <ele>1195.5</ele>
        <time>2016-05-15T10:59:06Z</time>
      </trkpt>
      <trkpt lat="43.88356" lon="6.7822">
        <ele>1195.7</ele>
        <time>2016-05-15T10:59:11Z</time>
      </trkpt>
      <trkpt lat="43.88348" lon="6.78209">
        <ele>1195.9</ele>
        <time>2016-05-15T10:59:15Z</time>
      </trkpt>
      <trkpt lat="43.88341" lon="6.782">
        <ele>1196</ele>
        <time>2016-05-15T10:59:19Z</time>
      </trkpt>
      <trkpt lat="43.88334" lon="6.78189">
        <ele>1196.2</ele>
        <time>2016-05-15T10:59:23Z</time>
      </trkpt>
      <trkpt lat="43.88328" lon="6.78178">
        <ele>1196.4</ele>
        <time>2016-05-15T10:59:27Z</time>
      </trkpt>
      <trkpt lat="43.88322" lon="6.78166">
        <ele>1196.5</ele>
        <time>2016-05-15T10:59:31Z</time>
      </trkpt>
      <trkpt lat="43.88316" lon="6.78155">
        <ele>1196.7</ele>
        <time>2016-05-15T10:59:36Z</time>
      </trkpt>
      <trkpt lat="43.88306" lon="6.78148">
        <ele>1197</ele>
        <time>2016-05-15T11:01:19Z</time>
      </trkpt>
      <trkpt lat="43.88299" lon="6.7814">
        <ele>1197</ele>
        <time>2016-05-15T11:01:23Z</time>
      </trkpt>
      <trkpt lat="43.88287" lon="6.78137">
        <ele>1196.9</ele>
        <time>2016-05-15T11:01:26Z</time>
      </trkpt>
      <trkpt lat="43.88276" lon="6.78131">
        <ele>1196.7</ele>
        <time>2016-05-15T11:01:29Z</time>
      </trkpt>
      <trkpt lat="43.88265" lon="6.78124">
        <ele>1196.4</ele>
        <time>2016-05-15T11:01:33Z</time>
      </trkpt>
      <trkpt lat="43.88256" lon="6.78124">
        <ele>1196.2</ele>
        <time>2016-05-15T11:01:36Z</time>
      </trkpt>
      <trkpt lat="43.88246" lon="6.78129">
        <ele>1196</ele>
        <time>2016-05-15T11:01:39Z</time>
      </trkpt>
      <trkpt lat="43.88237" lon="6.78129">
        <ele>1195.9</ele>
        <time>2016-05-15T11:01:42Z</time>
      </trkpt>
      <trkpt lat="43.88226" lon="6.78127">
        <ele>1195.8</ele>
        <time>2016-05-15T11:01:46Z</time>
      </trkpt>
      <trkpt lat="43.88218" lon="6.78123">
        <ele>1195.7</ele>
        <time>2016-05-15T11:01:49Z</time>
      </trkpt>
      <trkpt lat="43.88204" lon="6.7812">
        <ele>1195.6</ele>
        <time>2016-05-15T11:01:52Z</time>
      </trkpt>
      <trkpt lat="43.88192" lon="6.78121">
        <ele>1195.4</ele>
        <time>2016-05-15T11:01:54Z</time>
      </trkpt>
      <trkpt lat="43.88179" lon="6.78123">
        <ele>1194.9</ele>
        <time>2016-05-15T11:01:56Z</time>
      </trkpt>
      <trkpt lat="43.88168" lon="6.78123">
        <ele>1194.5</ele>
        <time>2016-05-15T11:01:58Z</time>
      </trkpt>
      <trkpt lat="43.88158" lon="6.78123">
        <ele>1193.9</ele>
        <time>2016-05-15T11:02:00Z</time>
      </trkpt>
      <trkpt lat="43.88144" lon="6.78123">
        <ele>1192.7</ele>
        <time>2016-05-15T11:02:04Z</time>
      </trkpt>
      <trkpt lat="43.88134" lon="6.7812">
        <ele>1192.1</ele>
        <time>2016-05-15T11:02:06Z</time>
      </trkpt>
      <trkpt lat="43.88123" lon="6.78118">
        <ele>1191.2</ele>
        <time>2016-05-15T11:02:08Z</time>
      </trkpt>
      <trkpt lat="43.88109" lon="6.78117">
        <ele>1190.4</ele>
        <time>2016-05-15T11:02:10Z</time>
      </trkpt>
      <trkpt lat="43.88095" lon="6.78118">
        <ele>1189.5</ele>
        <time>2016-05-15T11:02:12Z</time>
      </trkpt>
      <trkpt lat="43.88081" lon="6.7812">
        <ele>1188.3</ele>
        <time>2016-05-15T11:02:14Z</time>
      </trkpt>
      <trkpt lat="43.88068" lon="6.78123">
        <ele>1187.2</ele>
        <time>2016-05-15T11:02:16Z</time>
      </trkpt>
      <trkpt lat="43.88055" lon="6.78125">
        <ele>1186.1</ele>
        <time>2016-05-15T11:02:18Z</time>
      </trkpt>
      <trkpt lat="43.88043" lon="6.78127">
        <ele>1184.8</ele>
        <time>2016-05-15T11:02:20Z</time>
      </trkpt>
      <trkpt lat="43.88032" lon="6.7813">
        <ele>1183.7</ele>
        <time>2016-05-15T11:02:22Z</time>
      </trkpt>
      <trkpt lat="43.88021" lon="6.78134">
        <ele>1182.8</ele>
        <time>2016-05-15T11:02:24Z</time>
      </trkpt>
      <trkpt lat="43.88011" lon="6.78139">
        <ele>1181.7</ele>
        <time>2016-05-15T11:02:26Z</time>
      </trkpt>
      <trkpt lat="43.88003" lon="6.78146">
        <ele>1180.7</ele>
        <time>2016-05-15T11:02:28Z</time>
      </trkpt>
      <trkpt lat="43.87994" lon="6.7815">
        <ele>1179.9</ele>
        <time>2016-05-15T11:02:30Z</time>
      </trkpt>
      <trkpt lat="43.87986" lon="6.78156">
        <ele>1179</ele>
        <time>2016-05-15T11:02:32Z</time>
      </trkpt>
      <trkpt lat="43.87977" lon="6.78167">
        <ele>1178.1</ele>
        <time>2016-05-15T11:02:35Z</time>
      </trkpt>
      <trkpt lat="43.87982" lon="6.78181">
        <ele>1177.3</ele>
        <time>2016-05-15T11:02:39Z</time>
      </trkpt>
      <trkpt lat="43.87988" lon="6.78195">
        <ele>1176.8</ele>
        <time>2016-05-15T11:02:43Z</time>
      </trkpt>
      <trkpt lat="43.87985" lon="6.7821">
        <ele>1174.2</ele>
        <time>2016-05-15T11:02:52Z</time>
      </trkpt>
      <trkpt lat="43.87985" lon="6.78226">
        <ele>1172.7</ele>
        <time>2016-05-15T11:02:55Z</time>
      </trkpt>
      <trkpt lat="43.87986" lon="6.78241">
        <ele>1170.9</ele>
        <time>2016-05-15T11:02:58Z</time>
      </trkpt>
      <trkpt lat="43.87982" lon="6.78256">
        <ele>1168.7</ele>
        <time>2016-05-15T11:03:01Z</time>
      </trkpt>
      <trkpt lat="43.87981" lon="6.78269">
        <ele>1167.2</ele>
        <time>2016-05-15T11:03:03Z</time>
      </trkpt>
      <trkpt lat="43.87985" lon="6.78285">
        <ele>1164.4</ele>
        <time>2016-05-15T11:03:06Z</time>
      </trkpt>
      <trkpt lat="43.87977" lon="6.78295">
        <ele>1158.8</ele>
        <time>2016-05-15T11:03:13Z</time>
      </trkpt>
      <trkpt lat="43.87975" lon="6.78311">
        <ele>1155.2</ele>
        <time>2016-05-15T11:03:18Z</time>
      </trkpt>
      <trkpt lat="43.87972" lon="6.78324">
        <ele>1152.8</ele>
        <time>2016-05-15T11:03:21Z</time>
      </trkpt>
      <trkpt lat="43.87971" lon="6.7834">
        <ele>1150.4</ele>
        <time>2016-05-15T11:03:24Z</time>
      </trkpt>
      <trkpt lat="43.87974" lon="6.78354">
        <ele>1148</ele>
        <time>2016-05-15T11:03:27Z</time>
      </trkpt>
      <trkpt lat="43.87986" lon="6.7836">
        <ele>1145.4</ele>
        <time>2016-05-15T11:03:30Z</time>
      </trkpt>
      <trkpt lat="43.87996" lon="6.78369">
        <ele>1143.1</ele>
        <time>2016-05-15T11:03:33Z</time>
      </trkpt>
      <trkpt lat="43.88005" lon="6.78373">
        <ele>1141.7</ele>
        <time>2016-05-15T11:03:35Z</time>
      </trkpt>
      <trkpt lat="43.88008" lon="6.78393">
        <ele>1138</ele>
        <time>2016-05-15T11:03:39Z</time>
      </trkpt>
      <trkpt lat="43.88006" lon="6.78406">
        <ele>1135.7</ele>
        <time>2016-05-15T11:03:44Z</time>
      </trkpt>
      <trkpt lat="43.87995" lon="6.78417">
        <ele>1133</ele>
        <time>2016-05-15T11:03:48Z</time>
      </trkpt>
      <trkpt lat="43.87982" lon="6.78422">
        <ele>1132</ele>
        <time>2016-05-15T11:03:51Z</time>
      </trkpt>
      <trkpt lat="43.87973" lon="6.78431">
        <ele>1130.6</ele>
        <time>2016-05-15T11:03:53Z</time>
      </trkpt>
      <trkpt lat="43.87965" lon="6.78443">
        <ele>1129.3</ele>
        <time>2016-05-15T11:03:55Z</time>
      </trkpt>
      <trkpt lat="43.87958" lon="6.78454">
        <ele>1128</ele>
        <time>2016-05-15T11:03:57Z</time>
      </trkpt>
      <trkpt lat="43.87952" lon="6.78464">
        <ele>1126</ele>
        <time>2016-05-15T11:04:00Z</time>
      </trkpt>
      <trkpt lat="43.87947" lon="6.78477">
        <ele>1123.9</ele>
        <time>2016-05-15T11:04:03Z</time>
      </trkpt>
      <trkpt lat="43.87943" lon="6.7849">
        <ele>1121.4</ele>
        <time>2016-05-15T11:04:07Z</time>
      </trkpt>
      <trkpt lat="43.87934" lon="6.78496">
        <ele>1119.7</ele>
        <time>2016-05-15T11:04:10Z</time>
      </trkpt>
      <trkpt lat="43.87923" lon="6.78502">
        <ele>1117.8</ele>
        <time>2016-05-15T11:04:13Z</time>
      </trkpt>
      <trkpt lat="43.87912" lon="6.78505">
        <ele>1115.8</ele>
        <time>2016-05-15T11:04:16Z</time>
      </trkpt>
      <trkpt lat="43.879" lon="6.78512">
        <ele>1113.8</ele>
        <time>2016-05-15T11:04:19Z</time>
      </trkpt>
      <trkpt lat="43.87891" lon="6.78516">
        <ele>1111.2</ele>
        <time>2016-05-15T11:04:22Z</time>
      </trkpt>
      <trkpt lat="43.8788" lon="6.78521">
        <ele>1109.1</ele>
        <time>2016-05-15T11:04:25Z</time>
      </trkpt>
      <trkpt lat="43.87873" lon="6.78531">
        <ele>1106.7</ele>
        <time>2016-05-15T11:04:28Z</time>
      </trkpt>
      <trkpt lat="43.87866" lon="6.78542">
        <ele>1102.8</ele>
        <time>2016-05-15T11:04:33Z</time>
      </trkpt>
      <trkpt lat="43.87855" lon="6.7854">
        <ele>1099.6</ele>
        <time>2016-05-15T11:04:37Z</time>
      </trkpt>
      <trkpt lat="43.87851" lon="6.78552">
        <ele>1097.2</ele>
        <time>2016-05-15T11:04:40Z</time>
      </trkpt>
      <trkpt lat="43.87846" lon="6.78566">
        <ele>1094.5</ele>
        <time>2016-05-15T11:04:43Z</time>
      </trkpt>
      <trkpt lat="43.87843" lon="6.7858">
        <ele>1091.6</ele>
        <time>2016-05-15T11:04:46Z</time>
      </trkpt>
      <trkpt lat="43.87835" lon="6.78593">
        <ele>1089</ele>
        <time>2016-05-15T11:04:49Z</time>
      </trkpt>
      <trkpt lat="43.87828" lon="6.78604">
        <ele>1085.8</ele>
        <time>2016-05-15T11:04:53Z</time>
      </trkpt>
      <trkpt lat="43.87826" lon="6.7862">
        <ele>1083.1</ele>
        <time>2016-05-15T11:04:57Z</time>
      </trkpt>
      <trkpt lat="43.87829" lon="6.78633">
        <ele>1080.6</ele>
        <time>2016-05-15T11:05:00Z</time>
      </trkpt>
      <trkpt lat="43.87833" lon="6.78644">
        <ele>1078.4</ele>
        <time>2016-05-15T11:05:03Z</time>
      </trkpt>
      <trkpt lat="43.87836" lon="6.78659">
        <ele>1075.2</ele>
        <time>2016-05-15T11:05:08Z</time>
      </trkpt>
      <trkpt lat="43.87837" lon="6.78672">
        <ele>1072.6</ele>
        <time>2016-05-15T11:05:12Z</time>
      </trkpt>
      <trkpt lat="43.87838" lon="6.78685">
        <ele>1069.3</ele>
        <time>2016-05-15T11:05:17Z</time>
      </trkpt>
      <trkpt lat="43.87838" lon="6.787">
        <ele>1067.1</ele>
        <time>2016-05-15T11:05:21Z</time>
      </trkpt>
      <trkpt lat="43.8784" lon="6.78716">
        <ele>1064.9</ele>
        <time>2016-05-15T11:05:25Z</time>
      </trkpt>
      <trkpt lat="43.87838" lon="6.78729">
        <ele>1063.3</ele>
        <time>2016-05-15T11:05:28Z</time>
      </trkpt>
      <trkpt lat="43.87832" lon="6.78738">
        <ele>1055.7</ele>
        <time>2016-05-15T11:05:57Z</time>
      </trkpt>
      <trkpt lat="43.87828" lon="6.78749">
        <ele>1053.9</ele>
        <time>2016-05-15T11:07:51Z</time>
      </trkpt>
      <trkpt lat="43.87828" lon="6.78763">
        <ele>1053.8</ele>
        <time>2016-05-15T11:09:55Z</time>
      </trkpt>
      <trkpt lat="43.87826" lon="6.78779">
        <ele>1053.2</ele>
        <time>2016-05-15T11:09:58Z</time>
      </trkpt>
      <trkpt lat="43.87823" lon="6.78791">
        <ele>1052.6</ele>
        <time>2016-05-15T11:10:00Z</time>
      </trkpt>
      <trkpt lat="43.87818" lon="6.78803">
        <ele>1051.9</ele>
        <time>2016-05-15T11:10:02Z</time>
      </trkpt>
      <trkpt lat="43.87814" lon="6.78815">
        <ele>1051.2</ele>
        <time>2016-05-15T11:10:04Z</time>
      </trkpt>
      <trkpt lat="43.8781" lon="6.78828">
        <ele>1049.6</ele>
        <time>2016-05-15T11:10:07Z</time>
      </trkpt>
      <trkpt lat="43.87801" lon="6.78826">
        <ele>1046.4</ele>
        <time>2016-05-15T11:10:13Z</time>
      </trkpt>
      <trkpt lat="43.87795" lon="6.7884">
        <ele>1044.5</ele>
        <time>2016-05-15T11:10:16Z</time>
      </trkpt>
      <trkpt lat="43.87795" lon="6.78823">
        <ele>1032.7</ele>
        <time>2016-05-15T11:11:11Z</time>
      </trkpt>
      <trkpt lat="43.87798" lon="6.78805">
        <ele>1032.3</ele>
        <time>2016-05-15T11:11:14Z</time>
      </trkpt>
      <trkpt lat="43.878" lon="6.78787">
        <ele>1031.9</ele>
        <time>2016-05-15T11:11:17Z</time>
      </trkpt>
      <trkpt lat="43.87802" lon="6.78773">
        <ele>1031.4</ele>
        <time>2016-05-15T11:11:20Z</time>
      </trkpt>
      <trkpt lat="43.87802" lon="6.78758">
        <ele>1030.9</ele>
        <time>2016-05-15T11:11:23Z</time>
      </trkpt>
      <trkpt lat="43.87799" lon="6.78742">
        <ele>1030.5</ele>
        <time>2016-05-15T11:11:26Z</time>
      </trkpt>
      <trkpt lat="43.87795" lon="6.78728">
        <ele>1030.2</ele>
        <time>2016-05-15T11:11:29Z</time>
      </trkpt>
      <trkpt lat="43.87788" lon="6.78716">
        <ele>1030</ele>
        <time>2016-05-15T11:11:32Z</time>
      </trkpt>
      <trkpt lat="43.87781" lon="6.78706">
        <ele>1029.8</ele>
        <time>2016-05-15T11:11:34Z</time>
      </trkpt>
      <trkpt lat="43.87772" lon="6.78692">
        <ele>1029.6</ele>
        <time>2016-05-15T11:11:37Z</time>
      </trkpt>
      <trkpt lat="43.87764" lon="6.78679">
        <ele>1029.4</ele>
        <time>2016-05-15T11:11:40Z</time>
      </trkpt>
      <trkpt lat="43.87754" lon="6.78668">
        <ele>1029.2</ele>
        <time>2016-05-15T11:11:43Z</time>
      </trkpt>
      <trkpt lat="43.87747" lon="6.78656">
        <ele>1029</ele>
        <time>2016-05-15T11:11:45Z</time>
      </trkpt>
      <trkpt lat="43.87739" lon="6.78648">
        <ele>1028.9</ele>
        <time>2016-05-15T11:11:47Z</time>
      </trkpt>
      <trkpt lat="43.87733" lon="6.78634">
        <ele>1028.7</ele>
        <time>2016-05-15T11:11:50Z</time>
      </trkpt>
      <trkpt lat="43.87734" lon="6.78619">
        <ele>1028.3</ele>
        <time>2016-05-15T11:11:53Z</time>
      </trkpt>
      <trkpt lat="43.87736" lon="6.78602">
        <ele>1027.9</ele>
        <time>2016-05-15T11:11:56Z</time>
      </trkpt>
      <trkpt lat="43.87737" lon="6.78585">
        <ele>1027.5</ele>
        <time>2016-05-15T11:11:59Z</time>
      </trkpt>
      <trkpt lat="43.87737" lon="6.7857">
        <ele>1026.8</ele>
        <time>2016-05-15T11:12:02Z</time>
      </trkpt>
      <trkpt lat="43.87735" lon="6.78554">
        <ele>1026.1</ele>
        <time>2016-05-15T11:12:05Z</time>
      </trkpt>
      <trkpt lat="43.87736" lon="6.78541">
        <ele>1024.7</ele>
        <time>2016-05-15T11:12:08Z</time>
      </trkpt>
      <trkpt lat="43.87737" lon="6.78525">
        <ele>1024.1</ele>
        <time>2016-05-15T11:12:12Z</time>
      </trkpt>
      <trkpt lat="43.87739" lon="6.7851">
        <ele>1023.9</ele>
        <time>2016-05-15T11:12:16Z</time>
      </trkpt>
      <trkpt lat="43.87738" lon="6.78494">
        <ele>1023.6</ele>
        <time>2016-05-15T11:12:20Z</time>
      </trkpt>
      <trkpt lat="43.87731" lon="6.78481">
        <ele>1023.5</ele>
        <time>2016-05-15T11:12:23Z</time>
      </trkpt>
      <trkpt lat="43.87721" lon="6.78472">
        <ele>1023.4</ele>
        <time>2016-05-15T11:12:26Z</time>
      </trkpt>
      <trkpt lat="43.87712" lon="6.78467">
        <ele>1023.3</ele>
        <time>2016-05-15T11:12:29Z</time>
      </trkpt>
      <trkpt lat="43.87702" lon="6.78465">
        <ele>1023.2</ele>
        <time>2016-05-15T11:12:32Z</time>
      </trkpt>
      <trkpt lat="43.87692" lon="6.78464">
        <ele>1023.1</ele>
        <time>2016-05-15T11:12:35Z</time>
      </trkpt>
      <trkpt lat="43.87681" lon="6.78463">
        <ele>1023</ele>
        <time>2016-05-15T11:12:38Z</time>
      </trkpt>
      <trkpt lat="43.87672" lon="6.78462">
        <ele>1023</ele>
        <time>2016-05-15T11:12:41Z</time>
      </trkpt>
      <trkpt lat="43.87663" lon="6.7846">
        <ele>1022.8</ele>
        <time>2016-05-15T11:12:56Z</time>
      </trkpt>
      <trkpt lat="43.87652" lon="6.78458">
        <ele>1022.7</ele>
        <time>2016-05-15T11:12:59Z</time>
      </trkpt>
      <trkpt lat="43.8764" lon="6.78454">
        <ele>1022.2</ele>
        <time>2016-05-15T11:13:01Z</time>
      </trkpt>
      <trkpt lat="43.87628" lon="6.78446">
        <ele>1021.6</ele>
        <time>2016-05-15T11:13:03Z</time>
      </trkpt>
      <trkpt lat="43.87616" lon="6.78433">
        <ele>1020.9</ele>
        <time>2016-05-15T11:13:05Z</time>
      </trkpt>
      <trkpt lat="43.87609" lon="6.78416">
        <ele>1020.1</ele>
        <time>2016-05-15T11:13:07Z</time>
      </trkpt>
      <trkpt lat="43.87604" lon="6.78398">
        <ele>1019.4</ele>
        <time>2016-05-15T11:13:09Z</time>
      </trkpt>
      <trkpt lat="43.87599" lon="6.7838">
        <ele>1018.7</ele>
        <time>2016-05-15T11:13:11Z</time>
      </trkpt>
      <trkpt lat="43.87593" lon="6.78361">
        <ele>1017.8</ele>
        <time>2016-05-15T11:13:13Z</time>
      </trkpt>
      <trkpt lat="43.87588" lon="6.78347">
        <ele>1016.7</ele>
        <time>2016-05-15T11:13:15Z</time>
      </trkpt>
      <trkpt lat="43.87584" lon="6.78336">
        <ele>1015.6</ele>
        <time>2016-05-15T11:13:17Z</time>
      </trkpt>
      <trkpt lat="43.87576" lon="6.78326">
        <ele>1013.8</ele>
        <time>2016-05-15T11:13:20Z</time>
      </trkpt>
      <trkpt lat="43.87568" lon="6.78321">
        <ele>1011.4</ele>
        <time>2016-05-15T11:13:24Z</time>
      </trkpt>
      <trkpt lat="43.87561" lon="6.78312">
        <ele>1004.7</ele>
        <time>2016-05-15T11:13:37Z</time>
      </trkpt>
      <trkpt lat="43.8755" lon="6.78306">
        <ele>1003.7</ele>
        <time>2016-05-15T11:13:40Z</time>
      </trkpt>
      <trkpt lat="43.8754" lon="6.783">
        <ele>1003.1</ele>
        <time>2016-05-15T11:13:42Z</time>
      </trkpt>
      <trkpt lat="43.87531" lon="6.78293">
        <ele>1002.5</ele>
        <time>2016-05-15T11:13:44Z</time>
      </trkpt>
      <trkpt lat="43.87523" lon="6.78286">
        <ele>1001.8</ele>
        <time>2016-05-15T11:13:46Z</time>
      </trkpt>
      <trkpt lat="43.87519" lon="6.78274">
        <ele>1000.9</ele>
        <time>2016-05-15T11:13:49Z</time>
      </trkpt>
      <trkpt lat="43.87528" lon="6.78275">
        <ele>999.6</ele>
        <time>2016-05-15T11:13:52Z</time>
      </trkpt>
      <trkpt lat="43.87537" lon="6.78277">
        <ele>998.8</ele>
        <time>2016-05-15T11:13:54Z</time>
      </trkpt>
      <trkpt lat="43.87547" lon="6.78277">
        <ele>998</ele>
        <time>2016-05-15T11:13:56Z</time>
      </trkpt>
      <trkpt lat="43.87559" lon="6.78275">
        <ele>996.7</ele>
        <time>2016-05-15T11:13:59Z</time>
      </trkpt>
      <trkpt lat="43.87569" lon="6.78272">
        <ele>995.8</ele>
        <time>2016-05-15T11:14:01Z</time>
      </trkpt>
      <trkpt lat="43.87583" lon="6.78266">
        <ele>994.5</ele>
        <time>2016-05-15T11:14:04Z</time>
      </trkpt>
      <trkpt lat="43.87589" lon="6.78254">
        <ele>993.4</ele>
        <time>2016-05-15T11:14:07Z</time>
      </trkpt>
      <trkpt lat="43.87581" lon="6.78248">
        <ele>992</ele>
        <time>2016-05-15T11:14:11Z</time>
      </trkpt>
      <trkpt lat="43.87571" lon="6.78241">
        <ele>991</ele>
        <time>2016-05-15T11:14:15Z</time>
      </trkpt>
      <trkpt lat="43.87562" lon="6.78236">
        <ele>990.4</ele>
        <time>2016-05-15T11:14:18Z</time>
      </trkpt>
      <trkpt lat="43.87555" lon="6.78228">
        <ele>990.1</ele>
        <time>2016-05-15T11:14:20Z</time>
      </trkpt>
      <trkpt lat="43.87547" lon="6.78214">
        <ele>989.8</ele>
        <time>2016-05-15T11:14:23Z</time>
      </trkpt>
      <trkpt lat="43.87542" lon="6.78199">
        <ele>989.5</ele>
        <time>2016-05-15T11:14:26Z</time>
      </trkpt>
      <trkpt lat="43.87547" lon="6.78184">
        <ele>988.9</ele>
        <time>2016-05-15T11:14:30Z</time>
      </trkpt>
      <trkpt lat="43.87558" lon="6.78178">
        <ele>988.4</ele>
        <time>2016-05-15T11:14:33Z</time>
      </trkpt>
      <trkpt lat="43.8757" lon="6.78172">
        <ele>987.7</ele>
        <time>2016-05-15T11:14:36Z</time>
      </trkpt>
      <trkpt lat="43.87581" lon="6.78161">
        <ele>986.9</ele>
        <time>2016-05-15T11:14:38Z</time>
      </trkpt>
      <trkpt lat="43.87575" lon="6.78143">
        <ele>985</ele>
        <time>2016-05-15T11:14:42Z</time>
      </trkpt>
      <trkpt lat="43.87563" lon="6.78135">
        <ele>984.8</ele>
        <time>2016-05-15T11:14:45Z</time>
      </trkpt>
      <trkpt lat="43.87553" lon="6.78128">
        <ele>984.1</ele>
        <time>2016-05-15T11:14:48Z</time>
      </trkpt>
      <trkpt lat="43.87544" lon="6.78119">
        <ele>983.6</ele>
        <time>2016-05-15T11:14:51Z</time>
      </trkpt>
      <trkpt lat="43.87535" lon="6.78109">
        <ele>983.2</ele>
        <time>2016-05-15T11:14:54Z</time>
      </trkpt>
      <trkpt lat="43.87528" lon="6.78101">
        <ele>982.7</ele>
        <time>2016-05-15T11:14:57Z</time>
      </trkpt>
      <trkpt lat="43.87528" lon="6.78089">
        <ele>980.7</ele>
        <time>2016-05-15T11:16:24Z</time>
      </trkpt>
      <trkpt lat="43.87528" lon="6.78074">
        <ele>980.6</ele>
        <time>2016-05-15T11:16:32Z</time>
      </trkpt>
      <trkpt lat="43.87527" lon="6.7806">
        <ele>980.6</ele>
        <time>2016-05-15T11:16:36Z</time>
      </trkpt>
      <trkpt lat="43.87529" lon="6.78046">
        <ele>980.6</ele>
        <time>2016-05-15T11:16:40Z</time>
      </trkpt>
      <trkpt lat="43.8753" lon="6.78032">
        <ele>980.8</ele>
        <time>2016-05-15T11:16:44Z</time>
      </trkpt>
      <trkpt lat="43.8753" lon="6.78019">
        <ele>981.3</ele>
        <time>2016-05-15T11:16:48Z</time>
      </trkpt>
      <trkpt lat="43.87529" lon="6.78006">
        <ele>982.7</ele>
        <time>2016-05-15T11:17:11Z</time>
      </trkpt>
      <trkpt lat="43.87529" lon="6.77993">
        <ele>983</ele>
        <time>2016-05-15T11:17:22Z</time>
      </trkpt>
      <trkpt lat="43.87529" lon="6.77979">
        <ele>983.4</ele>
        <time>2016-05-15T11:17:32Z</time>
      </trkpt>
      <trkpt lat="43.87528" lon="6.77964">
        <ele>983.5</ele>
        <time>2016-05-15T11:17:36Z</time>
      </trkpt>
      <trkpt lat="43.87528" lon="6.77951">
        <ele>983.9</ele>
        <time>2016-05-15T11:17:40Z</time>
      </trkpt>
      <trkpt lat="43.87527" lon="6.77937">
        <ele>984.9</ele>
        <time>2016-05-15T11:18:07Z</time>
      </trkpt>
      <trkpt lat="43.87521" lon="6.77924">
        <ele>984.9</ele>
        <time>2016-05-15T11:18:11Z</time>
      </trkpt>
      <trkpt lat="43.87509" lon="6.77916">
        <ele>984.6</ele>
        <time>2016-05-15T11:18:14Z</time>
      </trkpt>
      <trkpt lat="43.87497" lon="6.77907">
        <ele>984</ele>
        <time>2016-05-15T11:18:17Z</time>
      </trkpt>
      <trkpt lat="43.87489" lon="6.77899">
        <ele>983</ele>
        <time>2016-05-15T11:18:20Z</time>
      </trkpt>
      <trkpt lat="43.87481" lon="6.77888">
        <ele>981.5</ele>
        <time>2016-05-15T11:18:24Z</time>
      </trkpt>
      <trkpt lat="43.87475" lon="6.77878">
        <ele>980.6</ele>
        <time>2016-05-15T11:18:27Z</time>
      </trkpt>
      <trkpt lat="43.87469" lon="6.77866">
        <ele>979.9</ele>
        <time>2016-05-15T11:18:30Z</time>
      </trkpt>
      <trkpt lat="43.87463" lon="6.77856">
        <ele>979.3</ele>
        <time>2016-05-15T11:18:33Z</time>
      </trkpt>
      <trkpt lat="43.87455" lon="6.77844">
        <ele>978.7</ele>
        <time>2016-05-15T11:18:36Z</time>
      </trkpt>
      <trkpt lat="43.87448" lon="6.77834">
        <ele>978.2</ele>
        <time>2016-05-15T11:18:39Z</time>
      </trkpt>
      <trkpt lat="43.87443" lon="6.77823">
        <ele>977.7</ele>
        <time>2016-05-15T11:18:42Z</time>
      </trkpt>
      <trkpt lat="43.87438" lon="6.77808">
        <ele>977</ele>
        <time>2016-05-15T11:18:46Z</time>
      </trkpt>
      <trkpt lat="43.87435" lon="6.77796">
        <ele>976.6</ele>
        <time>2016-05-15T11:18:49Z</time>
      </trkpt>
      <trkpt lat="43.87431" lon="6.77784">
        <ele>976.1</ele>
        <time>2016-05-15T11:18:53Z</time>
      </trkpt>
      <trkpt lat="43.87427" lon="6.7777">
        <ele>975.8</ele>
        <time>2016-05-15T11:18:57Z</time>
      </trkpt>
      <trkpt lat="43.87424" lon="6.77754">
        <ele>975.5</ele>
        <time>2016-05-15T11:19:01Z</time>
      </trkpt>
      <trkpt lat="43.87422" lon="6.7774">
        <ele>975.3</ele>
        <time>2016-05-15T11:19:04Z</time>
      </trkpt>
      <trkpt lat="43.87417" lon="6.77726">
        <ele>975.1</ele>
        <time>2016-05-15T11:19:07Z</time>
      </trkpt>
      <trkpt lat="43.87413" lon="6.77714">
        <ele>974.9</ele>
        <time>2016-05-15T11:19:10Z</time>
      </trkpt>
      <trkpt lat="43.8741" lon="6.77701">
        <ele>974.8</ele>
        <time>2016-05-15T11:19:13Z</time>
      </trkpt>
      <trkpt lat="43.87405" lon="6.77689">
        <ele>974.7</ele>
        <time>2016-05-15T11:19:16Z</time>
      </trkpt>
      <trkpt lat="43.87398" lon="6.77675">
        <ele>974.5</ele>
        <time>2016-05-15T11:19:19Z</time>
      </trkpt>
      <trkpt lat="43.87392" lon="6.77664">
        <ele>974.4</ele>
        <time>2016-05-15T11:19:21Z</time>
      </trkpt>
      <trkpt lat="43.87387" lon="6.77653">
        <ele>974.3</ele>
        <time>2016-05-15T11:19:23Z</time>
      </trkpt>
      <trkpt lat="43.87381" lon="6.77641">
        <ele>973.9</ele>
        <time>2016-05-15T11:19:25Z</time>
      </trkpt>
      <trkpt lat="43.87376" lon="6.77626">
        <ele>973.4</ele>
        <time>2016-05-15T11:19:27Z</time>
      </trkpt>
      <trkpt lat="43.87371" lon="6.7761">
        <ele>972.8</ele>
        <time>2016-05-15T11:19:29Z</time>
      </trkpt>
      <trkpt lat="43.8737" lon="6.77589">
        <ele>971.9</ele>
        <time>2016-05-15T11:19:31Z</time>
      </trkpt>
      <trkpt lat="43.87369" lon="6.77573">
        <ele>970.8</ele>
        <time>2016-05-15T11:19:33Z</time>
      </trkpt>
      <trkpt lat="43.87368" lon="6.77559">
        <ele>969.9</ele>
        <time>2016-05-15T11:19:35Z</time>
      </trkpt>
      <trkpt lat="43.87361" lon="6.77551">
        <ele>968.8</ele>
        <time>2016-05-15T11:19:37Z</time>
      </trkpt>
      <trkpt lat="43.87353" lon="6.77539">
        <ele>967.9</ele>
        <time>2016-05-15T11:19:39Z</time>
      </trkpt>
      <trkpt lat="43.87346" lon="6.77523">
        <ele>966.8</ele>
        <time>2016-05-15T11:19:41Z</time>
      </trkpt>
      <trkpt lat="43.87334" lon="6.77513">
        <ele>965.7</ele>
        <time>2016-05-15T11:19:43Z</time>
      </trkpt>
      <trkpt lat="43.87325" lon="6.77508">
        <ele>965.2</ele>
        <time>2016-05-15T11:19:44Z</time>
      </trkpt>
      <trkpt lat="43.87314" lon="6.77503">
        <ele>964.3</ele>
        <time>2016-05-15T11:19:46Z</time>
      </trkpt>
      <trkpt lat="43.87301" lon="6.77492">
        <ele>963.3</ele>
        <time>2016-05-15T11:19:48Z</time>
      </trkpt>
      <trkpt lat="43.87289" lon="6.77481">
        <ele>962.2</ele>
        <time>2016-05-15T11:19:50Z</time>
      </trkpt>
      <trkpt lat="43.87281" lon="6.77467">
        <ele>961.3</ele>
        <time>2016-05-15T11:19:52Z</time>
      </trkpt>
      <trkpt lat="43.87275" lon="6.77453">
        <ele>960.5</ele>
        <time>2016-05-15T11:19:54Z</time>
      </trkpt>
      <trkpt lat="43.87268" lon="6.77441">
        <ele>959.7</ele>
        <time>2016-05-15T11:19:56Z</time>
      </trkpt>
      <trkpt lat="43.87263" lon="6.77429">
        <ele>958.8</ele>
        <time>2016-05-15T11:19:58Z</time>
      </trkpt>
      <trkpt lat="43.8725" lon="6.77417">
        <ele>957.2</ele>
        <time>2016-05-15T11:20:01Z</time>
      </trkpt>
      <trkpt lat="43.8724" lon="6.77408">
        <ele>955.9</ele>
        <time>2016-05-15T11:20:03Z</time>
      </trkpt>
      <trkpt lat="43.87231" lon="6.77401">
        <ele>954.4</ele>
        <time>2016-05-15T11:20:05Z</time>
      </trkpt>
      <trkpt lat="43.87222" lon="6.77391">
        <ele>952.8</ele>
        <time>2016-05-15T11:20:07Z</time>
      </trkpt>
      <trkpt lat="43.87214" lon="6.77382">
        <ele>951</ele>
        <time>2016-05-15T11:20:09Z</time>
      </trkpt>
      <trkpt lat="43.87202" lon="6.7737">
        <ele>949.2</ele>
        <time>2016-05-15T11:20:11Z</time>
      </trkpt>
      <trkpt lat="43.87194" lon="6.77358">
        <ele>947.4</ele>
        <time>2016-05-15T11:20:13Z</time>
      </trkpt>
      <trkpt lat="43.87184" lon="6.77351">
        <ele>945.6</ele>
        <time>2016-05-15T11:20:15Z</time>
      </trkpt>
      <trkpt lat="43.87175" lon="6.77348">
        <ele>944.7</ele>
        <time>2016-05-15T11:20:16Z</time>
      </trkpt>
      <trkpt lat="43.87164" lon="6.77345">
        <ele>942.1</ele>
        <time>2016-05-15T11:20:19Z</time>
      </trkpt>
      <trkpt lat="43.87155" lon="6.77341">
        <ele>938.9</ele>
        <time>2016-05-15T11:20:23Z</time>
      </trkpt>
      <trkpt lat="43.87147" lon="6.77334">
        <ele>926.8</ele>
        <time>2016-05-15T11:23:49Z</time>
      </trkpt>
      <trkpt lat="43.87136" lon="6.77331">
        <ele>926.6</ele>
        <time>2016-05-15T11:23:52Z</time>
      </trkpt>
      <trkpt lat="43.87125" lon="6.77329">
        <ele>926.4</ele>
        <time>2016-05-15T11:23:54Z</time>
      </trkpt>
      <trkpt lat="43.87113" lon="6.77324">
        <ele>926.1</ele>
        <time>2016-05-15T11:23:56Z</time>
      </trkpt>
      <trkpt lat="43.87102" lon="6.77316">
        <ele>925.8</ele>
        <time>2016-05-15T11:23:58Z</time>
      </trkpt>
      <trkpt lat="43.87091" lon="6.77307">
        <ele>925.4</ele>
        <time>2016-05-15T11:24:00Z</time>
      </trkpt>
      <trkpt lat="43.87082" lon="6.77294">
        <ele>925.1</ele>
        <time>2016-05-15T11:24:02Z</time>
      </trkpt>
      <trkpt lat="43.87076" lon="6.77282">
        <ele>924.6</ele>
        <time>2016-05-15T11:24:04Z</time>
      </trkpt>
      <trkpt lat="43.87071" lon="6.77269">
        <ele>923.9</ele>
        <time>2016-05-15T11:24:07Z</time>
      </trkpt>
      <trkpt lat="43.87069" lon="6.77254">
        <ele>923.5</ele>
        <time>2016-05-15T11:24:11Z</time>
      </trkpt>
      <trkpt lat="43.87063" lon="6.77245">
        <ele>923.3</ele>
        <time>2016-05-15T11:24:15Z</time>
      </trkpt>
      <trkpt lat="43.87057" lon="6.77234">
        <ele>923.3</ele>
        <time>2016-05-15T11:24:19Z</time>
      </trkpt>
      <trkpt lat="43.87055" lon="6.77219">
        <ele>923.6</ele>
        <time>2016-05-15T11:24:23Z</time>
      </trkpt>
      <trkpt lat="43.87051" lon="6.77204">
        <ele>923.8</ele>
        <time>2016-05-15T11:24:27Z</time>
      </trkpt>
      <trkpt lat="43.87047" lon="6.7719">
        <ele>923.9</ele>
        <time>2016-05-15T11:24:31Z</time>
      </trkpt>
      <trkpt lat="43.87043" lon="6.77174">
        <ele>924</ele>
        <time>2016-05-15T11:24:35Z</time>
      </trkpt>
      <trkpt lat="43.87047" lon="6.77159">
        <ele>924.1</ele>
        <time>2016-05-15T11:24:39Z</time>
      </trkpt>
      <trkpt lat="43.87051" lon="6.77145">
        <ele>924.2</ele>
        <time>2016-05-15T11:24:43Z</time>
      </trkpt>
      <trkpt lat="43.87052" lon="6.77132">
        <ele>924.4</ele>
        <time>2016-05-15T11:24:47Z</time>
      </trkpt>
      <trkpt lat="43.87049" lon="6.7712">
        <ele>924.6</ele>
        <time>2016-05-15T11:24:51Z</time>
      </trkpt>
      <trkpt lat="43.87045" lon="6.77107">
        <ele>925</ele>
        <time>2016-05-15T11:24:56Z</time>
      </trkpt>
      <trkpt lat="43.87041" lon="6.77095">
        <ele>925.8</ele>
        <time>2016-05-15T11:25:02Z</time>
      </trkpt>
      <trkpt lat="43.87035" lon="6.77082">
        <ele>926.6</ele>
        <time>2016-05-15T11:25:08Z</time>
      </trkpt>
      <trkpt lat="43.87031" lon="6.7707">
        <ele>927.5</ele>
        <time>2016-05-15T11:25:14Z</time>
      </trkpt>
      <trkpt lat="43.87027" lon="6.77058">
        <ele>928.3</ele>
        <time>2016-05-15T11:25:19Z</time>
      </trkpt>
      <trkpt lat="43.87024" lon="6.77045">
        <ele>929</ele>
        <time>2016-05-15T11:25:24Z</time>
      </trkpt>
      <trkpt lat="43.87022" lon="6.77031">
        <ele>929.9</ele>
        <time>2016-05-15T11:25:30Z</time>
      </trkpt>
      <trkpt lat="43.87022" lon="6.77016">
        <ele>930.5</ele>
        <time>2016-05-15T11:25:36Z</time>
      </trkpt>
      <trkpt lat="43.87021" lon="6.77002">
        <ele>931</ele>
        <time>2016-05-15T11:25:41Z</time>
      </trkpt>
      <trkpt lat="43.8702" lon="6.76989">
        <ele>931.4</ele>
        <time>2016-05-15T11:25:45Z</time>
      </trkpt>
      <trkpt lat="43.87019" lon="6.76977">
        <ele>931.8</ele>
        <time>2016-05-15T11:25:49Z</time>
      </trkpt>
      <trkpt lat="43.87019" lon="6.76962">
        <ele>932.2</ele>
        <time>2016-05-15T11:25:54Z</time>
      </trkpt>
      <trkpt lat="43.87017" lon="6.7695">
        <ele>932.7</ele>
        <time>2016-05-15T11:26:02Z</time>
      </trkpt>
      <trkpt lat="43.87018" lon="6.76935">
        <ele>933.2</ele>
        <time>2016-05-15T11:26:17Z</time>
      </trkpt>
      <trkpt lat="43.87018" lon="6.76921">
        <ele>933.4</ele>
        <time>2016-05-15T11:26:23Z</time>
      </trkpt>
      <trkpt lat="43.87018" lon="6.76907">
        <ele>933.6</ele>
        <time>2016-05-15T11:26:28Z</time>
      </trkpt>
      <trkpt lat="43.87018" lon="6.76894">
        <ele>933.7</ele>
        <time>2016-05-15T11:26:33Z</time>
      </trkpt>
      <trkpt lat="43.87018" lon="6.7688">
        <ele>933.9</ele>
        <time>2016-05-15T11:26:38Z</time>
      </trkpt>
      <trkpt lat="43.87016" lon="6.76866">
        <ele>934</ele>
        <time>2016-05-15T11:26:43Z</time>
      </trkpt>
      <trkpt lat="43.87015" lon="6.76852">
        <ele>934</ele>
        <time>2016-05-15T11:26:48Z</time>
      </trkpt>
      <trkpt lat="43.87015" lon="6.76837">
        <ele>934.1</ele>
        <time>2016-05-15T11:26:53Z</time>
      </trkpt>
      <trkpt lat="43.87015" lon="6.76824">
        <ele>934.2</ele>
        <time>2016-05-15T11:26:57Z</time>
      </trkpt>
      <trkpt lat="43.87016" lon="6.76809">
        <ele>934.6</ele>
        <time>2016-05-15T11:27:02Z</time>
      </trkpt>
      <trkpt lat="43.87016" lon="6.76794">
        <ele>935.1</ele>
        <time>2016-05-15T11:27:07Z</time>
      </trkpt>
      <trkpt lat="43.87014" lon="6.76779">
        <ele>935.5</ele>
        <time>2016-05-15T11:27:12Z</time>
      </trkpt>
      <trkpt lat="43.87013" lon="6.76766">
        <ele>936</ele>
        <time>2016-05-15T11:27:17Z</time>
      </trkpt>
      <trkpt lat="43.87013" lon="6.76753">
        <ele>936.5</ele>
        <time>2016-05-15T11:27:21Z</time>
      </trkpt>
      <trkpt lat="43.87011" lon="6.7674">
        <ele>937.1</ele>
        <time>2016-05-15T11:27:26Z</time>
      </trkpt>
      <trkpt lat="43.87006" lon="6.76727">
        <ele>937.7</ele>
        <time>2016-05-15T11:27:31Z</time>
      </trkpt>
      <trkpt lat="43.87003" lon="6.76715">
        <ele>938.4</ele>
        <time>2016-05-15T11:27:36Z</time>
      </trkpt>
      <trkpt lat="43.86997" lon="6.76706">
        <ele>939.2</ele>
        <time>2016-05-15T11:27:41Z</time>
      </trkpt>
      <trkpt lat="43.8699" lon="6.76697">
        <ele>940.2</ele>
        <time>2016-05-15T11:27:47Z</time>
      </trkpt>
      <trkpt lat="43.86983" lon="6.76688">
        <ele>941.2</ele>
        <time>2016-05-15T11:27:53Z</time>
      </trkpt>
      <trkpt lat="43.86976" lon="6.76677">
        <ele>942.2</ele>
        <time>2016-05-15T11:27:59Z</time>
      </trkpt>
      <trkpt lat="43.86971" lon="6.76666">
        <ele>943</ele>
        <time>2016-05-15T11:28:04Z</time>
      </trkpt>
      <trkpt lat="43.86966" lon="6.76655">
        <ele>943.8</ele>
        <time>2016-05-15T11:28:09Z</time>
      </trkpt>
      <trkpt lat="43.86962" lon="6.76644">
        <ele>944.5</ele>
        <time>2016-05-15T11:28:14Z</time>
      </trkpt>
      <trkpt lat="43.86956" lon="6.76633">
        <ele>945.3</ele>
        <time>2016-05-15T11:28:19Z</time>
      </trkpt>
      <trkpt lat="43.86949" lon="6.76622">
        <ele>946.2</ele>
        <time>2016-05-15T11:28:25Z</time>
      </trkpt>
      <trkpt lat="43.8694" lon="6.76614">
        <ele>947.1</ele>
        <time>2016-05-15T11:28:31Z</time>
      </trkpt>
      <trkpt lat="43.86932" lon="6.76606">
        <ele>948.1</ele>
        <time>2016-05-15T11:28:37Z</time>
      </trkpt>
      <trkpt lat="43.86923" lon="6.76598">
        <ele>948.9</ele>
        <time>2016-05-15T11:28:43Z</time>
      </trkpt>
      <trkpt lat="43.86916" lon="6.76589">
        <ele>950</ele>
        <time>2016-05-15T11:28:49Z</time>
      </trkpt>
      <trkpt lat="43.86908" lon="6.76579">
        <ele>950.9</ele>
        <time>2016-05-15T11:28:55Z</time>
      </trkpt>
      <trkpt lat="43.86902" lon="6.76568">
        <ele>951.9</ele>
        <time>2016-05-15T11:29:01Z</time>
      </trkpt>
      <trkpt lat="43.86896" lon="6.76558">
        <ele>952.9</ele>
        <time>2016-05-15T11:29:07Z</time>
      </trkpt>
      <trkpt lat="43.86891" lon="6.76546">
        <ele>953.7</ele>
        <time>2016-05-15T11:29:13Z</time>
      </trkpt>
      <trkpt lat="43.86885" lon="6.76535">
        <ele>954.3</ele>
        <time>2016-05-15T11:29:18Z</time>
      </trkpt>
      <trkpt lat="43.86881" lon="6.76523">
        <ele>954.9</ele>
        <time>2016-05-15T11:29:23Z</time>
      </trkpt>
      <trkpt lat="43.86877" lon="6.76512">
        <ele>955.7</ele>
        <time>2016-05-15T11:29:28Z</time>
      </trkpt>
      <trkpt lat="43.86874" lon="6.765">
        <ele>956.2</ele>
        <time>2016-05-15T11:29:33Z</time>
      </trkpt>
      <trkpt lat="43.86871" lon="6.76488">
        <ele>956.8</ele>
        <time>2016-05-15T11:29:38Z</time>
      </trkpt>
      <trkpt lat="43.86866" lon="6.76477">
        <ele>957.4</ele>
        <time>2016-05-15T11:29:43Z</time>
      </trkpt>
      <trkpt lat="43.8686" lon="6.76466">
        <ele>958</ele>
        <time>2016-05-15T11:29:48Z</time>
      </trkpt>
      <trkpt lat="43.86853" lon="6.76457">
        <ele>958.7</ele>
        <time>2016-05-15T11:29:53Z</time>
      </trkpt>
      <trkpt lat="43.86846" lon="6.7645">
        <ele>959.4</ele>
        <time>2016-05-15T11:29:58Z</time>
      </trkpt>
      <trkpt lat="43.86837" lon="6.76442">
        <ele>960.5</ele>
        <time>2016-05-15T11:30:04Z</time>
      </trkpt>
      <trkpt lat="43.86829" lon="6.76432">
        <ele>961.4</ele>
        <time>2016-05-15T11:30:10Z</time>
      </trkpt>
      <trkpt lat="43.86821" lon="6.76423">
        <ele>962.4</ele>
        <time>2016-05-15T11:30:16Z</time>
      </trkpt>
      <trkpt lat="43.86813" lon="6.76413">
        <ele>963.5</ele>
        <time>2016-05-15T11:30:22Z</time>
      </trkpt>
      <trkpt lat="43.86807" lon="6.76404">
        <ele>964.6</ele>
        <time>2016-05-15T11:30:28Z</time>
      </trkpt>
      <trkpt lat="43.868" lon="6.76394">
        <ele>965.4</ele>
        <time>2016-05-15T11:30:34Z</time>
      </trkpt>
      <trkpt lat="43.86792" lon="6.76386">
        <ele>966.1</ele>
        <time>2016-05-15T11:30:40Z</time>
      </trkpt>
      <trkpt lat="43.86784" lon="6.76379">
        <ele>966.6</ele>
        <time>2016-05-15T11:30:46Z</time>
      </trkpt>
      <trkpt lat="43.86776" lon="6.76372">
        <ele>967.1</ele>
        <time>2016-05-15T11:30:52Z</time>
      </trkpt>
      <trkpt lat="43.86767" lon="6.76364">
        <ele>967.8</ele>
        <time>2016-05-15T11:30:58Z</time>
      </trkpt>
      <trkpt lat="43.8676" lon="6.76353">
        <ele>968.5</ele>
        <time>2016-05-15T11:31:04Z</time>
      </trkpt>
      <trkpt lat="43.86754" lon="6.76343">
        <ele>968.9</ele>
        <time>2016-05-15T11:31:09Z</time>
      </trkpt>
      <trkpt lat="43.86748" lon="6.76333">
        <ele>969.4</ele>
        <time>2016-05-15T11:31:14Z</time>
      </trkpt>
      <trkpt lat="43.86742" lon="6.76323">
        <ele>969.9</ele>
        <time>2016-05-15T11:31:19Z</time>
      </trkpt>
      <trkpt lat="43.86737" lon="6.76312">
        <ele>970.4</ele>
        <time>2016-05-15T11:31:24Z</time>
      </trkpt>
      <trkpt lat="43.86731" lon="6.763">
        <ele>970.9</ele>
        <time>2016-05-15T11:31:30Z</time>
      </trkpt>
      <trkpt lat="43.86724" lon="6.7629">
        <ele>971.5</ele>
        <time>2016-05-15T11:31:36Z</time>
      </trkpt>
      <trkpt lat="43.86716" lon="6.76283">
        <ele>972.1</ele>
        <time>2016-05-15T11:31:41Z</time>
      </trkpt>
      <trkpt lat="43.86709" lon="6.76274">
        <ele>972.6</ele>
        <time>2016-05-15T11:31:46Z</time>
      </trkpt>
      <trkpt lat="43.86702" lon="6.76266">
        <ele>973.3</ele>
        <time>2016-05-15T11:31:51Z</time>
      </trkpt>
      <trkpt lat="43.86695" lon="6.76255">
        <ele>974.2</ele>
        <time>2016-05-15T11:31:57Z</time>
      </trkpt>
      <trkpt lat="43.86688" lon="6.76244">
        <ele>975</ele>
        <time>2016-05-15T11:32:03Z</time>
      </trkpt>
      <trkpt lat="43.86682" lon="6.76232">
        <ele>976</ele>
        <time>2016-05-15T11:32:09Z</time>
      </trkpt>
      <trkpt lat="43.86678" lon="6.7622">
        <ele>977.1</ele>
        <time>2016-05-15T11:32:15Z</time>
      </trkpt>
      <trkpt lat="43.86676" lon="6.76207">
        <ele>978.1</ele>
        <time>2016-05-15T11:32:21Z</time>
      </trkpt>
      <trkpt lat="43.86672" lon="6.76194">
        <ele>979</ele>
        <time>2016-05-15T11:32:27Z</time>
      </trkpt>
      <trkpt lat="43.86671" lon="6.76181">
        <ele>979.8</ele>
        <time>2016-05-15T11:32:33Z</time>
      </trkpt>
      <trkpt lat="43.86669" lon="6.76168">
        <ele>980.7</ele>
        <time>2016-05-15T11:32:39Z</time>
      </trkpt>
      <trkpt lat="43.86667" lon="6.76155">
        <ele>981.5</ele>
        <time>2016-05-15T11:32:45Z</time>
      </trkpt>
      <trkpt lat="43.86665" lon="6.76141">
        <ele>982.5</ele>
        <time>2016-05-15T11:32:51Z</time>
      </trkpt>
      <trkpt lat="43.86663" lon="6.76127">
        <ele>983.3</ele>
        <time>2016-05-15T11:32:57Z</time>
      </trkpt>
      <trkpt lat="43.86662" lon="6.76112">
        <ele>984.1</ele>
        <time>2016-05-15T11:33:03Z</time>
      </trkpt>
      <trkpt lat="43.8666" lon="6.76098">
        <ele>984.8</ele>
        <time>2016-05-15T11:33:09Z</time>
      </trkpt>
      <trkpt lat="43.86657" lon="6.76085">
        <ele>985.6</ele>
        <time>2016-05-15T11:33:15Z</time>
      </trkpt>
      <trkpt lat="43.86652" lon="6.76073">
        <ele>986.3</ele>
        <time>2016-05-15T11:33:21Z</time>
      </trkpt>
      <trkpt lat="43.86647" lon="6.76061">
        <ele>986.9</ele>
        <time>2016-05-15T11:33:26Z</time>
      </trkpt>
      <trkpt lat="43.8664" lon="6.7605">
        <ele>987.4</ele>
        <time>2016-05-15T11:33:31Z</time>
      </trkpt>
      <trkpt lat="43.86634" lon="6.76039">
        <ele>987.7</ele>
        <time>2016-05-15T11:33:36Z</time>
      </trkpt>
      <trkpt lat="43.86628" lon="6.76028">
        <ele>988.1</ele>
        <time>2016-05-15T11:33:41Z</time>
      </trkpt>
      <trkpt lat="43.86623" lon="6.76017">
        <ele>988.6</ele>
        <time>2016-05-15T11:33:46Z</time>
      </trkpt>
      <trkpt lat="43.8662" lon="6.76004">
        <ele>989.3</ele>
        <time>2016-05-15T11:33:52Z</time>
      </trkpt>
      <trkpt lat="43.86617" lon="6.75993">
        <ele>989.8</ele>
        <time>2016-05-15T11:33:57Z</time>
      </trkpt>
      <trkpt lat="43.86615" lon="6.7598">
        <ele>990.3</ele>
        <time>2016-05-15T11:34:02Z</time>
      </trkpt>
      <trkpt lat="43.86608" lon="6.75969">
        <ele>990.7</ele>
        <time>2016-05-15T11:34:07Z</time>
      </trkpt>
      <trkpt lat="43.866" lon="6.7596">
        <ele>991.3</ele>
        <time>2016-05-15T11:34:12Z</time>
      </trkpt>
      <trkpt lat="43.86593" lon="6.7595">
        <ele>991.9</ele>
        <time>2016-05-15T11:34:18Z</time>
      </trkpt>
      <trkpt lat="43.86586" lon="6.75942">
        <ele>992.5</ele>
        <time>2016-05-15T11:34:23Z</time>
      </trkpt>
      <trkpt lat="43.86579" lon="6.75932">
        <ele>993.4</ele>
        <time>2016-05-15T11:34:29Z</time>
      </trkpt>
      <trkpt lat="43.86572" lon="6.75923">
        <ele>994.5</ele>
        <time>2016-05-15T11:34:35Z</time>
      </trkpt>
      <trkpt lat="43.86565" lon="6.75914">
        <ele>995.8</ele>
        <time>2016-05-15T11:34:41Z</time>
      </trkpt>
      <trkpt lat="43.86558" lon="6.75906">
        <ele>997.1</ele>
        <time>2016-05-15T11:34:48Z</time>
      </trkpt>
      <trkpt lat="43.8655" lon="6.75898">
        <ele>999</ele>
        <time>2016-05-15T11:34:57Z</time>
      </trkpt>
      <trkpt lat="43.86541" lon="6.75892">
        <ele>1000.6</ele>
        <time>2016-05-15T11:35:04Z</time>
      </trkpt>
      <trkpt lat="43.86532" lon="6.7589">
        <ele>1002.1</ele>
        <time>2016-05-15T11:35:11Z</time>
      </trkpt>
      <trkpt lat="43.86522" lon="6.75888">
        <ele>1003.7</ele>
        <time>2016-05-15T11:35:19Z</time>
      </trkpt>
      <trkpt lat="43.86512" lon="6.75886">
        <ele>1005.3</ele>
        <time>2016-05-15T11:35:26Z</time>
      </trkpt>
      <trkpt lat="43.86505" lon="6.75875">
        <ele>1011.1</ele>
        <time>2016-05-15T11:41:37Z</time>
      </trkpt>
      <trkpt lat="43.86497" lon="6.75869">
        <ele>1011.1</ele>
        <time>2016-05-15T11:41:43Z</time>
      </trkpt>
      <trkpt lat="43.86489" lon="6.75862">
        <ele>1011.1</ele>
        <time>2016-05-15T11:41:50Z</time>
      </trkpt>
      <trkpt lat="43.86483" lon="6.75851">
        <ele>1011.1</ele>
        <time>2016-05-15T11:41:58Z</time>
      </trkpt>
      <trkpt lat="43.86476" lon="6.7584">
        <ele>1011.1</ele>
        <time>2016-05-15T11:42:04Z</time>
      </trkpt>
      <trkpt lat="43.86472" lon="6.75828">
        <ele>1011.1</ele>
        <time>2016-05-15T11:42:11Z</time>
      </trkpt>
      <trkpt lat="43.86468" lon="6.75817">
        <ele>1011</ele>
        <time>2016-05-15T11:42:23Z</time>
      </trkpt>
      <trkpt lat="43.86457" lon="6.75817">
        <ele>1010.9</ele>
        <time>2016-05-15T11:42:52Z</time>
      </trkpt>
      <trkpt lat="43.86457" lon="6.75833">
        <ele>1010.5</ele>
        <time>2016-05-15T11:42:56Z</time>
      </trkpt>
      <trkpt lat="43.86454" lon="6.7585">
        <ele>1009.9</ele>
        <time>2016-05-15T11:42:59Z</time>
      </trkpt>
      <trkpt lat="43.86448" lon="6.75864">
        <ele>1008.9</ele>
        <time>2016-05-15T11:43:02Z</time>
      </trkpt>
      <trkpt lat="43.86439" lon="6.75873">
        <ele>1007.3</ele>
        <time>2016-05-15T11:43:06Z</time>
      </trkpt>
      <trkpt lat="43.86431" lon="6.75884">
        <ele>1006.4</ele>
        <time>2016-05-15T11:43:09Z</time>
      </trkpt>
      <trkpt lat="43.86427" lon="6.759">
        <ele>1005.8</ele>
        <time>2016-05-15T11:43:11Z</time>
      </trkpt>
      <trkpt lat="43.86424" lon="6.75916">
        <ele>1004.9</ele>
        <time>2016-05-15T11:43:13Z</time>
      </trkpt>
      <trkpt lat="43.86417" lon="6.75925">
        <ele>997.8</ele>
        <time>2016-05-15T11:43:32Z</time>
      </trkpt>
      <trkpt lat="43.86407" lon="6.75932">
        <ele>997.1</ele>
        <time>2016-05-15T11:43:35Z</time>
      </trkpt>
      <trkpt lat="43.86401" lon="6.75942">
        <ele>996.7</ele>
        <time>2016-05-15T11:43:37Z</time>
      </trkpt>
      <trkpt lat="43.86398" lon="6.75956">
        <ele>995.8</ele>
        <time>2016-05-15T11:43:40Z</time>
      </trkpt>
      <trkpt lat="43.86394" lon="6.75972">
        <ele>995.1</ele>
        <time>2016-05-15T11:43:42Z</time>
      </trkpt>
      <trkpt lat="43.86388" lon="6.7599">
        <ele>993.9</ele>
        <time>2016-05-15T11:43:44Z</time>
      </trkpt>
      <trkpt lat="43.86382" lon="6.76006">
        <ele>992.8</ele>
        <time>2016-05-15T11:43:46Z</time>
      </trkpt>
      <trkpt lat="43.86373" lon="6.76026">
        <ele>991.7</ele>
        <time>2016-05-15T11:43:48Z</time>
      </trkpt>
      <trkpt lat="43.86368" lon="6.76037">
        <ele>991.2</ele>
        <time>2016-05-15T11:43:49Z</time>
      </trkpt>
      <trkpt lat="43.8636" lon="6.76055">
        <ele>990</ele>
        <time>2016-05-15T11:43:51Z</time>
      </trkpt>
      <trkpt lat="43.86354" lon="6.76066">
        <ele>988.8</ele>
        <time>2016-05-15T11:43:53Z</time>
      </trkpt>
      <trkpt lat="43.86348" lon="6.76075">
        <ele>987.8</ele>
        <time>2016-05-15T11:43:55Z</time>
      </trkpt>
      <trkpt lat="43.86341" lon="6.76087">
        <ele>986</ele>
        <time>2016-05-15T11:43:59Z</time>
      </trkpt>
      <trkpt lat="43.86333" lon="6.76099">
        <ele>985</ele>
        <time>2016-05-15T11:44:02Z</time>
      </trkpt>
      <trkpt lat="43.86328" lon="6.7611">
        <ele>983.6</ele>
        <time>2016-05-15T11:44:06Z</time>
      </trkpt>
      <trkpt lat="43.86324" lon="6.76121">
        <ele>982.6</ele>
        <time>2016-05-15T11:44:09Z</time>
      </trkpt>
      <trkpt lat="43.86316" lon="6.76136">
        <ele>981.6</ele>
        <time>2016-05-15T11:44:12Z</time>
      </trkpt>
      <trkpt lat="43.86311" lon="6.76148">
        <ele>981</ele>
        <time>2016-05-15T11:44:14Z</time>
      </trkpt>
      <trkpt lat="43.86305" lon="6.76159">
        <ele>980.2</ele>
        <time>2016-05-15T11:44:17Z</time>
      </trkpt>
      <trkpt lat="43.86299" lon="6.7617">
        <ele>979.5</ele>
        <time>2016-05-15T11:44:20Z</time>
      </trkpt>
      <trkpt lat="43.86293" lon="6.7618">
        <ele>978.8</ele>
        <time>2016-05-15T11:44:24Z</time>
      </trkpt>
      <trkpt lat="43.86285" lon="6.76194">
        <ele>978.4</ele>
        <time>2016-05-15T11:44:28Z</time>
      </trkpt>
      <trkpt lat="43.86277" lon="6.76205">
        <ele>978.2</ele>
        <time>2016-05-15T11:44:32Z</time>
      </trkpt>
      <trkpt lat="43.86267" lon="6.76212">
        <ele>978.1</ele>
        <time>2016-05-15T11:44:36Z</time>
      </trkpt>
      <trkpt lat="43.86259" lon="6.76219">
        <ele>978.1</ele>
        <time>2016-05-15T11:44:39Z</time>
      </trkpt>
      <trkpt lat="43.8625" lon="6.76227">
        <ele>978.1</ele>
        <time>2016-05-15T11:44:43Z</time>
      </trkpt>
      <trkpt lat="43.86241" lon="6.76232">
        <ele>978.1</ele>
        <time>2016-05-15T11:44:46Z</time>
      </trkpt>
      <trkpt lat="43.86232" lon="6.76238">
        <ele>978.1</ele>
        <time>2016-05-15T11:44:50Z</time>
      </trkpt>
      <trkpt lat="43.86221" lon="6.76245">
        <ele>978.2</ele>
        <time>2016-05-15T11:44:54Z</time>
      </trkpt>
      <trkpt lat="43.86211" lon="6.76249">
        <ele>978.1</ele>
        <time>2016-05-15T11:44:57Z</time>
      </trkpt>
      <trkpt lat="43.86201" lon="6.76253">
        <ele>977.9</ele>
        <time>2016-05-15T11:45:00Z</time>
      </trkpt>
      <trkpt lat="43.86193" lon="6.76261">
        <ele>977.8</ele>
        <time>2016-05-15T11:45:03Z</time>
      </trkpt>
      <trkpt lat="43.86184" lon="6.76264">
        <ele>977.8</ele>
        <time>2016-05-15T11:45:07Z</time>
      </trkpt>
      <trkpt lat="43.86174" lon="6.76269">
        <ele>978.1</ele>
        <time>2016-05-15T11:45:12Z</time>
      </trkpt>
      <trkpt lat="43.86167" lon="6.76278">
        <ele>978.7</ele>
        <time>2016-05-15T11:45:25Z</time>
      </trkpt>
      <trkpt lat="43.86159" lon="6.76286">
        <ele>979.3</ele>
        <time>2016-05-15T11:45:41Z</time>
      </trkpt>
      <trkpt lat="43.86156" lon="6.76298">
        <ele>979.5</ele>
        <time>2016-05-15T11:46:17Z</time>
      </trkpt>
      <trkpt lat="43.86147" lon="6.76306">
        <ele>979.7</ele>
        <time>2016-05-15T11:46:37Z</time>
      </trkpt>
      <trkpt lat="43.86137" lon="6.76311">
        <ele>979.8</ele>
        <time>2016-05-15T11:46:41Z</time>
      </trkpt>
      <trkpt lat="43.86128" lon="6.76314">
        <ele>979.8</ele>
        <time>2016-05-15T11:46:44Z</time>
      </trkpt>
      <trkpt lat="43.86118" lon="6.76319">
        <ele>979.6</ele>
        <time>2016-05-15T11:46:48Z</time>
      </trkpt>
      <trkpt lat="43.8611" lon="6.7633">
        <ele>979.1</ele>
        <time>2016-05-15T11:46:53Z</time>
      </trkpt>
      <trkpt lat="43.86102" lon="6.76339">
        <ele>978.8</ele>
        <time>2016-05-15T11:46:56Z</time>
      </trkpt>
      <trkpt lat="43.86094" lon="6.76349">
        <ele>978.6</ele>
        <time>2016-05-15T11:46:59Z</time>
      </trkpt>
      <trkpt lat="43.8609" lon="6.76362">
        <ele>978.3</ele>
        <time>2016-05-15T11:47:01Z</time>
      </trkpt>
      <trkpt lat="43.86085" lon="6.76376">
        <ele>977.8</ele>
        <time>2016-05-15T11:47:04Z</time>
      </trkpt>
      <trkpt lat="43.86083" lon="6.76392">
        <ele>977</ele>
        <time>2016-05-15T11:47:07Z</time>
      </trkpt>
      <trkpt lat="43.86081" lon="6.76405">
        <ele>975.4</ele>
        <time>2016-05-15T11:47:14Z</time>
      </trkpt>
      <trkpt lat="43.86082" lon="6.76422">
        <ele>974.3</ele>
        <time>2016-05-15T11:47:18Z</time>
      </trkpt>
      <trkpt lat="43.86078" lon="6.76433">
        <ele>972.6</ele>
        <time>2016-05-15T11:47:28Z</time>
      </trkpt>
      <trkpt lat="43.86078" lon="6.76447">
        <ele>971.6</ele>
        <time>2016-05-15T11:47:40Z</time>
      </trkpt>
      <trkpt lat="43.86076" lon="6.76459">
        <ele>971.2</ele>
        <time>2016-05-15T11:47:49Z</time>
      </trkpt>
      <trkpt lat="43.86077" lon="6.76475">
        <ele>971.2</ele>
        <time>2016-05-15T11:47:53Z</time>
      </trkpt>
      <trkpt lat="43.86079" lon="6.7649">
        <ele>971.3</ele>
        <time>2016-05-15T11:47:57Z</time>
      </trkpt>
      <trkpt lat="43.86083" lon="6.76504">
        <ele>971.3</ele>
        <time>2016-05-15T11:48:01Z</time>
      </trkpt>
      <trkpt lat="43.86089" lon="6.76516">
        <ele>971.5</ele>
        <time>2016-05-15T11:48:05Z</time>
      </trkpt>
      <trkpt lat="43.86093" lon="6.76527">
        <ele>971.5</ele>
        <time>2016-05-15T11:48:08Z</time>
      </trkpt>
      <trkpt lat="43.86094" lon="6.76542">
        <ele>971.6</ele>
        <time>2016-05-15T11:48:12Z</time>
      </trkpt>
      <trkpt lat="43.86097" lon="6.76557">
        <ele>971.7</ele>
        <time>2016-05-15T11:48:16Z</time>
      </trkpt>
      <trkpt lat="43.86097" lon="6.7657">
        <ele>971.9</ele>
        <time>2016-05-15T11:48:21Z</time>
      </trkpt>
      <trkpt lat="43.86103" lon="6.76584">
        <ele>972.2</ele>
        <time>2016-05-15T11:48:26Z</time>
      </trkpt>
      <trkpt lat="43.86104" lon="6.76597">
        <ele>972.4</ele>
        <time>2016-05-15T11:48:30Z</time>
      </trkpt>
      <trkpt lat="43.86106" lon="6.76612">
        <ele>972.5</ele>
        <time>2016-05-15T11:48:35Z</time>
      </trkpt>
      <trkpt lat="43.86106" lon="6.76624">
        <ele>973.4</ele>
        <time>2016-05-15T11:48:48Z</time>
      </trkpt>
      <trkpt lat="43.86104" lon="6.76637">
        <ele>974.8</ele>
        <time>2016-05-15T11:49:00Z</time>
      </trkpt>
      <trkpt lat="43.86103" lon="6.7665">
        <ele>975.6</ele>
        <time>2016-05-15T11:49:11Z</time>
      </trkpt>
      <trkpt lat="43.86107" lon="6.76662">
        <ele>976.1</ele>
        <time>2016-05-15T11:49:17Z</time>
      </trkpt>
      <trkpt lat="43.86108" lon="6.76676">
        <ele>976.4</ele>
        <time>2016-05-15T11:49:21Z</time>
      </trkpt>
      <trkpt lat="43.86109" lon="6.76691">
        <ele>976.9</ele>
        <time>2016-05-15T11:49:27Z</time>
      </trkpt>
      <trkpt lat="43.86109" lon="6.76704">
        <ele>977.2</ele>
        <time>2016-05-15T11:49:31Z</time>
      </trkpt>
      <trkpt lat="43.86108" lon="6.7672">
        <ele>977.4</ele>
        <time>2016-05-15T11:49:35Z</time>
      </trkpt>
      <trkpt lat="43.86108" lon="6.76734">
        <ele>977.6</ele>
        <time>2016-05-15T11:49:39Z</time>
      </trkpt>
      <trkpt lat="43.86108" lon="6.76751">
        <ele>977.8</ele>
        <time>2016-05-15T11:49:43Z</time>
      </trkpt>
      <trkpt lat="43.86102" lon="6.76762">
        <ele>977.9</ele>
        <time>2016-05-15T11:49:47Z</time>
      </trkpt>
      <trkpt lat="43.86096" lon="6.76773">
        <ele>978</ele>
        <time>2016-05-15T11:49:51Z</time>
      </trkpt>
      <trkpt lat="43.86092" lon="6.76786">
        <ele>978.2</ele>
        <time>2016-05-15T11:49:56Z</time>
      </trkpt>
      <trkpt lat="43.86088" lon="6.76801">
        <ele>978.4</ele>
        <time>2016-05-15T11:50:01Z</time>
      </trkpt>
      <trkpt lat="43.86085" lon="6.76813">
        <ele>978.7</ele>
        <time>2016-05-15T11:50:05Z</time>
      </trkpt>
      <trkpt lat="43.86082" lon="6.76825">
        <ele>979.1</ele>
        <time>2016-05-15T11:50:09Z</time>
      </trkpt>
      <trkpt lat="43.8608" lon="6.76837">
        <ele>979.5</ele>
        <time>2016-05-15T11:50:14Z</time>
      </trkpt>
      <trkpt lat="43.86077" lon="6.7685">
        <ele>980.2</ele>
        <time>2016-05-15T11:50:20Z</time>
      </trkpt>
      <trkpt lat="43.86076" lon="6.76863">
        <ele>980.7</ele>
        <time>2016-05-15T11:50:25Z</time>
      </trkpt>
      <trkpt lat="43.86074" lon="6.76875">
        <ele>981</ele>
        <time>2016-05-15T11:50:29Z</time>
      </trkpt>
      <trkpt lat="43.86077" lon="6.7689">
        <ele>981.4</ele>
        <time>2016-05-15T11:50:34Z</time>
      </trkpt>
      <trkpt lat="43.86075" lon="6.76904">
        <ele>981.9</ele>
        <time>2016-05-15T11:50:39Z</time>
      </trkpt>
      <trkpt lat="43.86075" lon="6.76917">
        <ele>982.5</ele>
        <time>2016-05-15T11:50:44Z</time>
      </trkpt>
      <trkpt lat="43.8607" lon="6.76929">
        <ele>983.1</ele>
        <time>2016-05-15T11:50:49Z</time>
      </trkpt>
      <trkpt lat="43.86074" lon="6.76943">
        <ele>983.6</ele>
        <time>2016-05-15T11:50:54Z</time>
      </trkpt>
      <trkpt lat="43.86073" lon="6.76959">
        <ele>984</ele>
        <time>2016-05-15T11:50:59Z</time>
      </trkpt>
      <trkpt lat="43.86069" lon="6.76971">
        <ele>984.3</ele>
        <time>2016-05-15T11:51:03Z</time>
      </trkpt>
      <trkpt lat="43.8607" lon="6.76983">
        <ele>985</ele>
        <time>2016-05-15T11:51:08Z</time>
      </trkpt>
      <trkpt lat="43.8607" lon="6.76996">
        <ele>985.5</ele>
        <time>2016-05-15T11:51:13Z</time>
      </trkpt>
      <trkpt lat="43.86076" lon="6.77007">
        <ele>986.8</ele>
        <time>2016-05-15T11:51:27Z</time>
      </trkpt>
      <trkpt lat="43.86082" lon="6.77019">
        <ele>988.5</ele>
        <time>2016-05-15T11:52:47Z</time>
      </trkpt>
      <trkpt lat="43.86084" lon="6.77033">
        <ele>988.4</ele>
        <time>2016-05-15T11:52:52Z</time>
      </trkpt>
      <trkpt lat="43.86081" lon="6.77049">
        <ele>988.2</ele>
        <time>2016-05-15T11:52:55Z</time>
      </trkpt>
      <trkpt lat="43.8608" lon="6.77063">
        <ele>988</ele>
        <time>2016-05-15T11:52:58Z</time>
      </trkpt>
      <trkpt lat="43.86076" lon="6.77079">
        <ele>987.6</ele>
        <time>2016-05-15T11:53:01Z</time>
      </trkpt>
      <trkpt lat="43.86075" lon="6.77095">
        <ele>987.3</ele>
        <time>2016-05-15T11:53:03Z</time>
      </trkpt>
      <trkpt lat="43.86074" lon="6.77112">
        <ele>986.8</ele>
        <time>2016-05-15T11:53:05Z</time>
      </trkpt>
      <trkpt lat="43.86071" lon="6.77126">
        <ele>986.1</ele>
        <time>2016-05-15T11:53:07Z</time>
      </trkpt>
      <trkpt lat="43.86071" lon="6.77142">
        <ele>985.4</ele>
        <time>2016-05-15T11:53:09Z</time>
      </trkpt>
      <trkpt lat="43.86073" lon="6.77155">
        <ele>984.9</ele>
        <time>2016-05-15T11:53:11Z</time>
      </trkpt>
      <trkpt lat="43.86075" lon="6.77173">
        <ele>984.2</ele>
        <time>2016-05-15T11:53:14Z</time>
      </trkpt>
      <trkpt lat="43.86072" lon="6.77187">
        <ele>983.9</ele>
        <time>2016-05-15T11:53:16Z</time>
      </trkpt>
      <trkpt lat="43.8607" lon="6.77202">
        <ele>983.6</ele>
        <time>2016-05-15T11:53:18Z</time>
      </trkpt>
      <trkpt lat="43.86068" lon="6.77218">
        <ele>983.5</ele>
        <time>2016-05-15T11:53:21Z</time>
      </trkpt>
      <trkpt lat="43.8607" lon="6.77231">
        <ele>983.4</ele>
        <time>2016-05-15T11:53:23Z</time>
      </trkpt>
      <trkpt lat="43.8607" lon="6.77244">
        <ele>983.2</ele>
        <time>2016-05-15T11:53:25Z</time>
      </trkpt>
      <trkpt lat="43.86068" lon="6.77259">
        <ele>983</ele>
        <time>2016-05-15T11:53:27Z</time>
      </trkpt>
      <trkpt lat="43.86069" lon="6.77276">
        <ele>982.8</ele>
        <time>2016-05-15T11:53:30Z</time>
      </trkpt>
      <trkpt lat="43.86067" lon="6.7729">
        <ele>982.7</ele>
        <time>2016-05-15T11:53:32Z</time>
      </trkpt>
      <trkpt lat="43.86068" lon="6.77302">
        <ele>982.4</ele>
        <time>2016-05-15T11:53:41Z</time>
      </trkpt>
      <trkpt lat="43.86073" lon="6.77313">
        <ele>982.1</ele>
        <time>2016-05-15T11:54:00Z</time>
      </trkpt>
      <trkpt lat="43.86068" lon="6.77325">
        <ele>982.7</ele>
        <time>2016-05-15T11:54:11Z</time>
      </trkpt>
      <trkpt lat="43.86067" lon="6.77339">
        <ele>983.6</ele>
        <time>2016-05-15T11:54:28Z</time>
      </trkpt>
      <trkpt lat="43.8607" lon="6.7735">
        <ele>983.5</ele>
        <time>2016-05-15T11:54:31Z</time>
      </trkpt>
      <trkpt lat="43.86074" lon="6.77369">
        <ele>983.3</ele>
        <time>2016-05-15T11:54:35Z</time>
      </trkpt>
      <trkpt lat="43.86071" lon="6.77385">
        <ele>982.9</ele>
        <time>2016-05-15T11:54:38Z</time>
      </trkpt>
      <trkpt lat="43.86071" lon="6.77401">
        <ele>982.2</ele>
        <time>2016-05-15T11:54:43Z</time>
      </trkpt>
      <trkpt lat="43.86073" lon="6.77418">
        <ele>982</ele>
        <time>2016-05-15T11:54:46Z</time>
      </trkpt>
      <trkpt lat="43.86073" lon="6.77431">
        <ele>981.7</ele>
        <time>2016-05-15T11:54:48Z</time>
      </trkpt>
      <trkpt lat="43.8607" lon="6.77449">
        <ele>981.3</ele>
        <time>2016-05-15T11:54:51Z</time>
      </trkpt>
      <trkpt lat="43.86066" lon="6.77465">
        <ele>981</ele>
        <time>2016-05-15T11:54:54Z</time>
      </trkpt>
      <trkpt lat="43.86067" lon="6.7748">
        <ele>980.8</ele>
        <time>2016-05-15T11:54:57Z</time>
      </trkpt>
      <trkpt lat="43.86067" lon="6.77494">
        <ele>980.6</ele>
        <time>2016-05-15T11:54:59Z</time>
      </trkpt>
      <trkpt lat="43.86067" lon="6.77514">
        <ele>980.2</ele>
        <time>2016-05-15T11:55:02Z</time>
      </trkpt>
      <trkpt lat="43.86067" lon="6.77529">
        <ele>979.6</ele>
        <time>2016-05-15T11:55:06Z</time>
      </trkpt>
      <trkpt lat="43.86066" lon="6.77543">
        <ele>979.2</ele>
        <time>2016-05-15T11:55:10Z</time>
      </trkpt>
      <trkpt lat="43.86063" lon="6.77559">
        <ele>979</ele>
        <time>2016-05-15T11:55:14Z</time>
      </trkpt>
      <trkpt lat="43.86064" lon="6.77573">
        <ele>978.9</ele>
        <time>2016-05-15T11:55:20Z</time>
      </trkpt>
      <trkpt lat="43.86063" lon="6.7759">
        <ele>979.2</ele>
        <time>2016-05-15T11:55:24Z</time>
      </trkpt>
      <trkpt lat="43.86061" lon="6.77602">
        <ele>979.4</ele>
        <time>2016-05-15T11:55:29Z</time>
      </trkpt>
      <trkpt lat="43.8606" lon="6.77618">
        <ele>979.6</ele>
        <time>2016-05-15T11:55:34Z</time>
      </trkpt>
      <trkpt lat="43.86061" lon="6.77633">
        <ele>979.7</ele>
        <time>2016-05-15T11:55:37Z</time>
      </trkpt>
      <trkpt lat="43.86061" lon="6.77646">
        <ele>979.8</ele>
        <time>2016-05-15T11:55:39Z</time>
      </trkpt>
      <trkpt lat="43.8606" lon="6.77658">
        <ele>979.7</ele>
        <time>2016-05-15T11:55:41Z</time>
      </trkpt>
      <trkpt lat="43.86059" lon="6.77673">
        <ele>979.6</ele>
        <time>2016-05-15T11:55:45Z</time>
      </trkpt>
      <trkpt lat="43.86056" lon="6.77685">
        <ele>979.1</ele>
        <time>2016-05-15T11:56:02Z</time>
      </trkpt>
      <trkpt lat="43.8606" lon="6.77699">
        <ele>978.4</ele>
        <time>2016-05-15T11:57:19Z</time>
      </trkpt>
      <trkpt lat="43.86062" lon="6.77714">
        <ele>977.8</ele>
        <time>2016-05-15T11:57:22Z</time>
      </trkpt>
      <trkpt lat="43.86063" lon="6.77728">
        <ele>976.9</ele>
        <time>2016-05-15T11:57:25Z</time>
      </trkpt>
      <trkpt lat="43.86066" lon="6.77743">
        <ele>974.9</ele>
        <time>2016-05-15T11:57:29Z</time>
      </trkpt>
      <trkpt lat="43.86069" lon="6.77757">
        <ele>972.8</ele>
        <time>2016-05-15T11:57:33Z</time>
      </trkpt>
      <trkpt lat="43.8607" lon="6.77771">
        <ele>970.5</ele>
        <time>2016-05-15T11:57:38Z</time>
      </trkpt>
      <trkpt lat="43.8607" lon="6.77786">
        <ele>969.3</ele>
        <time>2016-05-15T11:57:41Z</time>
      </trkpt>
      <trkpt lat="43.86073" lon="6.77799">
        <ele>968.6</ele>
        <time>2016-05-15T11:57:43Z</time>
      </trkpt>
      <trkpt lat="43.86076" lon="6.77813">
        <ele>967.7</ele>
        <time>2016-05-15T11:57:45Z</time>
      </trkpt>
      <trkpt lat="43.86078" lon="6.77829">
        <ele>966.5</ele>
        <time>2016-05-15T11:57:47Z</time>
      </trkpt>
      <trkpt lat="43.8608" lon="6.77845">
        <ele>964.8</ele>
        <time>2016-05-15T11:57:50Z</time>
      </trkpt>
      <trkpt lat="43.86082" lon="6.7786">
        <ele>963.4</ele>
        <time>2016-05-15T11:57:53Z</time>
      </trkpt>
      <trkpt lat="43.86085" lon="6.77873">
        <ele>962.1</ele>
        <time>2016-05-15T11:57:56Z</time>
      </trkpt>
      <trkpt lat="43.86086" lon="6.7789">
        <ele>960.7</ele>
        <time>2016-05-15T11:57:59Z</time>
      </trkpt>
      <trkpt lat="43.86087" lon="6.77903">
        <ele>959.8</ele>
        <time>2016-05-15T11:58:01Z</time>
      </trkpt>
      <trkpt lat="43.86089" lon="6.77917">
        <ele>958.8</ele>
        <time>2016-05-15T11:58:03Z</time>
      </trkpt>
      <trkpt lat="43.86089" lon="6.7793">
        <ele>957.8</ele>
        <time>2016-05-15T11:58:05Z</time>
      </trkpt>
      <trkpt lat="43.86089" lon="6.77945">
        <ele>956.9</ele>
        <time>2016-05-15T11:58:07Z</time>
      </trkpt>
      <trkpt lat="43.86091" lon="6.77964">
        <ele>955.8</ele>
        <time>2016-05-15T11:58:10Z</time>
      </trkpt>
      <trkpt lat="43.86091" lon="6.7798">
        <ele>954.6</ele>
        <time>2016-05-15T11:58:13Z</time>
      </trkpt>
      <trkpt lat="43.86091" lon="6.77998">
        <ele>952.5</ele>
        <time>2016-05-15T11:58:18Z</time>
      </trkpt>
      <trkpt lat="43.86092" lon="6.78017">
        <ele>951</ele>
        <time>2016-05-15T11:58:21Z</time>
      </trkpt>
      <trkpt lat="43.86094" lon="6.7803">
        <ele>950.2</ele>
        <time>2016-05-15T11:58:23Z</time>
      </trkpt>
      <trkpt lat="43.86095" lon="6.78043">
        <ele>949.3</ele>
        <time>2016-05-15T11:58:25Z</time>
      </trkpt>
      <trkpt lat="43.86096" lon="6.78059">
        <ele>947.8</ele>
        <time>2016-05-15T11:58:28Z</time>
      </trkpt>
      <trkpt lat="43.86098" lon="6.78076">
        <ele>946.4</ele>
        <time>2016-05-15T11:58:31Z</time>
      </trkpt>
      <trkpt lat="43.86101" lon="6.7809">
        <ele>945.4</ele>
        <time>2016-05-15T11:58:33Z</time>
      </trkpt>
      <trkpt lat="43.861" lon="6.78105">
        <ele>943.9</ele>
        <time>2016-05-15T11:58:36Z</time>
      </trkpt>
      <trkpt lat="43.861" lon="6.7812">
        <ele>942.6</ele>
        <time>2016-05-15T11:58:39Z</time>
      </trkpt>
      <trkpt lat="43.86101" lon="6.78137">
        <ele>941.2</ele>
        <time>2016-05-15T11:58:43Z</time>
      </trkpt>
      <trkpt lat="43.86101" lon="6.78151">
        <ele>940.6</ele>
        <time>2016-05-15T11:58:45Z</time>
      </trkpt>
      <trkpt lat="43.861" lon="6.78164">
        <ele>939.8</ele>
        <time>2016-05-15T11:58:47Z</time>
      </trkpt>
      <trkpt lat="43.86099" lon="6.78177">
        <ele>939.1</ele>
        <time>2016-05-15T11:58:49Z</time>
      </trkpt>
      <trkpt lat="43.86099" lon="6.7819">
        <ele>938.5</ele>
        <time>2016-05-15T11:58:51Z</time>
      </trkpt>
      <trkpt lat="43.86096" lon="6.78206">
        <ele>937.5</ele>
        <time>2016-05-15T11:58:55Z</time>
      </trkpt>
      <trkpt lat="43.86096" lon="6.78222">
        <ele>936.8</ele>
        <time>2016-05-15T11:58:58Z</time>
      </trkpt>
      <trkpt lat="43.861" lon="6.78235">
        <ele>935.3</ele>
        <time>2016-05-15T11:59:08Z</time>
      </trkpt>
      <trkpt lat="43.86104" lon="6.78246">
        <ele>934.7</ele>
        <time>2016-05-15T11:59:16Z</time>
      </trkpt>
      <trkpt lat="43.86103" lon="6.7826">
        <ele>934.3</ele>
        <time>2016-05-15T11:59:25Z</time>
      </trkpt>
      <trkpt lat="43.86105" lon="6.78273">
        <ele>934</ele>
        <time>2016-05-15T11:59:35Z</time>
      </trkpt>
      <trkpt lat="43.86103" lon="6.78285">
        <ele>934.6</ele>
        <time>2016-05-15T11:59:45Z</time>
      </trkpt>
      <trkpt lat="43.86102" lon="6.78298">
        <ele>935.9</ele>
        <time>2016-05-15T11:59:57Z</time>
      </trkpt>
      <trkpt lat="43.86103" lon="6.7831">
        <ele>937.1</ele>
        <time>2016-05-15T12:00:53Z</time>
      </trkpt>
      <trkpt lat="43.86102" lon="6.78324">
        <ele>937.2</ele>
        <time>2016-05-15T12:00:58Z</time>
      </trkpt>
      <trkpt lat="43.86101" lon="6.78337">
        <ele>937.2</ele>
        <time>2016-05-15T12:01:02Z</time>
      </trkpt>
      <trkpt lat="43.86099" lon="6.78351">
        <ele>937.2</ele>
        <time>2016-05-15T12:01:06Z</time>
      </trkpt>
      <trkpt lat="43.86098" lon="6.78364">
        <ele>937.5</ele>
        <time>2016-05-15T12:01:11Z</time>
      </trkpt>
      <trkpt lat="43.86103" lon="6.78378">
        <ele>937.6</ele>
        <time>2016-05-15T12:01:16Z</time>
      </trkpt>
      <trkpt lat="43.86108" lon="6.78396">
        <ele>937.5</ele>
        <time>2016-05-15T12:01:19Z</time>
      </trkpt>
      <trkpt lat="43.86109" lon="6.78411">
        <ele>937.3</ele>
        <time>2016-05-15T12:01:21Z</time>
      </trkpt>
      <trkpt lat="43.86112" lon="6.78427">
        <ele>936.4</ele>
        <time>2016-05-15T12:01:24Z</time>
      </trkpt>
      <trkpt lat="43.86119" lon="6.78444">
        <ele>935.2</ele>
        <time>2016-05-15T12:01:27Z</time>
      </trkpt>
      <trkpt lat="43.86123" lon="6.7846">
        <ele>934.3</ele>
        <time>2016-05-15T12:01:29Z</time>
      </trkpt>
      <trkpt lat="43.86122" lon="6.78474">
        <ele>933</ele>
        <time>2016-05-15T12:01:31Z</time>
      </trkpt>
      <trkpt lat="43.86124" lon="6.78487">
        <ele>931.3</ele>
        <time>2016-05-15T12:01:34Z</time>
      </trkpt>
      <trkpt lat="43.86128" lon="6.78502">
        <ele>929.3</ele>
        <time>2016-05-15T12:01:38Z</time>
      </trkpt>
      <trkpt lat="43.86133" lon="6.78515">
        <ele>927.9</ele>
        <time>2016-05-15T12:01:41Z</time>
      </trkpt>
      <trkpt lat="43.86135" lon="6.78528">
        <ele>926.1</ele>
        <time>2016-05-15T12:01:44Z</time>
      </trkpt>
      <trkpt lat="43.86143" lon="6.78536">
        <ele>920.5</ele>
        <time>2016-05-15T12:01:53Z</time>
      </trkpt>
      <trkpt lat="43.86152" lon="6.78534">
        <ele>911.2</ele>
        <time>2016-05-15T12:02:22Z</time>
      </trkpt>
      <trkpt lat="43.86161" lon="6.78543">
        <ele>907.1</ele>
        <time>2016-05-15T12:02:34Z</time>
      </trkpt>
      <trkpt lat="43.86162" lon="6.78556">
        <ele>905.8</ele>
        <time>2016-05-15T12:02:37Z</time>
      </trkpt>
      <trkpt lat="43.8616" lon="6.78571">
        <ele>904.2</ele>
        <time>2016-05-15T12:02:40Z</time>
      </trkpt>
      <trkpt lat="43.86161" lon="6.78585">
        <ele>902.1</ele>
        <time>2016-05-15T12:02:44Z</time>
      </trkpt>
      <trkpt lat="43.86162" lon="6.78601">
        <ele>900.3</ele>
        <time>2016-05-15T12:02:47Z</time>
      </trkpt>
      <trkpt lat="43.86164" lon="6.78614">
        <ele>898.2</ele>
        <time>2016-05-15T12:02:50Z</time>
      </trkpt>
      <trkpt lat="43.86166" lon="6.78627">
        <ele>895.1</ele>
        <time>2016-05-15T12:02:54Z</time>
      </trkpt>
      <trkpt lat="43.86168" lon="6.78641">
        <ele>891.2</ele>
        <time>2016-05-15T12:02:59Z</time>
      </trkpt>
      <trkpt lat="43.86171" lon="6.78654">
        <ele>887.9</ele>
        <time>2016-05-15T12:03:03Z</time>
      </trkpt>
      <trkpt lat="43.86175" lon="6.78665">
        <ele>885.2</ele>
        <time>2016-05-15T12:03:06Z</time>
      </trkpt>
      <trkpt lat="43.86181" lon="6.78681">
        <ele>882.5</ele>
        <time>2016-05-15T12:03:09Z</time>
      </trkpt>
      <trkpt lat="43.86184" lon="6.78695">
        <ele>879.1</ele>
        <time>2016-05-15T12:03:13Z</time>
      </trkpt>
      <trkpt lat="43.86191" lon="6.78707">
        <ele>874.1</ele>
        <time>2016-05-15T12:03:19Z</time>
      </trkpt>
      <trkpt lat="43.86197" lon="6.78717">
        <ele>869.6</ele>
        <time>2016-05-15T12:03:24Z</time>
      </trkpt>
      <trkpt lat="43.86205" lon="6.78726">
        <ele>865.2</ele>
        <time>2016-05-15T12:03:29Z</time>
      </trkpt>
      <trkpt lat="43.8621" lon="6.78736">
        <ele>860.1</ele>
        <time>2016-05-15T12:03:35Z</time>
      </trkpt>
      <trkpt lat="43.86217" lon="6.78745">
        <ele>855.9</ele>
        <time>2016-05-15T12:03:40Z</time>
      </trkpt>
      <trkpt lat="43.86224" lon="6.78754">
        <ele>852.5</ele>
        <time>2016-05-15T12:03:44Z</time>
      </trkpt>
      <trkpt lat="43.86228" lon="6.78767">
        <ele>848.9</ele>
        <time>2016-05-15T12:03:48Z</time>
      </trkpt>
      <trkpt lat="43.86236" lon="6.78781">
        <ele>846.1</ele>
        <time>2016-05-15T12:03:51Z</time>
      </trkpt>
      <trkpt lat="43.86243" lon="6.78794">
        <ele>843</ele>
        <time>2016-05-15T12:03:54Z</time>
      </trkpt>
      <trkpt lat="43.86253" lon="6.78805">
        <ele>840.1</ele>
        <time>2016-05-15T12:03:57Z</time>
      </trkpt>
      <trkpt lat="43.8626" lon="6.78821">
        <ele>836.9</ele>
        <time>2016-05-15T12:04:00Z</time>
      </trkpt>
      <trkpt lat="43.86266" lon="6.78836">
        <ele>833.7</ele>
        <time>2016-05-15T12:04:03Z</time>
      </trkpt>
      <trkpt lat="43.86271" lon="6.7885">
        <ele>830.3</ele>
        <time>2016-05-15T12:04:06Z</time>
      </trkpt>
      <trkpt lat="43.86275" lon="6.78865">
        <ele>827</ele>
        <time>2016-05-15T12:04:09Z</time>
      </trkpt>
      <trkpt lat="43.8628" lon="6.78878">
        <ele>823.6</ele>
        <time>2016-05-15T12:04:12Z</time>
      </trkpt>
      <trkpt lat="43.86288" lon="6.78888">
        <ele>819.3</ele>
        <time>2016-05-15T12:04:16Z</time>
      </trkpt>
      <trkpt lat="43.86289" lon="6.78903">
        <ele>815.9</ele>
        <time>2016-05-15T12:04:19Z</time>
      </trkpt>
      <trkpt lat="43.86288" lon="6.78916">
        <ele>812.6</ele>
        <time>2016-05-15T12:04:22Z</time>
      </trkpt>
      <trkpt lat="43.86288" lon="6.78929">
        <ele>808.1</ele>
        <time>2016-05-15T12:04:26Z</time>
      </trkpt>
      <trkpt lat="43.8629" lon="6.78945">
        <ele>800.8</ele>
        <time>2016-05-15T12:04:33Z</time>
      </trkpt>
      <trkpt lat="43.86296" lon="6.78958">
        <ele>797.8</ele>
        <time>2016-05-15T12:04:36Z</time>
      </trkpt>
      <trkpt lat="43.86302" lon="6.78973">
        <ele>794.4</ele>
        <time>2016-05-15T12:04:39Z</time>
      </trkpt>
      <trkpt lat="43.86301" lon="6.78989">
        <ele>790.4</ele>
        <time>2016-05-15T12:04:43Z</time>
      </trkpt>
      <trkpt lat="43.86306" lon="6.79006">
        <ele>787.6</ele>
        <time>2016-05-15T12:04:46Z</time>
      </trkpt>
      <trkpt lat="43.86314" lon="6.79012">
        <ele>773.7</ele>
        <time>2016-05-15T12:05:24Z</time>
      </trkpt>
      <trkpt lat="43.86317" lon="6.79027">
        <ele>772.9</ele>
        <time>2016-05-15T12:11:44Z</time>
      </trkpt>
      <trkpt lat="43.86314" lon="6.79039">
        <ele>772.3</ele>
        <time>2016-05-15T12:11:47Z</time>
      </trkpt>
      <trkpt lat="43.86303" lon="6.79039">
        <ele>771</ele>
        <time>2016-05-15T12:11:52Z</time>
      </trkpt>
      <trkpt lat="43.86308" lon="6.79053">
        <ele>768.1</ele>
        <time>2016-05-15T12:12:02Z</time>
      </trkpt>
      <trkpt lat="43.86318" lon="6.79055">
        <ele>766.6</ele>
        <time>2016-05-15T12:12:06Z</time>
      </trkpt>
      <trkpt lat="43.86328" lon="6.7905">
        <ele>765.1</ele>
        <time>2016-05-15T12:12:09Z</time>
      </trkpt>
      <trkpt lat="43.86338" lon="6.79052">
        <ele>758.9</ele>
        <time>2016-05-15T12:12:23Z</time>
      </trkpt>
      <trkpt lat="43.8633" lon="6.7906">
        <ele>754.4</ele>
        <time>2016-05-15T12:13:21Z</time>
      </trkpt>
      <trkpt lat="43.86324" lon="6.7907">
        <ele>754.3</ele>
        <time>2016-05-15T12:13:30Z</time>
      </trkpt>
      <trkpt lat="43.86318" lon="6.79082">
        <ele>754.1</ele>
        <time>2016-05-15T12:13:37Z</time>
      </trkpt>
      <trkpt lat="43.86313" lon="6.79094">
        <ele>752.8</ele>
        <time>2016-05-15T12:13:45Z</time>
      </trkpt>
      <trkpt lat="43.86307" lon="6.79084">
        <ele>751.7</ele>
        <time>2016-05-15T12:13:57Z</time>
      </trkpt>
      <trkpt lat="43.86315" lon="6.79093">
        <ele>750.7</ele>
        <time>2016-05-15T12:14:30Z</time>
      </trkpt>
      <trkpt lat="43.86322" lon="6.79102">
        <ele>750.7</ele>
        <time>2016-05-15T12:14:33Z</time>
      </trkpt>
      <trkpt lat="43.86329" lon="6.7911">
        <ele>750.4</ele>
        <time>2016-05-15T12:14:45Z</time>
      </trkpt>
      <trkpt lat="43.86338" lon="6.79109">
        <ele>750.2</ele>
        <time>2016-05-15T12:15:20Z</time>
      </trkpt>
      <trkpt lat="43.86328" lon="6.79105">
        <ele>750</ele>
        <time>2016-05-15T12:16:29Z</time>
      </trkpt>
      <trkpt lat="43.8632" lon="6.79099">
        <ele>750</ele>
        <time>2016-05-15T12:16:34Z</time>
      </trkpt>
      <trkpt lat="43.86313" lon="6.79092">
        <ele>750</ele>
        <time>2016-05-15T12:16:38Z</time>
      </trkpt>
      <trkpt lat="43.86321" lon="6.79099">
        <ele>750</ele>
        <time>2016-05-15T12:16:48Z</time>
      </trkpt>
      <trkpt lat="43.86313" lon="6.7909">
        <ele>750</ele>
        <time>2016-05-15T12:17:19Z</time>
      </trkpt>
      <trkpt lat="43.86321" lon="6.791">
        <ele>750</ele>
        <time>2016-05-15T12:17:28Z</time>
      </trkpt>
      <trkpt lat="43.86329" lon="6.79105">
        <ele>751</ele>
        <time>2016-05-15T12:17:49Z</time>
      </trkpt>
      <trkpt lat="43.86337" lon="6.79114">
        <ele>753.6</ele>
        <time>2016-05-15T12:18:28Z</time>
      </trkpt>
      <trkpt lat="43.86344" lon="6.79123">
        <ele>755.4</ele>
        <time>2016-05-15T12:18:46Z</time>
      </trkpt>
      <trkpt lat="43.86352" lon="6.7913">
        <ele>756.6</ele>
        <time>2016-05-15T12:18:58Z</time>
      </trkpt>
      <trkpt lat="43.86356" lon="6.79141">
        <ele>759.1</ele>
        <time>2016-05-15T12:19:27Z</time>
      </trkpt>
      <trkpt lat="43.86361" lon="6.79154">
        <ele>759.5</ele>
        <time>2016-05-15T12:19:33Z</time>
      </trkpt>
      <trkpt lat="43.86359" lon="6.79167">
        <ele>759.6</ele>
        <time>2016-05-15T12:19:37Z</time>
      </trkpt>
      <trkpt lat="43.8636" lon="6.79181">
        <ele>759.7</ele>
        <time>2016-05-15T12:19:40Z</time>
      </trkpt>
      <trkpt lat="43.86358" lon="6.79195">
        <ele>759.1</ele>
        <time>2016-05-15T12:19:45Z</time>
      </trkpt>
      <trkpt lat="43.86354" lon="6.79208">
        <ele>758.4</ele>
        <time>2016-05-15T12:19:48Z</time>
      </trkpt>
      <trkpt lat="43.86346" lon="6.79202">
        <ele>756</ele>
        <time>2016-05-15T12:19:55Z</time>
      </trkpt>
      <trkpt lat="43.8634" lon="6.79213">
        <ele>754.5</ele>
        <time>2016-05-15T12:19:59Z</time>
      </trkpt>
      <trkpt lat="43.86338" lon="6.79227">
        <ele>752.8</ele>
        <time>2016-05-15T12:20:05Z</time>
      </trkpt>
      <trkpt lat="43.86337" lon="6.79241">
        <ele>751.2</ele>
        <time>2016-05-15T12:20:13Z</time>
      </trkpt>
      <trkpt lat="43.86338" lon="6.79257">
        <ele>750.5</ele>
        <time>2016-05-15T12:20:19Z</time>
      </trkpt>
      <trkpt lat="43.86338" lon="6.79271">
        <ele>750.1</ele>
        <time>2016-05-15T12:20:23Z</time>
      </trkpt>
      <trkpt lat="43.86337" lon="6.79285">
        <ele>749.7</ele>
        <time>2016-05-15T12:20:27Z</time>
      </trkpt>
      <trkpt lat="43.86338" lon="6.793">
        <ele>749.4</ele>
        <time>2016-05-15T12:20:31Z</time>
      </trkpt>
      <trkpt lat="43.86338" lon="6.79314">
        <ele>749.1</ele>
        <time>2016-05-15T12:20:35Z</time>
      </trkpt>
      <trkpt lat="43.86338" lon="6.7933">
        <ele>748.9</ele>
        <time>2016-05-15T12:20:39Z</time>
      </trkpt>
      <trkpt lat="43.86338" lon="6.79343">
        <ele>748.8</ele>
        <time>2016-05-15T12:20:42Z</time>
      </trkpt>
      <trkpt lat="43.8634" lon="6.79357">
        <ele>748.5</ele>
        <time>2016-05-15T12:20:45Z</time>
      </trkpt>
      <trkpt lat="43.86342" lon="6.79371">
        <ele>748.4</ele>
        <time>2016-05-15T12:20:48Z</time>
      </trkpt>
      <trkpt lat="43.86344" lon="6.79386">
        <ele>748.2</ele>
        <time>2016-05-15T12:20:51Z</time>
      </trkpt>
      <trkpt lat="43.86346" lon="6.79402">
        <ele>748.1</ele>
        <time>2016-05-15T12:20:54Z</time>
      </trkpt>
      <trkpt lat="43.86347" lon="6.79418">
        <ele>748</ele>
        <time>2016-05-15T12:20:57Z</time>
      </trkpt>
      <trkpt lat="43.86347" lon="6.79433">
        <ele>748</ele>
        <time>2016-05-15T12:21:00Z</time>
      </trkpt>
      <trkpt lat="43.86346" lon="6.79449">
        <ele>747.8</ele>
        <time>2016-05-15T12:21:03Z</time>
      </trkpt>
      <trkpt lat="43.86345" lon="6.79465">
        <ele>747.7</ele>
        <time>2016-05-15T12:21:06Z</time>
      </trkpt>
      <trkpt lat="43.86345" lon="6.7948">
        <ele>747.5</ele>
        <time>2016-05-15T12:21:09Z</time>
      </trkpt>
      <trkpt lat="43.86346" lon="6.79495">
        <ele>747.4</ele>
        <time>2016-05-15T12:21:12Z</time>
      </trkpt>
      <trkpt lat="43.86347" lon="6.7951">
        <ele>747.3</ele>
        <time>2016-05-15T12:21:15Z</time>
      </trkpt>
      <trkpt lat="43.8635" lon="6.79524">
        <ele>747.2</ele>
        <time>2016-05-15T12:21:18Z</time>
      </trkpt>
      <trkpt lat="43.86351" lon="6.79537">
        <ele>747.1</ele>
        <time>2016-05-15T12:21:21Z</time>
      </trkpt>
      <trkpt lat="43.86355" lon="6.79551">
        <ele>747.1</ele>
        <time>2016-05-15T12:21:24Z</time>
      </trkpt>
      <trkpt lat="43.8636" lon="6.79563">
        <ele>747.1</ele>
        <time>2016-05-15T12:21:27Z</time>
      </trkpt>
      <trkpt lat="43.86364" lon="6.79575">
        <ele>747.1</ele>
        <time>2016-05-15T12:21:30Z</time>
      </trkpt>
      <trkpt lat="43.86367" lon="6.79589">
        <ele>747.1</ele>
        <time>2016-05-15T12:21:34Z</time>
      </trkpt>
      <trkpt lat="43.86368" lon="6.79602">
        <ele>747.1</ele>
        <time>2016-05-15T12:21:37Z</time>
      </trkpt>
      <trkpt lat="43.86372" lon="6.79618">
        <ele>747.2</ele>
        <time>2016-05-15T12:21:41Z</time>
      </trkpt>
      <trkpt lat="43.86377" lon="6.7963">
        <ele>747.2</ele>
        <time>2016-05-15T12:21:44Z</time>
      </trkpt>
      <trkpt lat="43.86382" lon="6.79642">
        <ele>747.3</ele>
        <time>2016-05-15T12:21:47Z</time>
      </trkpt>
      <trkpt lat="43.86387" lon="6.79654">
        <ele>747.4</ele>
        <time>2016-05-15T12:21:50Z</time>
      </trkpt>
      <trkpt lat="43.86392" lon="6.79667">
        <ele>747.5</ele>
        <time>2016-05-15T12:21:53Z</time>
      </trkpt>
      <trkpt lat="43.86397" lon="6.79679">
        <ele>747.7</ele>
        <time>2016-05-15T12:21:56Z</time>
      </trkpt>
      <trkpt lat="43.864" lon="6.79693">
        <ele>747.8</ele>
        <time>2016-05-15T12:21:59Z</time>
      </trkpt>
      <trkpt lat="43.86401" lon="6.79708">
        <ele>747.9</ele>
        <time>2016-05-15T12:22:02Z</time>
      </trkpt>
      <trkpt lat="43.86401" lon="6.79722">
        <ele>748</ele>
        <time>2016-05-15T12:22:05Z</time>
      </trkpt>
      <trkpt lat="43.86399" lon="6.79737">
        <ele>748</ele>
        <time>2016-05-15T12:22:08Z</time>
      </trkpt>
      <trkpt lat="43.86396" lon="6.7975">
        <ele>748.1</ele>
        <time>2016-05-15T12:22:11Z</time>
      </trkpt>
      <trkpt lat="43.86396" lon="6.79766">
        <ele>748.1</ele>
        <time>2016-05-15T12:22:14Z</time>
      </trkpt>
      <trkpt lat="43.86397" lon="6.79778">
        <ele>748.1</ele>
        <time>2016-05-15T12:22:16Z</time>
      </trkpt>
      <trkpt lat="43.86399" lon="6.79795">
        <ele>748.2</ele>
        <time>2016-05-15T12:22:19Z</time>
      </trkpt>
      <trkpt lat="43.86401" lon="6.79808">
        <ele>748.2</ele>
        <time>2016-05-15T12:22:21Z</time>
      </trkpt>
      <trkpt lat="43.86403" lon="6.7982">
        <ele>748.2</ele>
        <time>2016-05-15T12:22:23Z</time>
      </trkpt>
      <trkpt lat="43.86404" lon="6.79833">
        <ele>748.2</ele>
        <time>2016-05-15T12:22:25Z</time>
      </trkpt>
      <trkpt lat="43.86405" lon="6.79847">
        <ele>748.2</ele>
        <time>2016-05-15T12:22:27Z</time>
      </trkpt>
      <trkpt lat="43.86405" lon="6.79866">
        <ele>748.1</ele>
        <time>2016-05-15T12:22:30Z</time>
      </trkpt>
      <trkpt lat="43.86403" lon="6.7988">
        <ele>748</ele>
        <time>2016-05-15T12:22:32Z</time>
      </trkpt>
      <trkpt lat="43.864" lon="6.79893">
        <ele>747.7</ele>
        <time>2016-05-15T12:22:34Z</time>
      </trkpt>
      <trkpt lat="43.86397" lon="6.79909">
        <ele>747.4</ele>
        <time>2016-05-15T12:22:36Z</time>
      </trkpt>
      <trkpt lat="43.86395" lon="6.79927">
        <ele>747</ele>
        <time>2016-05-15T12:22:38Z</time>
      </trkpt>
      <trkpt lat="43.86393" lon="6.79947">
        <ele>746.6</ele>
        <time>2016-05-15T12:22:40Z</time>
      </trkpt>
      <trkpt lat="43.86396" lon="6.79967">
        <ele>746.2</ele>
        <time>2016-05-15T12:22:42Z</time>
      </trkpt>
      <trkpt lat="43.86401" lon="6.79984">
        <ele>745.6</ele>
        <time>2016-05-15T12:22:44Z</time>
      </trkpt>
      <trkpt lat="43.86406" lon="6.79997">
        <ele>745</ele>
        <time>2016-05-15T12:22:46Z</time>
      </trkpt>
      <trkpt lat="43.86409" lon="6.80011">
        <ele>744.6</ele>
        <time>2016-05-15T12:22:48Z</time>
      </trkpt>
      <trkpt lat="43.86408" lon="6.80026">
        <ele>744.2</ele>
        <time>2016-05-15T12:22:50Z</time>
      </trkpt>
      <trkpt lat="43.86407" lon="6.80042">
        <ele>743.9</ele>
        <time>2016-05-15T12:22:52Z</time>
      </trkpt>
      <trkpt lat="43.86404" lon="6.80058">
        <ele>743.5</ele>
        <time>2016-05-15T12:22:54Z</time>
      </trkpt>
      <trkpt lat="43.86401" lon="6.80074">
        <ele>743.2</ele>
        <time>2016-05-15T12:22:56Z</time>
      </trkpt>
      <trkpt lat="43.864" lon="6.8009">
        <ele>742.8</ele>
        <time>2016-05-15T12:22:58Z</time>
      </trkpt>
      <trkpt lat="43.86402" lon="6.80107">
        <ele>742.4</ele>
        <time>2016-05-15T12:23:00Z</time>
      </trkpt>
      <trkpt lat="43.86407" lon="6.80124">
        <ele>741.9</ele>
        <time>2016-05-15T12:23:02Z</time>
      </trkpt>
      <trkpt lat="43.86413" lon="6.80139">
        <ele>741.3</ele>
        <time>2016-05-15T12:23:04Z</time>
      </trkpt>
      <trkpt lat="43.86419" lon="6.80153">
        <ele>740.9</ele>
        <time>2016-05-15T12:23:06Z</time>
      </trkpt>
      <trkpt lat="43.86425" lon="6.80165">
        <ele>740.5</ele>
        <time>2016-05-15T12:23:08Z</time>
      </trkpt>
      <trkpt lat="43.86431" lon="6.80179">
        <ele>740</ele>
        <time>2016-05-15T12:23:11Z</time>
      </trkpt>
      <trkpt lat="43.86436" lon="6.80191">
        <ele>739.8</ele>
        <time>2016-05-15T12:23:14Z</time>
      </trkpt>
      <trkpt lat="43.86442" lon="6.80203">
        <ele>739.6</ele>
        <time>2016-05-15T12:23:17Z</time>
      </trkpt>
      <trkpt lat="43.86447" lon="6.80214">
        <ele>739.4</ele>
        <time>2016-05-15T12:23:20Z</time>
      </trkpt>
      <trkpt lat="43.86451" lon="6.80227">
        <ele>739.6</ele>
        <time>2016-05-15T12:23:24Z</time>
      </trkpt>
      <trkpt lat="43.86454" lon="6.80241">
        <ele>739.9</ele>
        <time>2016-05-15T12:23:28Z</time>
      </trkpt>
      <trkpt lat="43.86457" lon="6.80253">
        <ele>740.1</ele>
        <time>2016-05-15T12:23:31Z</time>
      </trkpt>
      <trkpt lat="43.86462" lon="6.80267">
        <ele>740.6</ele>
        <time>2016-05-15T12:23:35Z</time>
      </trkpt>
      <trkpt lat="43.86467" lon="6.8028">
        <ele>741</ele>
        <time>2016-05-15T12:23:39Z</time>
      </trkpt>
      <trkpt lat="43.86471" lon="6.80291">
        <ele>741.5</ele>
        <time>2016-05-15T12:23:43Z</time>
      </trkpt>
      <trkpt lat="43.86476" lon="6.80305">
        <ele>742.1</ele>
        <time>2016-05-15T12:23:47Z</time>
      </trkpt>
      <trkpt lat="43.86481" lon="6.80318">
        <ele>742.6</ele>
        <time>2016-05-15T12:23:51Z</time>
      </trkpt>
      <trkpt lat="43.86488" lon="6.80327">
        <ele>743.1</ele>
        <time>2016-05-15T12:23:55Z</time>
      </trkpt>
      <trkpt lat="43.86494" lon="6.80337">
        <ele>744.9</ele>
        <time>2016-05-15T12:24:15Z</time>
      </trkpt>
      <trkpt lat="43.86485" lon="6.80339">
        <ele>745.5</ele>
        <time>2016-05-15T12:24:38Z</time>
      </trkpt>
      <trkpt lat="43.86494" lon="6.80337">
        <ele>745.8</ele>
        <time>2016-05-15T12:25:15Z</time>
      </trkpt>
      <trkpt lat="43.86503" lon="6.80336">
        <ele>745.9</ele>
        <time>2016-05-15T12:25:25Z</time>
      </trkpt>
      <trkpt lat="43.86507" lon="6.80322">
        <ele>746</ele>
        <time>2016-05-15T12:25:30Z</time>
      </trkpt>
      <trkpt lat="43.86518" lon="6.8032">
        <ele>746.5</ele>
        <time>2016-05-15T12:25:35Z</time>
      </trkpt>
      <trkpt lat="43.86527" lon="6.80323">
        <ele>746.9</ele>
        <time>2016-05-15T12:25:39Z</time>
      </trkpt>
      <trkpt lat="43.86536" lon="6.80326">
        <ele>748.8</ele>
        <time>2016-05-15T12:26:55Z</time>
      </trkpt>
      <trkpt lat="43.86528" lon="6.80319">
        <ele>748.8</ele>
        <time>2016-05-15T12:27:48Z</time>
      </trkpt>
      <trkpt lat="43.86519" lon="6.80317">
        <ele>748.8</ele>
        <time>2016-05-15T12:28:25Z</time>
      </trkpt>
      <trkpt lat="43.86512" lon="6.8031">
        <ele>748.8</ele>
        <time>2016-05-15T12:28:52Z</time>
      </trkpt>
      <trkpt lat="43.86524" lon="6.80324">
        <ele>748.8</ele>
        <time>2016-05-15T12:29:21Z</time>
      </trkpt>
      <trkpt lat="43.86515" lon="6.8032">
        <ele>748.7</ele>
        <time>2016-05-15T12:30:05Z</time>
      </trkpt>
      <trkpt lat="43.86505" lon="6.8032">
        <ele>748.6</ele>
        <time>2016-05-15T12:30:09Z</time>
      </trkpt>
      <trkpt lat="43.86501" lon="6.80333">
        <ele>748.3</ele>
        <time>2016-05-15T12:30:14Z</time>
      </trkpt>
      <trkpt lat="43.86498" lon="6.80348">
        <ele>747.9</ele>
        <time>2016-05-15T12:30:19Z</time>
      </trkpt>
      <trkpt lat="43.86495" lon="6.8036">
        <ele>747.4</ele>
        <time>2016-05-15T12:30:23Z</time>
      </trkpt>
      <trkpt lat="43.86491" lon="6.80373">
        <ele>746.8</ele>
        <time>2016-05-15T12:30:27Z</time>
      </trkpt>
      <trkpt lat="43.86486" lon="6.80383">
        <ele>746.3</ele>
        <time>2016-05-15T12:30:30Z</time>
      </trkpt>
      <trkpt lat="43.8648" lon="6.80398">
        <ele>745.7</ele>
        <time>2016-05-15T12:30:34Z</time>
      </trkpt>
      <trkpt lat="43.86476" lon="6.80411">
        <ele>745.2</ele>
        <time>2016-05-15T12:30:37Z</time>
      </trkpt>
      <trkpt lat="43.86472" lon="6.80422">
        <ele>744.7</ele>
        <time>2016-05-15T12:30:40Z</time>
      </trkpt>
      <trkpt lat="43.86468" lon="6.80435">
        <ele>744.3</ele>
        <time>2016-05-15T12:30:43Z</time>
      </trkpt>
      <trkpt lat="43.86465" lon="6.80448">
        <ele>743.9</ele>
        <time>2016-05-15T12:30:46Z</time>
      </trkpt>
      <trkpt lat="43.8646" lon="6.8046">
        <ele>743.5</ele>
        <time>2016-05-15T12:30:49Z</time>
      </trkpt>
      <trkpt lat="43.86456" lon="6.80473">
        <ele>743</ele>
        <time>2016-05-15T12:30:52Z</time>
      </trkpt>
      <trkpt lat="43.86454" lon="6.80487">
        <ele>742.6</ele>
        <time>2016-05-15T12:30:55Z</time>
      </trkpt>
      <trkpt lat="43.8645" lon="6.80502">
        <ele>742.3</ele>
        <time>2016-05-15T12:30:58Z</time>
      </trkpt>
      <trkpt lat="43.86446" lon="6.80518">
        <ele>742</ele>
        <time>2016-05-15T12:31:01Z</time>
      </trkpt>
      <trkpt lat="43.86444" lon="6.80535">
        <ele>741.6</ele>
        <time>2016-05-15T12:31:04Z</time>
      </trkpt>
      <trkpt lat="43.86441" lon="6.80553">
        <ele>741.1</ele>
        <time>2016-05-15T12:31:07Z</time>
      </trkpt>
      <trkpt lat="43.86441" lon="6.80566">
        <ele>740.8</ele>
        <time>2016-05-15T12:31:09Z</time>
      </trkpt>
      <trkpt lat="43.86437" lon="6.80582">
        <ele>740.4</ele>
        <time>2016-05-15T12:31:12Z</time>
      </trkpt>
      <trkpt lat="43.86434" lon="6.80596">
        <ele>740</ele>
        <time>2016-05-15T12:31:15Z</time>
      </trkpt>
      <trkpt lat="43.8643" lon="6.80609">
        <ele>739.7</ele>
        <time>2016-05-15T12:31:18Z</time>
      </trkpt>
      <trkpt lat="43.86427" lon="6.80622">
        <ele>739.4</ele>
        <time>2016-05-15T12:31:21Z</time>
      </trkpt>
      <trkpt lat="43.86422" lon="6.80634">
        <ele>739.1</ele>
        <time>2016-05-15T12:31:24Z</time>
      </trkpt>
      <trkpt lat="43.86418" lon="6.80647">
        <ele>738.9</ele>
        <time>2016-05-15T12:31:27Z</time>
      </trkpt>
      <trkpt lat="43.86414" lon="6.80659">
        <ele>738.7</ele>
        <time>2016-05-15T12:31:30Z</time>
      </trkpt>
      <trkpt lat="43.86411" lon="6.80672">
        <ele>738.5</ele>
        <time>2016-05-15T12:31:33Z</time>
      </trkpt>
      <trkpt lat="43.86407" lon="6.80685">
        <ele>738.2</ele>
        <time>2016-05-15T12:31:36Z</time>
      </trkpt>
      <trkpt lat="43.86401" lon="6.80701">
        <ele>737.9</ele>
        <time>2016-05-15T12:31:39Z</time>
      </trkpt>
      <trkpt lat="43.86394" lon="6.80711">
        <ele>737.6</ele>
        <time>2016-05-15T12:31:41Z</time>
      </trkpt>
      <trkpt lat="43.86388" lon="6.80724">
        <ele>737.3</ele>
        <time>2016-05-15T12:31:43Z</time>
      </trkpt>
      <trkpt lat="43.86378" lon="6.80738">
        <ele>736.6</ele>
        <time>2016-05-15T12:31:46Z</time>
      </trkpt>
      <trkpt lat="43.86369" lon="6.80742">
        <ele>736.1</ele>
        <time>2016-05-15T12:31:48Z</time>
      </trkpt>
      <trkpt lat="43.86361" lon="6.80736">
        <ele>735.3</ele>
        <time>2016-05-15T12:31:50Z</time>
      </trkpt>
      <trkpt lat="43.86352" lon="6.80728">
        <ele>734.3</ele>
        <time>2016-05-15T12:31:53Z</time>
      </trkpt>
      <trkpt lat="43.86343" lon="6.80725">
        <ele>729.4</ele>
        <time>2016-05-15T12:33:01Z</time>
      </trkpt>
      <trkpt lat="43.86342" lon="6.80711">
        <ele>729.5</ele>
        <time>2016-05-15T12:33:43Z</time>
      </trkpt>
      <trkpt lat="43.86338" lon="6.80696">
        <ele>729.5</ele>
        <time>2016-05-15T12:33:47Z</time>
      </trkpt>
      <trkpt lat="43.86335" lon="6.80684">
        <ele>729.6</ele>
        <time>2016-05-15T12:33:51Z</time>
      </trkpt>
      <trkpt lat="43.8633" lon="6.80671">
        <ele>729.6</ele>
        <time>2016-05-15T12:33:55Z</time>
      </trkpt>
      <trkpt lat="43.8632" lon="6.80668">
        <ele>729.7</ele>
        <time>2016-05-15T12:34:00Z</time>
      </trkpt>
      <trkpt lat="43.8631" lon="6.80666">
        <ele>729.8</ele>
        <time>2016-05-15T12:34:05Z</time>
      </trkpt>
      <trkpt lat="43.86301" lon="6.80666">
        <ele>729.9</ele>
        <time>2016-05-15T12:34:10Z</time>
      </trkpt>
      <trkpt lat="43.8629" lon="6.80665">
        <ele>730.2</ele>
        <time>2016-05-15T12:34:15Z</time>
      </trkpt>
      <trkpt lat="43.8628" lon="6.80668">
        <ele>730.7</ele>
        <time>2016-05-15T12:34:21Z</time>
      </trkpt>
      <trkpt lat="43.8627" lon="6.80665">
        <ele>731.4</ele>
        <time>2016-05-15T12:34:27Z</time>
      </trkpt>
      <trkpt lat="43.86263" lon="6.80656">
        <ele>732.3</ele>
        <time>2016-05-15T12:34:35Z</time>
      </trkpt>
      <trkpt lat="43.86256" lon="6.80648">
        <ele>733.3</ele>
        <time>2016-05-15T12:34:42Z</time>
      </trkpt>
      <trkpt lat="43.86258" lon="6.80661">
        <ele>734.7</ele>
        <time>2016-05-15T12:34:51Z</time>
      </trkpt>
      <trkpt lat="43.86257" lon="6.80675">
        <ele>736.3</ele>
        <time>2016-05-15T12:35:16Z</time>
      </trkpt>
      <trkpt lat="43.86253" lon="6.80688">
        <ele>736.4</ele>
        <time>2016-05-15T12:35:21Z</time>
      </trkpt>
      <trkpt lat="43.86248" lon="6.807">
        <ele>736.5</ele>
        <time>2016-05-15T12:35:26Z</time>
      </trkpt>
      <trkpt lat="43.86241" lon="6.80709">
        <ele>736.6</ele>
        <time>2016-05-15T12:35:31Z</time>
      </trkpt>
      <trkpt lat="43.86233" lon="6.80717">
        <ele>736.9</ele>
        <time>2016-05-15T12:35:37Z</time>
      </trkpt>
      <trkpt lat="43.86224" lon="6.80717">
        <ele>737.5</ele>
        <time>2016-05-15T12:35:44Z</time>
      </trkpt>
      <trkpt lat="43.86214" lon="6.80713">
        <ele>737.9</ele>
        <time>2016-05-15T12:35:49Z</time>
      </trkpt>
      <trkpt lat="43.86204" lon="6.80709">
        <ele>738.3</ele>
        <time>2016-05-15T12:35:55Z</time>
      </trkpt>
      <trkpt lat="43.86195" lon="6.80704">
        <ele>739</ele>
        <time>2016-05-15T12:36:02Z</time>
      </trkpt>
      <trkpt lat="43.86187" lon="6.80711">
        <ele>739.7</ele>
        <time>2016-05-15T12:36:10Z</time>
      </trkpt>
      <trkpt lat="43.86191" lon="6.80724">
        <ele>740.1</ele>
        <time>2016-05-15T12:36:15Z</time>
      </trkpt>
      <trkpt lat="43.86193" lon="6.80736">
        <ele>740.4</ele>
        <time>2016-05-15T12:36:21Z</time>
      </trkpt>
      <trkpt lat="43.86189" lon="6.80748">
        <ele>740.8</ele>
        <time>2016-05-15T12:36:27Z</time>
      </trkpt>
      <trkpt lat="43.86184" lon="6.80758">
        <ele>741.7</ele>
        <time>2016-05-15T12:36:35Z</time>
      </trkpt>
      <trkpt lat="43.86175" lon="6.80765">
        <ele>742.9</ele>
        <time>2016-05-15T12:36:43Z</time>
      </trkpt>
      <trkpt lat="43.86165" lon="6.80764">
        <ele>743.7</ele>
        <time>2016-05-15T12:36:49Z</time>
      </trkpt>
      <trkpt lat="43.86155" lon="6.80765">
        <ele>744</ele>
        <time>2016-05-15T12:36:52Z</time>
      </trkpt>
      <trkpt lat="43.86145" lon="6.8077">
        <ele>744.2</ele>
        <time>2016-05-15T12:36:54Z</time>
      </trkpt>
      <trkpt lat="43.86136" lon="6.80782">
        <ele>744.3</ele>
        <time>2016-05-15T12:36:57Z</time>
      </trkpt>
      <trkpt lat="43.86129" lon="6.80792">
        <ele>744.4</ele>
        <time>2016-05-15T12:37:00Z</time>
      </trkpt>
      <trkpt lat="43.86122" lon="6.80802">
        <ele>744.5</ele>
        <time>2016-05-15T12:37:04Z</time>
      </trkpt>
      <trkpt lat="43.86117" lon="6.80812">
        <ele>744.7</ele>
        <time>2016-05-15T12:37:10Z</time>
      </trkpt>
      <trkpt lat="43.86109" lon="6.80822">
        <ele>745.1</ele>
        <time>2016-05-15T12:37:17Z</time>
      </trkpt>
      <trkpt lat="43.86104" lon="6.80832">
        <ele>745.7</ele>
        <time>2016-05-15T12:37:23Z</time>
      </trkpt>
      <trkpt lat="43.86097" lon="6.80842">
        <ele>746.5</ele>
        <time>2016-05-15T12:37:30Z</time>
      </trkpt>
      <trkpt lat="43.8609" lon="6.80852">
        <ele>747.7</ele>
        <time>2016-05-15T12:37:38Z</time>
      </trkpt>
      <trkpt lat="43.86081" lon="6.80858">
        <ele>748.8</ele>
        <time>2016-05-15T12:37:46Z</time>
      </trkpt>
      <trkpt lat="43.86073" lon="6.80867">
        <ele>749.3</ele>
        <time>2016-05-15T12:37:52Z</time>
      </trkpt>
      <trkpt lat="43.86065" lon="6.80874">
        <ele>749.7</ele>
        <time>2016-05-15T12:37:58Z</time>
      </trkpt>
      <trkpt lat="43.86059" lon="6.80883">
        <ele>750.3</ele>
        <time>2016-05-15T12:38:04Z</time>
      </trkpt>
      <trkpt lat="43.86052" lon="6.80893">
        <ele>750.8</ele>
        <time>2016-05-15T12:38:10Z</time>
      </trkpt>
      <trkpt lat="43.86046" lon="6.80902">
        <ele>751.5</ele>
        <time>2016-05-15T12:38:16Z</time>
      </trkpt>
      <trkpt lat="43.86038" lon="6.80909">
        <ele>752.6</ele>
        <time>2016-05-15T12:38:24Z</time>
      </trkpt>
      <trkpt lat="43.86032" lon="6.80919">
        <ele>753.8</ele>
        <time>2016-05-15T12:38:31Z</time>
      </trkpt>
      <trkpt lat="43.86025" lon="6.80928">
        <ele>755.2</ele>
        <time>2016-05-15T12:38:39Z</time>
      </trkpt>
      <trkpt lat="43.86022" lon="6.8094">
        <ele>756.2</ele>
        <time>2016-05-15T12:38:45Z</time>
      </trkpt>
      <trkpt lat="43.86022" lon="6.80952">
        <ele>757.6</ele>
        <time>2016-05-15T12:38:54Z</time>
      </trkpt>
      <trkpt lat="43.86021" lon="6.80965">
        <ele>758.5</ele>
        <time>2016-05-15T12:39:01Z</time>
      </trkpt>
      <trkpt lat="43.86018" lon="6.80978">
        <ele>759.1</ele>
        <time>2016-05-15T12:39:07Z</time>
      </trkpt>
      <trkpt lat="43.86013" lon="6.80988">
        <ele>759.6</ele>
        <time>2016-05-15T12:39:14Z</time>
      </trkpt>
      <trkpt lat="43.8601" lon="6.81002">
        <ele>759.9</ele>
        <time>2016-05-15T12:39:19Z</time>
      </trkpt>
      <trkpt lat="43.86005" lon="6.81013">
        <ele>760.2</ele>
        <time>2016-05-15T12:39:26Z</time>
      </trkpt>
      <trkpt lat="43.86" lon="6.81024">
        <ele>760.8</ele>
        <time>2016-05-15T12:39:33Z</time>
      </trkpt>
      <trkpt lat="43.85996" lon="6.81037">
        <ele>761.9</ele>
        <time>2016-05-15T12:39:42Z</time>
      </trkpt>
      <trkpt lat="43.85992" lon="6.81048">
        <ele>763.1</ele>
        <time>2016-05-15T12:39:50Z</time>
      </trkpt>
      <trkpt lat="43.85985" lon="6.81058">
        <ele>764.3</ele>
        <time>2016-05-15T12:39:58Z</time>
      </trkpt>
      <trkpt lat="43.85982" lon="6.81071">
        <ele>765.7</ele>
        <time>2016-05-15T12:40:06Z</time>
      </trkpt>
      <trkpt lat="43.8598" lon="6.81083">
        <ele>766.9</ele>
        <time>2016-05-15T12:40:13Z</time>
      </trkpt>
      <trkpt lat="43.85977" lon="6.81096">
        <ele>768.2</ele>
        <time>2016-05-15T12:40:20Z</time>
      </trkpt>
      <trkpt lat="43.85976" lon="6.81109">
        <ele>769.4</ele>
        <time>2016-05-15T12:40:27Z</time>
      </trkpt>
      <trkpt lat="43.85973" lon="6.81123">
        <ele>771</ele>
        <time>2016-05-15T12:40:37Z</time>
      </trkpt>
      <trkpt lat="43.85972" lon="6.81136">
        <ele>772</ele>
        <time>2016-05-15T12:40:44Z</time>
      </trkpt>
      <trkpt lat="43.85972" lon="6.81151">
        <ele>772.5</ele>
        <time>2016-05-15T12:40:49Z</time>
      </trkpt>
      <trkpt lat="43.8597" lon="6.81166">
        <ele>772.7</ele>
        <time>2016-05-15T12:40:53Z</time>
      </trkpt>
      <trkpt lat="43.85964" lon="6.81177">
        <ele>772.8</ele>
        <time>2016-05-15T12:40:58Z</time>
      </trkpt>
      <trkpt lat="43.85952" lon="6.81183">
        <ele>772.7</ele>
        <time>2016-05-15T12:41:02Z</time>
      </trkpt>
      <trkpt lat="43.85941" lon="6.8119">
        <ele>772.3</ele>
        <time>2016-05-15T12:41:05Z</time>
      </trkpt>
      <trkpt lat="43.85933" lon="6.81199">
        <ele>771.9</ele>
        <time>2016-05-15T12:41:08Z</time>
      </trkpt>
      <trkpt lat="43.85927" lon="6.81213">
        <ele>771.5</ele>
        <time>2016-05-15T12:41:12Z</time>
      </trkpt>
      <trkpt lat="43.85922" lon="6.81225">
        <ele>771.2</ele>
        <time>2016-05-15T12:41:17Z</time>
      </trkpt>
      <trkpt lat="43.85916" lon="6.81236">
        <ele>770.9</ele>
        <time>2016-05-15T12:41:23Z</time>
      </trkpt>
      <trkpt lat="43.85914" lon="6.81249">
        <ele>770.8</ele>
        <time>2016-05-15T12:41:26Z</time>
      </trkpt>
      <trkpt lat="43.85907" lon="6.81263">
        <ele>770.5</ele>
        <time>2016-05-15T12:41:29Z</time>
      </trkpt>
      <trkpt lat="43.859" lon="6.81273">
        <ele>770.2</ele>
        <time>2016-05-15T12:41:31Z</time>
      </trkpt>
      <trkpt lat="43.85888" lon="6.81279">
        <ele>770</ele>
        <time>2016-05-15T12:41:33Z</time>
      </trkpt>
      <trkpt lat="43.85875" lon="6.81284">
        <ele>769.5</ele>
        <time>2016-05-15T12:41:35Z</time>
      </trkpt>
      <trkpt lat="43.85863" lon="6.81284">
        <ele>768.9</ele>
        <time>2016-05-15T12:41:37Z</time>
      </trkpt>
      <trkpt lat="43.8585" lon="6.81278">
        <ele>768.3</ele>
        <time>2016-05-15T12:41:39Z</time>
      </trkpt>
      <trkpt lat="43.85838" lon="6.81271">
        <ele>767.7</ele>
        <time>2016-05-15T12:41:41Z</time>
      </trkpt>
      <trkpt lat="43.85827" lon="6.81264">
        <ele>767.1</ele>
        <time>2016-05-15T12:41:43Z</time>
      </trkpt>
      <trkpt lat="43.85818" lon="6.81263">
        <ele>766.6</ele>
        <time>2016-05-15T12:41:45Z</time>
      </trkpt>
      <trkpt lat="43.85814" lon="6.81275">
        <ele>765.4</ele>
        <time>2016-05-15T12:41:51Z</time>
      </trkpt>
      <trkpt lat="43.85819" lon="6.81286">
        <ele>764.6</ele>
        <time>2016-05-15T12:41:57Z</time>
      </trkpt>
      <trkpt lat="43.85825" lon="6.81296">
        <ele>764.2</ele>
        <time>2016-05-15T12:42:03Z</time>
      </trkpt>
      <trkpt lat="43.8583" lon="6.81307">
        <ele>764.5</ele>
        <time>2016-05-15T12:42:10Z</time>
      </trkpt>
      <trkpt lat="43.85832" lon="6.81322">
        <ele>765</ele>
        <time>2016-05-15T12:42:17Z</time>
      </trkpt>
      <trkpt lat="43.85829" lon="6.81336">
        <ele>765.5</ele>
        <time>2016-05-15T12:42:23Z</time>
      </trkpt>
      <trkpt lat="43.85827" lon="6.81352">
        <ele>765.8</ele>
        <time>2016-05-15T12:42:27Z</time>
      </trkpt>
      <trkpt lat="43.85828" lon="6.81365">
        <ele>766</ele>
        <time>2016-05-15T12:42:30Z</time>
      </trkpt>
      <trkpt lat="43.85832" lon="6.81379">
        <ele>766.2</ele>
        <time>2016-05-15T12:42:35Z</time>
      </trkpt>
      <trkpt lat="43.85834" lon="6.81393">
        <ele>766.4</ele>
        <time>2016-05-15T12:42:40Z</time>
      </trkpt>
      <trkpt lat="43.85837" lon="6.81407">
        <ele>766.5</ele>
        <time>2016-05-15T12:42:44Z</time>
      </trkpt>
      <trkpt lat="43.85841" lon="6.8142">
        <ele>766.5</ele>
        <time>2016-05-15T12:42:47Z</time>
      </trkpt>
      <trkpt lat="43.85845" lon="6.81437">
        <ele>766.5</ele>
        <time>2016-05-15T12:42:50Z</time>
      </trkpt>
      <trkpt lat="43.85848" lon="6.81453">
        <ele>766.4</ele>
        <time>2016-05-15T12:42:53Z</time>
      </trkpt>
      <trkpt lat="43.85851" lon="6.81466">
        <ele>766.1</ele>
        <time>2016-05-15T12:42:56Z</time>
      </trkpt>
      <trkpt lat="43.85854" lon="6.8148">
        <ele>765.8</ele>
        <time>2016-05-15T12:42:59Z</time>
      </trkpt>
      <trkpt lat="43.85853" lon="6.81496">
        <ele>765.5</ele>
        <time>2016-05-15T12:43:03Z</time>
      </trkpt>
      <trkpt lat="43.8585" lon="6.81508">
        <ele>765.2</ele>
        <time>2016-05-15T12:43:06Z</time>
      </trkpt>
      <trkpt lat="43.85848" lon="6.81522">
        <ele>764.9</ele>
        <time>2016-05-15T12:43:09Z</time>
      </trkpt>
      <trkpt lat="43.85845" lon="6.81537">
        <ele>764.4</ele>
        <time>2016-05-15T12:43:12Z</time>
      </trkpt>
      <trkpt lat="43.85845" lon="6.81551">
        <ele>763.9</ele>
        <time>2016-05-15T12:43:15Z</time>
      </trkpt>
      <trkpt lat="43.85845" lon="6.81566">
        <ele>763.4</ele>
        <time>2016-05-15T12:43:18Z</time>
      </trkpt>
      <trkpt lat="43.85843" lon="6.81579">
        <ele>762.7</ele>
        <time>2016-05-15T12:43:21Z</time>
      </trkpt>
      <trkpt lat="43.85841" lon="6.81592">
        <ele>762.1</ele>
        <time>2016-05-15T12:43:24Z</time>
      </trkpt>
      <trkpt lat="43.85838" lon="6.81607">
        <ele>761.5</ele>
        <time>2016-05-15T12:43:27Z</time>
      </trkpt>
      <trkpt lat="43.85835" lon="6.81622">
        <ele>760.8</ele>
        <time>2016-05-15T12:43:31Z</time>
      </trkpt>
      <trkpt lat="43.85832" lon="6.81636">
        <ele>760.3</ele>
        <time>2016-05-15T12:43:35Z</time>
      </trkpt>
      <trkpt lat="43.85829" lon="6.81648">
        <ele>760</ele>
        <time>2016-05-15T12:43:38Z</time>
      </trkpt>
      <trkpt lat="43.85823" lon="6.81661">
        <ele>759.6</ele>
        <time>2016-05-15T12:43:42Z</time>
      </trkpt>
      <trkpt lat="43.85817" lon="6.81673">
        <ele>759.4</ele>
        <time>2016-05-15T12:43:44Z</time>
      </trkpt>
      <trkpt lat="43.85806" lon="6.81682">
        <ele>758.9</ele>
        <time>2016-05-15T12:43:47Z</time>
      </trkpt>
      <trkpt lat="43.85798" lon="6.81692">
        <ele>758.6</ele>
        <time>2016-05-15T12:43:49Z</time>
      </trkpt>
      <trkpt lat="43.85792" lon="6.81708">
        <ele>758.1</ele>
        <time>2016-05-15T12:43:51Z</time>
      </trkpt>
      <trkpt lat="43.85785" lon="6.81728">
        <ele>757.5</ele>
        <time>2016-05-15T12:43:53Z</time>
      </trkpt>
      <trkpt lat="43.85782" lon="6.81746">
        <ele>756.6</ele>
        <time>2016-05-15T12:43:55Z</time>
      </trkpt>
      <trkpt lat="43.85782" lon="6.81763">
        <ele>755.8</ele>
        <time>2016-05-15T12:43:57Z</time>
      </trkpt>
      <trkpt lat="43.85782" lon="6.81778">
        <ele>755.1</ele>
        <time>2016-05-15T12:43:59Z</time>
      </trkpt>
      <trkpt lat="43.85781" lon="6.81795">
        <ele>754.3</ele>
        <time>2016-05-15T12:44:02Z</time>
      </trkpt>
      <trkpt lat="43.85778" lon="6.81811">
        <ele>753.7</ele>
        <time>2016-05-15T12:44:05Z</time>
      </trkpt>
      <trkpt lat="43.85771" lon="6.81821">
        <ele>753.2</ele>
        <time>2016-05-15T12:44:08Z</time>
      </trkpt>
      <trkpt lat="43.8576" lon="6.81829">
        <ele>752.8</ele>
        <time>2016-05-15T12:44:12Z</time>
      </trkpt>
      <trkpt lat="43.85758" lon="6.81842">
        <ele>752.5</ele>
        <time>2016-05-15T12:44:17Z</time>
      </trkpt>
      <trkpt lat="43.85756" lon="6.81856">
        <ele>752.5</ele>
        <time>2016-05-15T12:44:22Z</time>
      </trkpt>
      <trkpt lat="43.85755" lon="6.8187">
        <ele>753</ele>
        <time>2016-05-15T12:44:28Z</time>
      </trkpt>
      <trkpt lat="43.85753" lon="6.81884">
        <ele>753.7</ele>
        <time>2016-05-15T12:44:34Z</time>
      </trkpt>
      <trkpt lat="43.85751" lon="6.81897">
        <ele>754.4</ele>
        <time>2016-05-15T12:44:40Z</time>
      </trkpt>
      <trkpt lat="43.85749" lon="6.81912">
        <ele>755.4</ele>
        <time>2016-05-15T12:44:47Z</time>
      </trkpt>
      <trkpt lat="43.85749" lon="6.81926">
        <ele>756</ele>
        <time>2016-05-15T12:44:54Z</time>
      </trkpt>
      <trkpt lat="43.85751" lon="6.8194">
        <ele>756.8</ele>
        <time>2016-05-15T12:45:00Z</time>
      </trkpt>
      <trkpt lat="43.85751" lon="6.81953">
        <ele>757.1</ele>
        <time>2016-05-15T12:45:03Z</time>
      </trkpt>
      <trkpt lat="43.85752" lon="6.81966">
        <ele>757.2</ele>
        <time>2016-05-15T12:45:05Z</time>
      </trkpt>
      <trkpt lat="43.85755" lon="6.8198">
        <ele>757.1</ele>
        <time>2016-05-15T12:45:07Z</time>
      </trkpt>
      <trkpt lat="43.85759" lon="6.81994">
        <ele>756.8</ele>
        <time>2016-05-15T12:45:09Z</time>
      </trkpt>
      <trkpt lat="43.85765" lon="6.82012">
        <ele>756.2</ele>
        <time>2016-05-15T12:45:11Z</time>
      </trkpt>
      <trkpt lat="43.8577" lon="6.82031">
        <ele>755.5</ele>
        <time>2016-05-15T12:45:13Z</time>
      </trkpt>
      <trkpt lat="43.85772" lon="6.8205">
        <ele>754.8</ele>
        <time>2016-05-15T12:45:15Z</time>
      </trkpt>
      <trkpt lat="43.85771" lon="6.82066">
        <ele>754.1</ele>
        <time>2016-05-15T12:45:17Z</time>
      </trkpt>
      <trkpt lat="43.8577" lon="6.8208">
        <ele>753.6</ele>
        <time>2016-05-15T12:45:19Z</time>
      </trkpt>
      <trkpt lat="43.8577" lon="6.82096">
        <ele>753.1</ele>
        <time>2016-05-15T12:45:21Z</time>
      </trkpt>
      <trkpt lat="43.85773" lon="6.82109">
        <ele>752.6</ele>
        <time>2016-05-15T12:45:23Z</time>
      </trkpt>
      <trkpt lat="43.85778" lon="6.82123">
        <ele>752</ele>
        <time>2016-05-15T12:45:25Z</time>
      </trkpt>
      <trkpt lat="43.85783" lon="6.82138">
        <ele>751.5</ele>
        <time>2016-05-15T12:45:27Z</time>
      </trkpt>
      <trkpt lat="43.85785" lon="6.82153">
        <ele>751</ele>
        <time>2016-05-15T12:45:29Z</time>
      </trkpt>
      <trkpt lat="43.85786" lon="6.82167">
        <ele>750.5</ele>
        <time>2016-05-15T12:45:31Z</time>
      </trkpt>
      <trkpt lat="43.85786" lon="6.82184">
        <ele>749.9</ele>
        <time>2016-05-15T12:45:34Z</time>
      </trkpt>
      <trkpt lat="43.85784" lon="6.822">
        <ele>749.4</ele>
        <time>2016-05-15T12:45:37Z</time>
      </trkpt>
      <trkpt lat="43.85784" lon="6.82213">
        <ele>749</ele>
        <time>2016-05-15T12:45:40Z</time>
      </trkpt>
      <trkpt lat="43.85781" lon="6.82229">
        <ele>748.5</ele>
        <time>2016-05-15T12:45:44Z</time>
      </trkpt>
      <trkpt lat="43.85778" lon="6.82245">
        <ele>748.1</ele>
        <time>2016-05-15T12:45:47Z</time>
      </trkpt>
      <trkpt lat="43.85773" lon="6.82262">
        <ele>747.5</ele>
        <time>2016-05-15T12:45:50Z</time>
      </trkpt>
      <trkpt lat="43.85771" lon="6.82277">
        <ele>747.1</ele>
        <time>2016-05-15T12:45:52Z</time>
      </trkpt>
      <trkpt lat="43.85768" lon="6.82291">
        <ele>746.6</ele>
        <time>2016-05-15T12:45:54Z</time>
      </trkpt>
      <trkpt lat="43.85765" lon="6.82304">
        <ele>746.1</ele>
        <time>2016-05-15T12:45:56Z</time>
      </trkpt>
      <trkpt lat="43.85764" lon="6.82318">
        <ele>745.6</ele>
        <time>2016-05-15T12:45:58Z</time>
      </trkpt>
      <trkpt lat="43.85766" lon="6.82332">
        <ele>745.2</ele>
        <time>2016-05-15T12:46:00Z</time>
      </trkpt>
      <trkpt lat="43.85767" lon="6.82346">
        <ele>744.7</ele>
        <time>2016-05-15T12:46:03Z</time>
      </trkpt>
      <trkpt lat="43.85773" lon="6.8236">
        <ele>744.1</ele>
        <time>2016-05-15T12:46:08Z</time>
      </trkpt>
      <trkpt lat="43.85777" lon="6.82373">
        <ele>744</ele>
        <time>2016-05-15T12:46:12Z</time>
      </trkpt>
      <trkpt lat="43.85781" lon="6.82384">
        <ele>743.9</ele>
        <time>2016-05-15T12:46:16Z</time>
      </trkpt>
      <trkpt lat="43.85786" lon="6.82396">
        <ele>744</ele>
        <time>2016-05-15T12:46:21Z</time>
      </trkpt>
      <trkpt lat="43.85791" lon="6.82407">
        <ele>744.2</ele>
        <time>2016-05-15T12:46:49Z</time>
      </trkpt>
      <trkpt lat="43.85792" lon="6.82421">
        <ele>744.3</ele>
        <time>2016-05-15T12:46:54Z</time>
      </trkpt>
      <trkpt lat="43.85792" lon="6.82439">
        <ele>744.1</ele>
        <time>2016-05-15T12:46:57Z</time>
      </trkpt>
      <trkpt lat="43.85791" lon="6.82452">
        <ele>743.8</ele>
        <time>2016-05-15T12:46:59Z</time>
      </trkpt>
      <trkpt lat="43.85788" lon="6.82464">
        <ele>743.5</ele>
        <time>2016-05-15T12:47:01Z</time>
      </trkpt>
      <trkpt lat="43.85783" lon="6.82479">
        <ele>743.2</ele>
        <time>2016-05-15T12:47:04Z</time>
      </trkpt>
      <trkpt lat="43.85778" lon="6.82491">
        <ele>742.9</ele>
        <time>2016-05-15T12:47:07Z</time>
      </trkpt>
      <trkpt lat="43.85773" lon="6.82506">
        <ele>742.6</ele>
        <time>2016-05-15T12:47:10Z</time>
      </trkpt>
      <trkpt lat="43.85766" lon="6.82519">
        <ele>742.2</ele>
        <time>2016-05-15T12:47:14Z</time>
      </trkpt>
      <trkpt lat="43.85758" lon="6.82531">
        <ele>741.8</ele>
        <time>2016-05-15T12:47:18Z</time>
      </trkpt>
      <trkpt lat="43.85758" lon="6.82547">
        <ele>741.4</ele>
        <time>2016-05-15T12:47:22Z</time>
      </trkpt>
      <trkpt lat="43.85765" lon="6.82559">
        <ele>741.1</ele>
        <time>2016-05-15T12:47:26Z</time>
      </trkpt>
      <trkpt lat="43.85773" lon="6.8257">
        <ele>740.9</ele>
        <time>2016-05-15T12:47:29Z</time>
      </trkpt>
      <trkpt lat="43.85779" lon="6.82586">
        <ele>740.7</ele>
        <time>2016-05-15T12:47:32Z</time>
      </trkpt>
      <trkpt lat="43.85785" lon="6.82596">
        <ele>740.5</ele>
        <time>2016-05-15T12:47:34Z</time>
      </trkpt>
      <trkpt lat="43.85792" lon="6.82607">
        <ele>740</ele>
        <time>2016-05-15T12:47:36Z</time>
      </trkpt>
      <trkpt lat="43.858" lon="6.82621">
        <ele>739.7</ele>
        <time>2016-05-15T12:47:38Z</time>
      </trkpt>
      <trkpt lat="43.85809" lon="6.82635">
        <ele>739</ele>
        <time>2016-05-15T12:47:40Z</time>
      </trkpt>
      <trkpt lat="43.8582" lon="6.8265">
        <ele>738.3</ele>
        <time>2016-05-15T12:47:42Z</time>
      </trkpt>
      <trkpt lat="43.85832" lon="6.82667">
        <ele>737.6</ele>
        <time>2016-05-15T12:47:44Z</time>
      </trkpt>
      <trkpt lat="43.85842" lon="6.82687">
        <ele>736.9</ele>
        <time>2016-05-15T12:47:46Z</time>
      </trkpt>
      <trkpt lat="43.85848" lon="6.82709">
        <ele>735.9</ele>
        <time>2016-05-15T12:47:48Z</time>
      </trkpt>
      <trkpt lat="43.85853" lon="6.82732">
        <ele>735</ele>
        <time>2016-05-15T12:47:50Z</time>
      </trkpt>
      <trkpt lat="43.85853" lon="6.82747">
        <ele>734.3</ele>
        <time>2016-05-15T12:47:52Z</time>
      </trkpt>
      <trkpt lat="43.85859" lon="6.82758">
        <ele>733.4</ele>
        <time>2016-05-15T12:47:54Z</time>
      </trkpt>
      <trkpt lat="43.85866" lon="6.82769">
        <ele>732.5</ele>
        <time>2016-05-15T12:47:56Z</time>
      </trkpt>
      <trkpt lat="43.85873" lon="6.82787">
        <ele>731.6</ele>
        <time>2016-05-15T12:47:58Z</time>
      </trkpt>
      <trkpt lat="43.85884" lon="6.82807">
        <ele>730.3</ele>
        <time>2016-05-15T12:48:00Z</time>
      </trkpt>
      <trkpt lat="43.85892" lon="6.82818">
        <ele>729.5</ele>
        <time>2016-05-15T12:48:01Z</time>
      </trkpt>
      <trkpt lat="43.859" lon="6.82828">
        <ele>728.8</ele>
        <time>2016-05-15T12:48:02Z</time>
      </trkpt>
      <trkpt lat="43.85909" lon="6.82836">
        <ele>728.1</ele>
        <time>2016-05-15T12:48:03Z</time>
      </trkpt>
      <trkpt lat="43.85917" lon="6.82845">
        <ele>727.5</ele>
        <time>2016-05-15T12:48:04Z</time>
      </trkpt>
      <trkpt lat="43.85925" lon="6.82854">
        <ele>726.4</ele>
        <time>2016-05-15T12:48:05Z</time>
      </trkpt>
      <trkpt lat="43.85938" lon="6.82875">
        <ele>724.7</ele>
        <time>2016-05-15T12:48:07Z</time>
      </trkpt>
      <trkpt lat="43.85948" lon="6.82885">
        <ele>723.7</ele>
        <time>2016-05-15T12:48:08Z</time>
      </trkpt>
      <trkpt lat="43.85955" lon="6.82897">
        <ele>722.8</ele>
        <time>2016-05-15T12:48:09Z</time>
      </trkpt>
      <trkpt lat="43.85962" lon="6.82907">
        <ele>722</ele>
        <time>2016-05-15T12:48:10Z</time>
      </trkpt>
      <trkpt lat="43.85969" lon="6.82919">
        <ele>721</ele>
        <time>2016-05-15T12:48:11Z</time>
      </trkpt>
      <trkpt lat="43.85975" lon="6.82932">
        <ele>720</ele>
        <time>2016-05-15T12:48:12Z</time>
      </trkpt>
      <trkpt lat="43.85981" lon="6.82943">
        <ele>719.1</ele>
        <time>2016-05-15T12:48:13Z</time>
      </trkpt>
      <trkpt lat="43.85988" lon="6.82955">
        <ele>718.3</ele>
        <time>2016-05-15T12:48:14Z</time>
      </trkpt>
      <trkpt lat="43.85993" lon="6.82966">
        <ele>717.5</ele>
        <time>2016-05-15T12:48:15Z</time>
      </trkpt>
      <trkpt lat="43.86003" lon="6.82985">
        <ele>716</ele>
        <time>2016-05-15T12:48:17Z</time>
      </trkpt>
      <trkpt lat="43.86011" lon="6.83002">
        <ele>714.6</ele>
        <time>2016-05-15T12:48:19Z</time>
      </trkpt>
      <trkpt lat="43.8602" lon="6.83018">
        <ele>713.3</ele>
        <time>2016-05-15T12:48:21Z</time>
      </trkpt>
      <trkpt lat="43.86031" lon="6.83031">
        <ele>712.2</ele>
        <time>2016-05-15T12:48:23Z</time>
      </trkpt>
      <trkpt lat="43.86041" lon="6.83044">
        <ele>711.2</ele>
        <time>2016-05-15T12:48:25Z</time>
      </trkpt>
      <trkpt lat="43.86051" lon="6.83058">
        <ele>710.3</ele>
        <time>2016-05-15T12:48:27Z</time>
      </trkpt>
      <trkpt lat="43.86061" lon="6.83075">
        <ele>709.1</ele>
        <time>2016-05-15T12:48:29Z</time>
      </trkpt>
      <trkpt lat="43.86069" lon="6.83083">
        <ele>708.6</ele>
        <time>2016-05-15T12:48:30Z</time>
      </trkpt>
      <trkpt lat="43.8608" lon="6.83096">
        <ele>707.6</ele>
        <time>2016-05-15T12:48:32Z</time>
      </trkpt>
      <trkpt lat="43.86087" lon="6.83111">
        <ele>706.7</ele>
        <time>2016-05-15T12:48:34Z</time>
      </trkpt>
      <trkpt lat="43.86092" lon="6.83124">
        <ele>705.9</ele>
        <time>2016-05-15T12:48:36Z</time>
      </trkpt>
      <trkpt lat="43.86098" lon="6.83135">
        <ele>705.2</ele>
        <time>2016-05-15T12:48:38Z</time>
      </trkpt>
      <trkpt lat="43.86106" lon="6.8315">
        <ele>704.4</ele>
        <time>2016-05-15T12:48:40Z</time>
      </trkpt>
      <trkpt lat="43.86109" lon="6.83167">
        <ele>703.7</ele>
        <time>2016-05-15T12:48:42Z</time>
      </trkpt>
      <trkpt lat="43.8611" lon="6.83183">
        <ele>703</ele>
        <time>2016-05-15T12:48:44Z</time>
      </trkpt>
      <trkpt lat="43.8611" lon="6.83196">
        <ele>702.4</ele>
        <time>2016-05-15T12:48:46Z</time>
      </trkpt>
      <trkpt lat="43.86109" lon="6.83209">
        <ele>701.8</ele>
        <time>2016-05-15T12:48:48Z</time>
      </trkpt>
      <trkpt lat="43.86108" lon="6.83227">
        <ele>701</ele>
        <time>2016-05-15T12:48:51Z</time>
      </trkpt>
      <trkpt lat="43.86108" lon="6.83245">
        <ele>700.4</ele>
        <time>2016-05-15T12:48:54Z</time>
      </trkpt>
      <trkpt lat="43.86108" lon="6.83261">
        <ele>699.9</ele>
        <time>2016-05-15T12:48:57Z</time>
      </trkpt>
      <trkpt lat="43.86107" lon="6.83275">
        <ele>699.5</ele>
        <time>2016-05-15T12:49:00Z</time>
      </trkpt>
      <trkpt lat="43.8611" lon="6.8329">
        <ele>699.1</ele>
        <time>2016-05-15T12:49:03Z</time>
      </trkpt>
      <trkpt lat="43.86112" lon="6.83304">
        <ele>698.8</ele>
        <time>2016-05-15T12:49:06Z</time>
      </trkpt>
      <trkpt lat="43.86117" lon="6.83319">
        <ele>698.4</ele>
        <time>2016-05-15T12:49:09Z</time>
      </trkpt>
      <trkpt lat="43.86123" lon="6.83333">
        <ele>698</ele>
        <time>2016-05-15T12:49:12Z</time>
      </trkpt>
      <trkpt lat="43.86129" lon="6.83348">
        <ele>697.6</ele>
        <time>2016-05-15T12:49:15Z</time>
      </trkpt>
      <trkpt lat="43.86133" lon="6.83363">
        <ele>697.2</ele>
        <time>2016-05-15T12:49:18Z</time>
      </trkpt>
      <trkpt lat="43.86132" lon="6.8338">
        <ele>696.9</ele>
        <time>2016-05-15T12:49:21Z</time>
      </trkpt>
      <trkpt lat="43.86128" lon="6.83395">
        <ele>696.6</ele>
        <time>2016-05-15T12:49:24Z</time>
      </trkpt>
      <trkpt lat="43.86126" lon="6.83409">
        <ele>696.4</ele>
        <time>2016-05-15T12:49:27Z</time>
      </trkpt>
      <trkpt lat="43.86126" lon="6.83421">
        <ele>696.1</ele>
        <time>2016-05-15T12:49:30Z</time>
      </trkpt>
      <trkpt lat="43.86125" lon="6.83434">
        <ele>695.1</ele>
        <time>2016-05-15T12:50:14Z</time>
      </trkpt>
      <trkpt lat="43.86122" lon="6.83446">
        <ele>696.7</ele>
        <time>2016-05-15T12:50:32Z</time>
      </trkpt>
      <trkpt lat="43.86124" lon="6.83459">
        <ele>700.2</ele>
        <time>2016-05-15T12:50:51Z</time>
      </trkpt>
      <trkpt lat="43.86125" lon="6.83471">
        <ele>704.3</ele>
        <time>2016-05-15T12:52:03Z</time>
      </trkpt>
      <trkpt lat="43.86128" lon="6.83483">
        <ele>704.8</ele>
        <time>2016-05-15T12:53:01Z</time>
      </trkpt>
      <trkpt lat="43.86132" lon="6.83496">
        <ele>705</ele>
        <time>2016-05-15T12:53:07Z</time>
      </trkpt>
      <trkpt lat="43.86135" lon="6.83508">
        <ele>705.2</ele>
        <time>2016-05-15T12:53:12Z</time>
      </trkpt>
      <trkpt lat="43.8614" lon="6.8352">
        <ele>705.3</ele>
        <time>2016-05-15T12:53:18Z</time>
      </trkpt>
      <trkpt lat="43.86143" lon="6.83532">
        <ele>705.3</ele>
        <time>2016-05-15T12:53:24Z</time>
      </trkpt>
      <trkpt lat="43.86145" lon="6.83546">
        <ele>705.4</ele>
        <time>2016-05-15T12:53:29Z</time>
      </trkpt>
      <trkpt lat="43.86148" lon="6.8356">
        <ele>705.3</ele>
        <time>2016-05-15T12:53:33Z</time>
      </trkpt>
      <trkpt lat="43.8615" lon="6.83573">
        <ele>705.1</ele>
        <time>2016-05-15T12:53:38Z</time>
      </trkpt>
      <trkpt lat="43.86152" lon="6.83585">
        <ele>705</ele>
        <time>2016-05-15T12:53:47Z</time>
      </trkpt>
      <trkpt lat="43.86152" lon="6.83599">
        <ele>705.9</ele>
        <time>2016-05-15T12:53:58Z</time>
      </trkpt>
      <trkpt lat="43.86155" lon="6.83612">
        <ele>706.9</ele>
        <time>2016-05-15T12:54:07Z</time>
      </trkpt>
      <trkpt lat="43.86155" lon="6.83626">
        <ele>707.3</ele>
        <time>2016-05-15T12:54:12Z</time>
      </trkpt>
      <trkpt lat="43.86153" lon="6.83639">
        <ele>707.3</ele>
        <time>2016-05-15T12:54:16Z</time>
      </trkpt>
      <trkpt lat="43.86148" lon="6.83649">
        <ele>707.9</ele>
        <time>2016-05-15T12:54:27Z</time>
      </trkpt>
      <trkpt lat="43.86151" lon="6.83663">
        <ele>709.1</ele>
        <time>2016-05-15T12:55:12Z</time>
      </trkpt>
      <trkpt lat="43.86156" lon="6.83673">
        <ele>709.1</ele>
        <time>2016-05-15T12:55:16Z</time>
      </trkpt>
      <trkpt lat="43.8616" lon="6.83685">
        <ele>708.5</ele>
        <time>2016-05-15T12:55:21Z</time>
      </trkpt>
      <trkpt lat="43.86163" lon="6.83699">
        <ele>707.5</ele>
        <time>2016-05-15T12:55:29Z</time>
      </trkpt>
      <trkpt lat="43.86167" lon="6.8371">
        <ele>707.1</ele>
        <time>2016-05-15T12:55:38Z</time>
      </trkpt>
      <trkpt lat="43.86171" lon="6.83721">
        <ele>707</ele>
        <time>2016-05-15T12:55:48Z</time>
      </trkpt>
      <trkpt lat="43.86181" lon="6.83727">
        <ele>706.9</ele>
        <time>2016-05-15T12:56:04Z</time>
      </trkpt>
      <trkpt lat="43.86185" lon="6.8374">
        <ele>706.1</ele>
        <time>2016-05-15T12:56:09Z</time>
      </trkpt>
      <trkpt lat="43.86195" lon="6.83742">
        <ele>704.2</ele>
        <time>2016-05-15T12:56:16Z</time>
      </trkpt>
      <trkpt lat="43.86204" lon="6.83747">
        <ele>702.2</ele>
        <time>2016-05-15T12:56:20Z</time>
      </trkpt>
      <trkpt lat="43.8621" lon="6.83757">
        <ele>700.5</ele>
        <time>2016-05-15T12:56:23Z</time>
      </trkpt>
      <trkpt lat="43.86218" lon="6.83765">
        <ele>698</ele>
        <time>2016-05-15T12:56:28Z</time>
      </trkpt>
      <trkpt lat="43.86227" lon="6.83776">
        <ele>696.1</ele>
        <time>2016-05-15T12:56:33Z</time>
      </trkpt>
      <trkpt lat="43.86236" lon="6.83777">
        <ele>690.8</ele>
        <time>2016-05-15T12:56:59Z</time>
      </trkpt>
      <trkpt lat="43.8624" lon="6.8379">
        <ele>689.7</ele>
        <time>2016-05-15T12:57:39Z</time>
      </trkpt>
      <trkpt lat="43.86243" lon="6.83802">
        <ele>689.7</ele>
        <time>2016-05-15T12:57:44Z</time>
      </trkpt>
      <trkpt lat="43.86251" lon="6.83812">
        <ele>689.7</ele>
        <time>2016-05-15T12:57:49Z</time>
      </trkpt>
      <trkpt lat="43.86258" lon="6.83822">
        <ele>689.6</ele>
        <time>2016-05-15T12:57:53Z</time>
      </trkpt>
      <trkpt lat="43.86265" lon="6.83829">
        <ele>689.6</ele>
        <time>2016-05-15T12:57:57Z</time>
      </trkpt>
      <trkpt lat="43.8627" lon="6.83843">
        <ele>689.6</ele>
        <time>2016-05-15T12:58:01Z</time>
      </trkpt>
      <trkpt lat="43.86275" lon="6.83855">
        <ele>689.4</ele>
        <time>2016-05-15T12:58:06Z</time>
      </trkpt>
      <trkpt lat="43.86279" lon="6.83869">
        <ele>689.3</ele>
        <time>2016-05-15T12:58:11Z</time>
      </trkpt>
      <trkpt lat="43.86284" lon="6.83881">
        <ele>689.2</ele>
        <time>2016-05-15T12:58:16Z</time>
      </trkpt>
      <trkpt lat="43.86284" lon="6.83896">
        <ele>689.1</ele>
        <time>2016-05-15T12:58:21Z</time>
      </trkpt>
      <trkpt lat="43.86281" lon="6.8391">
        <ele>689</ele>
        <time>2016-05-15T12:58:27Z</time>
      </trkpt>
      <trkpt lat="43.86279" lon="6.83922">
        <ele>689</ele>
        <time>2016-05-15T12:58:33Z</time>
      </trkpt>
      <trkpt lat="43.86275" lon="6.83933">
        <ele>689.1</ele>
        <time>2016-05-15T12:58:45Z</time>
      </trkpt>
      <trkpt lat="43.86278" lon="6.83948">
        <ele>690</ele>
        <time>2016-05-15T12:58:57Z</time>
      </trkpt>
      <trkpt lat="43.86281" lon="6.83959">
        <ele>690.2</ele>
        <time>2016-05-15T12:59:01Z</time>
      </trkpt>
      <trkpt lat="43.86287" lon="6.83973">
        <ele>690.4</ele>
        <time>2016-05-15T12:59:05Z</time>
      </trkpt>
      <trkpt lat="43.86292" lon="6.83986">
        <ele>690.5</ele>
        <time>2016-05-15T12:59:10Z</time>
      </trkpt>
      <trkpt lat="43.86296" lon="6.83999">
        <ele>690.6</ele>
        <time>2016-05-15T12:59:14Z</time>
      </trkpt>
      <trkpt lat="43.86301" lon="6.84012">
        <ele>690.6</ele>
        <time>2016-05-15T12:59:18Z</time>
      </trkpt>
      <trkpt lat="43.86306" lon="6.84023">
        <ele>690.7</ele>
        <time>2016-05-15T12:59:25Z</time>
      </trkpt>
      <trkpt lat="43.86311" lon="6.84033">
        <ele>690.8</ele>
        <time>2016-05-15T12:59:31Z</time>
      </trkpt>
      <trkpt lat="43.86316" lon="6.84046">
        <ele>690.7</ele>
        <time>2016-05-15T12:59:36Z</time>
      </trkpt>
      <trkpt lat="43.86317" lon="6.84059">
        <ele>690.7</ele>
        <time>2016-05-15T12:59:41Z</time>
      </trkpt>
      <trkpt lat="43.8632" lon="6.84071">
        <ele>690.6</ele>
        <time>2016-05-15T12:59:53Z</time>
      </trkpt>
      <trkpt lat="43.86326" lon="6.84081">
        <ele>690.6</ele>
        <time>2016-05-15T13:00:01Z</time>
      </trkpt>
      <trkpt lat="43.86331" lon="6.84092">
        <ele>690.6</ele>
        <time>2016-05-15T13:00:07Z</time>
      </trkpt>
      <trkpt lat="43.86339" lon="6.84102">
        <ele>690.6</ele>
        <time>2016-05-15T13:00:13Z</time>
      </trkpt>
      <trkpt lat="43.86344" lon="6.84112">
        <ele>690.9</ele>
        <time>2016-05-15T13:00:18Z</time>
      </trkpt>
      <trkpt lat="43.8635" lon="6.84123">
        <ele>691.6</ele>
        <time>2016-05-15T13:00:24Z</time>
      </trkpt>
      <trkpt lat="43.86356" lon="6.84137">
        <ele>691.9</ele>
        <time>2016-05-15T13:00:28Z</time>
      </trkpt>
      <trkpt lat="43.86361" lon="6.8415">
        <ele>692</ele>
        <time>2016-05-15T13:00:31Z</time>
      </trkpt>
      <trkpt lat="43.86367" lon="6.84165">
        <ele>692.1</ele>
        <time>2016-05-15T13:00:35Z</time>
      </trkpt>
      <trkpt lat="43.86375" lon="6.84179">
        <ele>692</ele>
        <time>2016-05-15T13:00:38Z</time>
      </trkpt>
      <trkpt lat="43.86382" lon="6.84189">
        <ele>691.7</ele>
        <time>2016-05-15T13:00:40Z</time>
      </trkpt>
      <trkpt lat="43.86389" lon="6.84203">
        <ele>691.3</ele>
        <time>2016-05-15T13:00:42Z</time>
      </trkpt>
      <trkpt lat="43.86395" lon="6.84214">
        <ele>690.8</ele>
        <time>2016-05-15T13:00:44Z</time>
      </trkpt>
      <trkpt lat="43.864" lon="6.84226">
        <ele>690.3</ele>
        <time>2016-05-15T13:00:46Z</time>
      </trkpt>
      <trkpt lat="43.86406" lon="6.84236">
        <ele>689.7</ele>
        <time>2016-05-15T13:00:49Z</time>
      </trkpt>
      <trkpt lat="43.86412" lon="6.84248">
        <ele>689</ele>
        <time>2016-05-15T13:00:55Z</time>
      </trkpt>
      <trkpt lat="43.86419" lon="6.84256">
        <ele>688.7</ele>
        <time>2016-05-15T13:00:58Z</time>
      </trkpt>
      <trkpt lat="43.86428" lon="6.84266">
        <ele>688.5</ele>
        <time>2016-05-15T13:01:01Z</time>
      </trkpt>
      <trkpt lat="43.86435" lon="6.84276">
        <ele>688.4</ele>
        <time>2016-05-15T13:01:04Z</time>
      </trkpt>
      <trkpt lat="43.8644" lon="6.84286">
        <ele>688.1</ele>
        <time>2016-05-15T13:01:10Z</time>
      </trkpt>
      <trkpt lat="43.86447" lon="6.84296">
        <ele>687.9</ele>
        <time>2016-05-15T13:01:15Z</time>
      </trkpt>
      <trkpt lat="43.86451" lon="6.84307">
        <ele>687.8</ele>
        <time>2016-05-15T13:01:21Z</time>
      </trkpt>
      <trkpt lat="43.86454" lon="6.84321">
        <ele>687.7</ele>
        <time>2016-05-15T13:01:27Z</time>
      </trkpt>
      <trkpt lat="43.86463" lon="6.84332">
        <ele>687.6</ele>
        <time>2016-05-15T13:01:32Z</time>
      </trkpt>
      <trkpt lat="43.86472" lon="6.84341">
        <ele>687.6</ele>
        <time>2016-05-15T13:01:37Z</time>
      </trkpt>
      <trkpt lat="43.86482" lon="6.8435">
        <ele>687.6</ele>
        <time>2016-05-15T13:01:42Z</time>
      </trkpt>
      <trkpt lat="43.86491" lon="6.84353">
        <ele>687.5</ele>
        <time>2016-05-15T13:01:45Z</time>
      </trkpt>
      <trkpt lat="43.86498" lon="6.84362">
        <ele>687.5</ele>
        <time>2016-05-15T13:01:49Z</time>
      </trkpt>
      <trkpt lat="43.86501" lon="6.84374">
        <ele>687.7</ele>
        <time>2016-05-15T13:01:55Z</time>
      </trkpt>
      <trkpt lat="43.86507" lon="6.84386">
        <ele>688.2</ele>
        <time>2016-05-15T13:02:01Z</time>
      </trkpt>
      <trkpt lat="43.86511" lon="6.84397">
        <ele>688.8</ele>
        <time>2016-05-15T13:02:07Z</time>
      </trkpt>
      <trkpt lat="43.86511" lon="6.84412">
        <ele>689.5</ele>
        <time>2016-05-15T13:02:14Z</time>
      </trkpt>
      <trkpt lat="43.86514" lon="6.84424">
        <ele>690.1</ele>
        <time>2016-05-15T13:02:20Z</time>
      </trkpt>
      <trkpt lat="43.86514" lon="6.84437">
        <ele>690.8</ele>
        <time>2016-05-15T13:02:26Z</time>
      </trkpt>
      <trkpt lat="43.86513" lon="6.84449">
        <ele>691.3</ele>
        <time>2016-05-15T13:02:32Z</time>
      </trkpt>
      <trkpt lat="43.86511" lon="6.84462">
        <ele>691.6</ele>
        <time>2016-05-15T13:02:38Z</time>
      </trkpt>
      <trkpt lat="43.86516" lon="6.84474">
        <ele>692.6</ele>
        <time>2016-05-15T13:03:48Z</time>
      </trkpt>
      <trkpt lat="43.86518" lon="6.84487">
        <ele>693.6</ele>
        <time>2016-05-15T13:04:00Z</time>
      </trkpt>
      <trkpt lat="43.86516" lon="6.84499">
        <ele>695.4</ele>
        <time>2016-05-15T13:04:14Z</time>
      </trkpt>
      <trkpt lat="43.86515" lon="6.84512">
        <ele>697</ele>
        <time>2016-05-15T13:04:27Z</time>
      </trkpt>
      <trkpt lat="43.86517" lon="6.84524">
        <ele>699</ele>
        <time>2016-05-15T13:04:41Z</time>
      </trkpt>
      <trkpt lat="43.86516" lon="6.84537">
        <ele>701.1</ele>
        <time>2016-05-15T13:04:54Z</time>
      </trkpt>
      <trkpt lat="43.86517" lon="6.84549">
        <ele>703.4</ele>
        <time>2016-05-15T13:05:08Z</time>
      </trkpt>
      <trkpt lat="43.86519" lon="6.84562">
        <ele>705.3</ele>
        <time>2016-05-15T13:05:20Z</time>
      </trkpt>
      <trkpt lat="43.86518" lon="6.84574">
        <ele>706.5</ele>
        <time>2016-05-15T13:05:30Z</time>
      </trkpt>
      <trkpt lat="43.86517" lon="6.84587">
        <ele>707.8</ele>
        <time>2016-05-15T13:05:40Z</time>
      </trkpt>
      <trkpt lat="43.86519" lon="6.846">
        <ele>709.1</ele>
        <time>2016-05-15T13:05:50Z</time>
      </trkpt>
      <trkpt lat="43.86516" lon="6.84613">
        <ele>710.3</ele>
        <time>2016-05-15T13:05:59Z</time>
      </trkpt>
      <trkpt lat="43.86513" lon="6.84626">
        <ele>712</ele>
        <time>2016-05-15T13:06:10Z</time>
      </trkpt>
      <trkpt lat="43.86506" lon="6.84634">
        <ele>713.9</ele>
        <time>2016-05-15T13:06:22Z</time>
      </trkpt>
      <trkpt lat="43.86501" lon="6.84646">
        <ele>716.1</ele>
        <time>2016-05-15T13:06:35Z</time>
      </trkpt>
      <trkpt lat="43.86498" lon="6.84658">
        <ele>719</ele>
        <time>2016-05-15T13:06:52Z</time>
      </trkpt>
      <trkpt lat="43.86497" lon="6.84671">
        <ele>721.6</ele>
        <time>2016-05-15T13:07:07Z</time>
      </trkpt>
      <trkpt lat="43.86494" lon="6.84683">
        <ele>723.4</ele>
        <time>2016-05-15T13:07:18Z</time>
      </trkpt>
      <trkpt lat="43.86494" lon="6.84696">
        <ele>726</ele>
        <time>2016-05-15T13:07:40Z</time>
      </trkpt>
      <trkpt lat="43.86491" lon="6.84708">
        <ele>726.9</ele>
        <time>2016-05-15T13:07:51Z</time>
      </trkpt>
      <trkpt lat="43.86489" lon="6.84722">
        <ele>728.1</ele>
        <time>2016-05-15T13:08:03Z</time>
      </trkpt>
      <trkpt lat="43.86487" lon="6.84734">
        <ele>729.2</ele>
        <time>2016-05-15T13:08:14Z</time>
      </trkpt>
      <trkpt lat="43.86487" lon="6.84748">
        <ele>733.3</ele>
        <time>2016-05-15T13:11:54Z</time>
      </trkpt>
      <trkpt lat="43.86487" lon="6.84761">
        <ele>733.3</ele>
        <time>2016-05-15T13:12:03Z</time>
      </trkpt>
      <trkpt lat="43.86489" lon="6.84775">
        <ele>733.3</ele>
        <time>2016-05-15T13:12:09Z</time>
      </trkpt>
      <trkpt lat="43.86488" lon="6.84789">
        <ele>733.3</ele>
        <time>2016-05-15T13:12:16Z</time>
      </trkpt>
      <trkpt lat="43.86486" lon="6.84801">
        <ele>733.5</ele>
        <time>2016-05-15T13:12:21Z</time>
      </trkpt>
      <trkpt lat="43.86483" lon="6.84814">
        <ele>734.2</ele>
        <time>2016-05-15T13:12:28Z</time>
      </trkpt>
      <trkpt lat="43.86481" lon="6.84828">
        <ele>734.9</ele>
        <time>2016-05-15T13:12:35Z</time>
      </trkpt>
      <trkpt lat="43.8648" lon="6.84841">
        <ele>735.3</ele>
        <time>2016-05-15T13:12:40Z</time>
      </trkpt>
      <trkpt lat="43.8648" lon="6.84854">
        <ele>736.9</ele>
        <time>2016-05-15T13:12:52Z</time>
      </trkpt>
      <trkpt lat="43.86476" lon="6.84866">
        <ele>738.2</ele>
        <time>2016-05-15T13:13:03Z</time>
      </trkpt>
      <trkpt lat="43.86471" lon="6.84879">
        <ele>739.2</ele>
        <time>2016-05-15T13:13:12Z</time>
      </trkpt>
      <trkpt lat="43.86466" lon="6.84891">
        <ele>740</ele>
        <time>2016-05-15T13:13:21Z</time>
      </trkpt>
      <trkpt lat="43.86463" lon="6.84903">
        <ele>740.8</ele>
        <time>2016-05-15T13:13:31Z</time>
      </trkpt>
      <trkpt lat="43.86459" lon="6.84915">
        <ele>741.5</ele>
        <time>2016-05-15T13:13:40Z</time>
      </trkpt>
      <trkpt lat="43.86458" lon="6.84929">
        <ele>742.5</ele>
        <time>2016-05-15T13:13:48Z</time>
      </trkpt>
      <trkpt lat="43.86453" lon="6.84939">
        <ele>743.5</ele>
        <time>2016-05-15T13:13:56Z</time>
      </trkpt>
      <trkpt lat="43.86449" lon="6.84952">
        <ele>744.2</ele>
        <time>2016-05-15T13:14:05Z</time>
      </trkpt>
      <trkpt lat="43.86452" lon="6.84965">
        <ele>744.5</ele>
        <time>2016-05-15T13:14:11Z</time>
      </trkpt>
      <trkpt lat="43.86458" lon="6.84975">
        <ele>744.7</ele>
        <time>2016-05-15T13:14:15Z</time>
      </trkpt>
      <trkpt lat="43.86461" lon="6.84987">
        <ele>744.7</ele>
        <time>2016-05-15T13:14:19Z</time>
      </trkpt>
      <trkpt lat="43.86464" lon="6.85001">
        <ele>744.7</ele>
        <time>2016-05-15T13:14:24Z</time>
      </trkpt>
      <trkpt lat="43.86466" lon="6.85015">
        <ele>744.7</ele>
        <time>2016-05-15T13:14:30Z</time>
      </trkpt>
      <trkpt lat="43.86466" lon="6.85029">
        <ele>744.7</ele>
        <time>2016-05-15T13:14:34Z</time>
      </trkpt>
      <trkpt lat="43.86465" lon="6.85041">
        <ele>744.9</ele>
        <time>2016-05-15T13:14:38Z</time>
      </trkpt>
      <trkpt lat="43.86468" lon="6.85054">
        <ele>745.3</ele>
        <time>2016-05-15T13:14:43Z</time>
      </trkpt>
      <trkpt lat="43.86469" lon="6.85067">
        <ele>745.7</ele>
        <time>2016-05-15T13:14:48Z</time>
      </trkpt>
      <trkpt lat="43.86472" lon="6.8508">
        <ele>746.3</ele>
        <time>2016-05-15T13:14:54Z</time>
      </trkpt>
      <trkpt lat="43.86474" lon="6.85092">
        <ele>747</ele>
        <time>2016-05-15T13:14:59Z</time>
      </trkpt>
      <trkpt lat="43.86471" lon="6.85104">
        <ele>748</ele>
        <time>2016-05-15T13:15:05Z</time>
      </trkpt>
      <trkpt lat="43.86468" lon="6.85117">
        <ele>748.7</ele>
        <time>2016-05-15T13:15:11Z</time>
      </trkpt>
      <trkpt lat="43.86468" lon="6.85131">
        <ele>749.3</ele>
        <time>2016-05-15T13:15:17Z</time>
      </trkpt>
      <trkpt lat="43.86477" lon="6.85137">
        <ele>750.2</ele>
        <time>2016-05-15T13:15:25Z</time>
      </trkpt>
      <trkpt lat="43.86487" lon="6.85141">
        <ele>751.2</ele>
        <time>2016-05-15T13:15:34Z</time>
      </trkpt>
      <trkpt lat="43.86497" lon="6.85142">
        <ele>752</ele>
        <time>2016-05-15T13:15:41Z</time>
      </trkpt>
      <trkpt lat="43.86506" lon="6.85146">
        <ele>752.5</ele>
        <time>2016-05-15T13:15:47Z</time>
      </trkpt>
      <trkpt lat="43.86515" lon="6.85149">
        <ele>752.8</ele>
        <time>2016-05-15T13:15:52Z</time>
      </trkpt>
      <trkpt lat="43.86524" lon="6.85157">
        <ele>753</ele>
        <time>2016-05-15T13:15:58Z</time>
      </trkpt>
      <trkpt lat="43.86531" lon="6.85166">
        <ele>753.2</ele>
        <time>2016-05-15T13:16:03Z</time>
      </trkpt>
      <trkpt lat="43.86538" lon="6.85176">
        <ele>753.4</ele>
        <time>2016-05-15T13:16:08Z</time>
      </trkpt>
      <trkpt lat="43.86541" lon="6.85188">
        <ele>753.7</ele>
        <time>2016-05-15T13:16:24Z</time>
      </trkpt>
      <trkpt lat="43.86546" lon="6.85199">
        <ele>753</ele>
        <time>2016-05-15T13:16:49Z</time>
      </trkpt>
      <trkpt lat="43.86551" lon="6.8521">
        <ele>752.9</ele>
        <time>2016-05-15T13:17:03Z</time>
      </trkpt>
      <trkpt lat="43.86552" lon="6.85223">
        <ele>754</ele>
        <time>2016-05-15T13:17:15Z</time>
      </trkpt>
      <trkpt lat="43.86553" lon="6.85236">
        <ele>756.1</ele>
        <time>2016-05-15T13:17:28Z</time>
      </trkpt>
      <trkpt lat="43.86548" lon="6.85248">
        <ele>758.6</ele>
        <time>2016-05-15T13:17:41Z</time>
      </trkpt>
      <trkpt lat="43.86541" lon="6.85258">
        <ele>759.9</ele>
        <time>2016-05-15T13:17:51Z</time>
      </trkpt>
      <trkpt lat="43.86538" lon="6.85271">
        <ele>761.1</ele>
        <time>2016-05-15T13:18:00Z</time>
      </trkpt>
      <trkpt lat="43.86533" lon="6.85283">
        <ele>762.7</ele>
        <time>2016-05-15T13:18:11Z</time>
      </trkpt>
      <trkpt lat="43.86529" lon="6.85294">
        <ele>763.9</ele>
        <time>2016-05-15T13:18:20Z</time>
      </trkpt>
      <trkpt lat="43.86525" lon="6.85306">
        <ele>765.2</ele>
        <time>2016-05-15T13:18:29Z</time>
      </trkpt>
      <trkpt lat="43.86521" lon="6.85318">
        <ele>766.3</ele>
        <time>2016-05-15T13:18:38Z</time>
      </trkpt>
      <trkpt lat="43.86517" lon="6.8533">
        <ele>767.3</ele>
        <time>2016-05-15T13:18:47Z</time>
      </trkpt>
      <trkpt lat="43.86515" lon="6.85343">
        <ele>768.5</ele>
        <time>2016-05-15T13:18:57Z</time>
      </trkpt>
      <trkpt lat="43.86514" lon="6.85356">
        <ele>769.8</ele>
        <time>2016-05-15T13:19:07Z</time>
      </trkpt>
      <trkpt lat="43.86513" lon="6.8537">
        <ele>771.1</ele>
        <time>2016-05-15T13:19:16Z</time>
      </trkpt>
      <trkpt lat="43.86512" lon="6.85382">
        <ele>772.4</ele>
        <time>2016-05-15T13:19:25Z</time>
      </trkpt>
      <trkpt lat="43.86509" lon="6.85395">
        <ele>773.4</ele>
        <time>2016-05-15T13:19:35Z</time>
      </trkpt>
      <trkpt lat="43.86503" lon="6.85406">
        <ele>774.1</ele>
        <time>2016-05-15T13:19:43Z</time>
      </trkpt>
      <trkpt lat="43.86498" lon="6.85418">
        <ele>774.8</ele>
        <time>2016-05-15T13:19:49Z</time>
      </trkpt>
      <trkpt lat="43.86495" lon="6.8543">
        <ele>775.5</ele>
        <time>2016-05-15T13:19:55Z</time>
      </trkpt>
      <trkpt lat="43.86492" lon="6.85443">
        <ele>776.1</ele>
        <time>2016-05-15T13:20:01Z</time>
      </trkpt>
      <trkpt lat="43.8649" lon="6.85456">
        <ele>776.7</ele>
        <time>2016-05-15T13:20:08Z</time>
      </trkpt>
      <trkpt lat="43.86487" lon="6.85469">
        <ele>777.5</ele>
        <time>2016-05-15T13:20:15Z</time>
      </trkpt>
      <trkpt lat="43.86484" lon="6.85482">
        <ele>778.1</ele>
        <time>2016-05-15T13:20:21Z</time>
      </trkpt>
      <trkpt lat="43.86481" lon="6.85495">
        <ele>778.7</ele>
        <time>2016-05-15T13:20:27Z</time>
      </trkpt>
      <trkpt lat="43.86479" lon="6.85507">
        <ele>779.3</ele>
        <time>2016-05-15T13:20:33Z</time>
      </trkpt>
      <trkpt lat="43.86478" lon="6.8552">
        <ele>780</ele>
        <time>2016-05-15T13:20:39Z</time>
      </trkpt>
      <trkpt lat="43.86477" lon="6.85534">
        <ele>780.6</ele>
        <time>2016-05-15T13:20:45Z</time>
      </trkpt>
      <trkpt lat="43.86475" lon="6.85547">
        <ele>781.2</ele>
        <time>2016-05-15T13:20:51Z</time>
      </trkpt>
      <trkpt lat="43.86471" lon="6.85559">
        <ele>781.7</ele>
        <time>2016-05-15T13:20:57Z</time>
      </trkpt>
      <trkpt lat="43.86463" lon="6.85567">
        <ele>782.1</ele>
        <time>2016-05-15T13:21:03Z</time>
      </trkpt>
      <trkpt lat="43.86473" lon="6.85567">
        <ele>783.8</ele>
        <time>2016-05-15T13:21:35Z</time>
      </trkpt>
      <trkpt lat="43.86482" lon="6.85571">
        <ele>783.8</ele>
        <time>2016-05-15T13:21:41Z</time>
      </trkpt>
      <trkpt lat="43.86489" lon="6.85581">
        <ele>783.7</ele>
        <time>2016-05-15T13:21:47Z</time>
      </trkpt>
      <trkpt lat="43.86495" lon="6.85591">
        <ele>783.7</ele>
        <time>2016-05-15T13:21:53Z</time>
      </trkpt>
      <trkpt lat="43.86502" lon="6.856">
        <ele>783.9</ele>
        <time>2016-05-15T13:21:59Z</time>
      </trkpt>
      <trkpt lat="43.86509" lon="6.85609">
        <ele>784.3</ele>
        <time>2016-05-15T13:22:06Z</time>
      </trkpt>
      <trkpt lat="43.86517" lon="6.85616">
        <ele>786.7</ele>
        <time>2016-05-15T13:22:31Z</time>
      </trkpt>
      <trkpt lat="43.86523" lon="6.85626">
        <ele>788.4</ele>
        <time>2016-05-15T13:24:30Z</time>
      </trkpt>
      <trkpt lat="43.86531" lon="6.85634">
        <ele>788.4</ele>
        <time>2016-05-15T13:24:48Z</time>
      </trkpt>
      <trkpt lat="43.86538" lon="6.85649">
        <ele>787.7</ele>
        <time>2016-05-15T13:24:52Z</time>
      </trkpt>
      <trkpt lat="43.86548" lon="6.85658">
        <ele>787</ele>
        <time>2016-05-15T13:24:55Z</time>
      </trkpt>
      <trkpt lat="43.86554" lon="6.8567">
        <ele>786.4</ele>
        <time>2016-05-15T13:24:58Z</time>
      </trkpt>
      <trkpt lat="43.8655" lon="6.85683">
        <ele>785.4</ele>
        <time>2016-05-15T13:25:02Z</time>
      </trkpt>
      <trkpt lat="43.86546" lon="6.85699">
        <ele>783.6</ele>
        <time>2016-05-15T13:25:06Z</time>
      </trkpt>
      <trkpt lat="43.8655" lon="6.85712">
        <ele>781.6</ele>
        <time>2016-05-15T13:25:10Z</time>
      </trkpt>
      <trkpt lat="43.8655" lon="6.85728">
        <ele>780</ele>
        <time>2016-05-15T13:25:14Z</time>
      </trkpt>
      <trkpt lat="43.86549" lon="6.85742">
        <ele>778.2</ele>
        <time>2016-05-15T13:25:18Z</time>
      </trkpt>
      <trkpt lat="43.86554" lon="6.85759">
        <ele>776.8</ele>
        <time>2016-05-15T13:25:21Z</time>
      </trkpt>
      <trkpt lat="43.8656" lon="6.85774">
        <ele>775.3</ele>
        <time>2016-05-15T13:25:24Z</time>
      </trkpt>
      <trkpt lat="43.86564" lon="6.85789">
        <ele>774.1</ele>
        <time>2016-05-15T13:25:27Z</time>
      </trkpt>
      <trkpt lat="43.86568" lon="6.85804">
        <ele>772.9</ele>
        <time>2016-05-15T13:25:30Z</time>
      </trkpt>
      <trkpt lat="43.86572" lon="6.85818">
        <ele>771.7</ele>
        <time>2016-05-15T13:25:33Z</time>
      </trkpt>
      <trkpt lat="43.86579" lon="6.8583">
        <ele>769.8</ele>
        <time>2016-05-15T13:25:38Z</time>
      </trkpt>
      <trkpt lat="43.8658" lon="6.85844">
        <ele>767.9</ele>
        <time>2016-05-15T13:25:43Z</time>
      </trkpt>
      <trkpt lat="43.86579" lon="6.85858">
        <ele>765.7</ele>
        <time>2016-05-15T13:25:51Z</time>
      </trkpt>
      <trkpt lat="43.86578" lon="6.8587">
        <ele>764.1</ele>
        <time>2016-05-15T13:25:56Z</time>
      </trkpt>
      <trkpt lat="43.86575" lon="6.85883">
        <ele>761.6</ele>
        <time>2016-05-15T13:26:03Z</time>
      </trkpt>
      <trkpt lat="43.86573" lon="6.859">
        <ele>759.2</ele>
        <time>2016-05-15T13:26:09Z</time>
      </trkpt>
      <trkpt lat="43.8657" lon="6.85915">
        <ele>757.3</ele>
        <time>2016-05-15T13:26:12Z</time>
      </trkpt>
      <trkpt lat="43.86569" lon="6.85928">
        <ele>756.1</ele>
        <time>2016-05-15T13:26:14Z</time>
      </trkpt>
      <trkpt lat="43.86569" lon="6.85941">
        <ele>754.7</ele>
        <time>2016-05-15T13:26:16Z</time>
      </trkpt>
      <trkpt lat="43.86572" lon="6.85955">
        <ele>753.1</ele>
        <time>2016-05-15T13:26:18Z</time>
      </trkpt>
      <trkpt lat="43.86579" lon="6.85974">
        <ele>751.5</ele>
        <time>2016-05-15T13:26:20Z</time>
      </trkpt>
      <trkpt lat="43.86583" lon="6.85993">
        <ele>749.9</ele>
        <time>2016-05-15T13:26:22Z</time>
      </trkpt>
      <trkpt lat="43.86589" lon="6.86007">
        <ele>747.6</ele>
        <time>2016-05-15T13:26:25Z</time>
      </trkpt>
      <trkpt lat="43.86597" lon="6.86016">
        <ele>745.2</ele>
        <time>2016-05-15T13:26:29Z</time>
      </trkpt>
      <trkpt lat="43.86603" lon="6.86026">
        <ele>741.3</ele>
        <time>2016-05-15T13:26:40Z</time>
      </trkpt>
      <trkpt lat="43.8661" lon="6.86034">
        <ele>740.2</ele>
        <time>2016-05-15T13:26:50Z</time>
      </trkpt>
      <trkpt lat="43.86617" lon="6.86043">
        <ele>740.6</ele>
        <time>2016-05-15T13:27:39Z</time>
      </trkpt>
      <trkpt lat="43.86621" lon="6.86057">
        <ele>740.6</ele>
        <time>2016-05-15T13:27:44Z</time>
      </trkpt>
      <trkpt lat="43.86627" lon="6.86068">
        <ele>740.6</ele>
        <time>2016-05-15T13:27:48Z</time>
      </trkpt>
      <trkpt lat="43.86631" lon="6.86081">
        <ele>740</ele>
        <time>2016-05-15T13:27:54Z</time>
      </trkpt>
      <trkpt lat="43.86633" lon="6.86095">
        <ele>738.8</ele>
        <time>2016-05-15T13:28:00Z</time>
      </trkpt>
      <trkpt lat="43.86623" lon="6.86101">
        <ele>737.9</ele>
        <time>2016-05-15T13:28:03Z</time>
      </trkpt>
      <trkpt lat="43.86614" lon="6.86105">
        <ele>736.4</ele>
        <time>2016-05-15T13:28:06Z</time>
      </trkpt>
      <trkpt lat="43.86613" lon="6.86119">
        <ele>730.3</ele>
        <time>2016-05-15T13:28:21Z</time>
      </trkpt>
      <trkpt lat="43.86611" lon="6.86131">
        <ele>726.9</ele>
        <time>2016-05-15T13:28:28Z</time>
      </trkpt>
      <trkpt lat="43.8661" lon="6.86145">
        <ele>724.7</ele>
        <time>2016-05-15T13:28:32Z</time>
      </trkpt>
      <trkpt lat="43.86613" lon="6.86158">
        <ele>722.9</ele>
        <time>2016-05-15T13:28:35Z</time>
      </trkpt>
      <trkpt lat="43.86618" lon="6.86174">
        <ele>721</ele>
        <time>2016-05-15T13:28:38Z</time>
      </trkpt>
      <trkpt lat="43.86624" lon="6.86188">
        <ele>718.1</ele>
        <time>2016-05-15T13:28:42Z</time>
      </trkpt>
      <trkpt lat="43.86633" lon="6.86196">
        <ele>715.4</ele>
        <time>2016-05-15T13:28:46Z</time>
      </trkpt>
      <trkpt lat="43.86645" lon="6.86196">
        <ele>712.7</ele>
        <time>2016-05-15T13:28:50Z</time>
      </trkpt>
      <trkpt lat="43.86653" lon="6.86207">
        <ele>710.8</ele>
        <time>2016-05-15T13:28:53Z</time>
      </trkpt>
      <trkpt lat="43.86661" lon="6.86215">
        <ele>708.1</ele>
        <time>2016-05-15T13:28:57Z</time>
      </trkpt>
      <trkpt lat="43.86669" lon="6.86223">
        <ele>706.3</ele>
        <time>2016-05-15T13:29:00Z</time>
      </trkpt>
      <trkpt lat="43.86676" lon="6.86231">
        <ele>702.4</ele>
        <time>2016-05-15T13:29:08Z</time>
      </trkpt>
      <trkpt lat="43.86682" lon="6.86241">
        <ele>698</ele>
        <time>2016-05-15T13:29:29Z</time>
      </trkpt>
      <trkpt lat="43.86689" lon="6.86253">
        <ele>696.6</ele>
        <time>2016-05-15T13:30:05Z</time>
      </trkpt>
      <trkpt lat="43.86699" lon="6.86258">
        <ele>696.3</ele>
        <time>2016-05-15T13:30:08Z</time>
      </trkpt>
      <trkpt lat="43.86711" lon="6.86263">
        <ele>695.6</ele>
        <time>2016-05-15T13:30:11Z</time>
      </trkpt>
      <trkpt lat="43.86721" lon="6.86258">
        <ele>694.8</ele>
        <time>2016-05-15T13:30:14Z</time>
      </trkpt>
      <trkpt lat="43.86726" lon="6.86244">
        <ele>693.8</ele>
        <time>2016-05-15T13:30:17Z</time>
      </trkpt>
      <trkpt lat="43.86729" lon="6.86227">
        <ele>692.9</ele>
        <time>2016-05-15T13:30:20Z</time>
      </trkpt>
      <trkpt lat="43.86739" lon="6.86225">
        <ele>691.3</ele>
        <time>2016-05-15T13:30:27Z</time>
      </trkpt>
      <trkpt lat="43.86741" lon="6.86241">
        <ele>690.7</ele>
        <time>2016-05-15T13:30:31Z</time>
      </trkpt>
      <trkpt lat="43.86744" lon="6.86254">
        <ele>690.5</ele>
        <time>2016-05-15T13:30:33Z</time>
      </trkpt>
      <trkpt lat="43.86746" lon="6.86268">
        <ele>690</ele>
        <time>2016-05-15T13:30:35Z</time>
      </trkpt>
      <trkpt lat="43.86757" lon="6.86279">
        <ele>689.1</ele>
        <time>2016-05-15T13:30:38Z</time>
      </trkpt>
      <trkpt lat="43.86763" lon="6.86288">
        <ele>688.4</ele>
        <time>2016-05-15T13:30:40Z</time>
      </trkpt>
      <trkpt lat="43.8677" lon="6.86297">
        <ele>687.6</ele>
        <time>2016-05-15T13:30:42Z</time>
      </trkpt>
      <trkpt lat="43.86779" lon="6.86306">
        <ele>686.4</ele>
        <time>2016-05-15T13:30:45Z</time>
      </trkpt>
      <trkpt lat="43.86785" lon="6.86316">
        <ele>685.3</ele>
        <time>2016-05-15T13:30:48Z</time>
      </trkpt>
      <trkpt lat="43.86793" lon="6.86323">
        <ele>684.3</ele>
        <time>2016-05-15T13:30:51Z</time>
      </trkpt>
      <trkpt lat="43.86803" lon="6.86328">
        <ele>683.4</ele>
        <time>2016-05-15T13:30:54Z</time>
      </trkpt>
      <trkpt lat="43.86814" lon="6.86339">
        <ele>682.6</ele>
        <time>2016-05-15T13:30:57Z</time>
      </trkpt>
      <trkpt lat="43.86822" lon="6.86345">
        <ele>681.8</ele>
        <time>2016-05-15T13:30:59Z</time>
      </trkpt>
      <trkpt lat="43.86833" lon="6.86346">
        <ele>680</ele>
        <time>2016-05-15T13:31:03Z</time>
      </trkpt>
      <trkpt lat="43.8684" lon="6.86357">
        <ele>678.1</ele>
        <time>2016-05-15T13:31:08Z</time>
      </trkpt>
      <trkpt lat="43.86843" lon="6.86371">
        <ele>677.2</ele>
        <time>2016-05-15T13:31:11Z</time>
      </trkpt>
      <trkpt lat="43.86849" lon="6.86384">
        <ele>676.3</ele>
        <time>2016-05-15T13:31:15Z</time>
      </trkpt>
      <trkpt lat="43.86857" lon="6.86396">
        <ele>675.7</ele>
        <time>2016-05-15T13:31:19Z</time>
      </trkpt>
      <trkpt lat="43.86865" lon="6.86405">
        <ele>675.4</ele>
        <time>2016-05-15T13:31:22Z</time>
      </trkpt>
      <trkpt lat="43.86873" lon="6.86414">
        <ele>675.2</ele>
        <time>2016-05-15T13:31:25Z</time>
      </trkpt>
      <trkpt lat="43.86882" lon="6.86425">
        <ele>675</ele>
        <time>2016-05-15T13:31:28Z</time>
      </trkpt>
      <trkpt lat="43.8689" lon="6.86432">
        <ele>674.8</ele>
        <time>2016-05-15T13:31:31Z</time>
      </trkpt>
      <trkpt lat="43.86899" lon="6.86441">
        <ele>674.8</ele>
        <time>2016-05-15T13:31:35Z</time>
      </trkpt>
      <trkpt lat="43.86907" lon="6.86451">
        <ele>674.8</ele>
        <time>2016-05-15T13:31:39Z</time>
      </trkpt>
      <trkpt lat="43.86915" lon="6.8646">
        <ele>674.9</ele>
        <time>2016-05-15T13:31:42Z</time>
      </trkpt>
      <trkpt lat="43.86924" lon="6.86469">
        <ele>675</ele>
        <time>2016-05-15T13:31:46Z</time>
      </trkpt>
      <trkpt lat="43.86933" lon="6.86478">
        <ele>675.2</ele>
        <time>2016-05-15T13:31:51Z</time>
      </trkpt>
      <trkpt lat="43.8694" lon="6.86487">
        <ele>675.4</ele>
        <time>2016-05-15T13:31:54Z</time>
      </trkpt>
      <trkpt lat="43.86948" lon="6.86496">
        <ele>675.4</ele>
        <time>2016-05-15T13:31:57Z</time>
      </trkpt>
      <trkpt lat="43.86956" lon="6.86501">
        <ele>675.3</ele>
        <time>2016-05-15T13:32:00Z</time>
      </trkpt>
      <trkpt lat="43.86968" lon="6.86505">
        <ele>675.1</ele>
        <time>2016-05-15T13:32:04Z</time>
      </trkpt>
      <trkpt lat="43.86978" lon="6.86508">
        <ele>675.1</ele>
        <time>2016-05-15T13:32:08Z</time>
      </trkpt>
      <trkpt lat="43.86988" lon="6.86518">
        <ele>675</ele>
        <time>2016-05-15T13:32:13Z</time>
      </trkpt>
      <trkpt lat="43.86996" lon="6.86529">
        <ele>674.9</ele>
        <time>2016-05-15T13:32:16Z</time>
      </trkpt>
      <trkpt lat="43.87002" lon="6.86538">
        <ele>674.4</ele>
        <time>2016-05-15T13:32:19Z</time>
      </trkpt>
      <trkpt lat="43.87011" lon="6.86549">
        <ele>673.6</ele>
        <time>2016-05-15T13:32:22Z</time>
      </trkpt>
      <trkpt lat="43.87015" lon="6.86562">
        <ele>672.8</ele>
        <time>2016-05-15T13:32:24Z</time>
      </trkpt>
      <trkpt lat="43.87022" lon="6.86575">
        <ele>671.6</ele>
        <time>2016-05-15T13:32:27Z</time>
      </trkpt>
      <trkpt lat="43.8703" lon="6.86583">
        <ele>669.8</ele>
        <time>2016-05-15T13:32:30Z</time>
      </trkpt>
      <trkpt lat="43.8704" lon="6.86581">
        <ele>668.1</ele>
        <time>2016-05-15T13:32:33Z</time>
      </trkpt>
      <trkpt lat="43.87051" lon="6.86582">
        <ele>666.3</ele>
        <time>2016-05-15T13:32:36Z</time>
      </trkpt>
      <trkpt lat="43.8706" lon="6.86575">
        <ele>664</ele>
        <time>2016-05-15T13:32:40Z</time>
      </trkpt>
      <trkpt lat="43.87069" lon="6.8658">
        <ele>658.5</ele>
        <time>2016-05-15T13:32:57Z</time>
      </trkpt>
      <trkpt lat="43.87071" lon="6.86593">
        <ele>655.1</ele>
        <time>2016-05-15T13:33:49Z</time>
      </trkpt>
      <trkpt lat="43.87073" lon="6.86605">
        <ele>653.9</ele>
        <time>2016-05-15T13:33:55Z</time>
      </trkpt>
      <trkpt lat="43.87076" lon="6.86619">
        <ele>651.4</ele>
        <time>2016-05-15T13:34:03Z</time>
      </trkpt>
      <trkpt lat="43.87078" lon="6.86631">
        <ele>650.1</ele>
        <time>2016-05-15T13:34:07Z</time>
      </trkpt>
      <trkpt lat="43.87088" lon="6.86636">
        <ele>647.9</ele>
        <time>2016-05-15T13:34:12Z</time>
      </trkpt>
      <trkpt lat="43.87097" lon="6.86638">
        <ele>645.8</ele>
        <time>2016-05-15T13:34:17Z</time>
      </trkpt>
      <trkpt lat="43.87099" lon="6.86653">
        <ele>644.4</ele>
        <time>2016-05-15T13:34:21Z</time>
      </trkpt>
      <trkpt lat="43.87109" lon="6.86659">
        <ele>643.1</ele>
        <time>2016-05-15T13:34:25Z</time>
      </trkpt>
      <trkpt lat="43.87117" lon="6.8667">
        <ele>641.8</ele>
        <time>2016-05-15T13:34:29Z</time>
      </trkpt>
      <trkpt lat="43.87125" lon="6.86677">
        <ele>638.9</ele>
        <time>2016-05-15T13:34:41Z</time>
      </trkpt>
      <trkpt lat="43.8713" lon="6.86687">
        <ele>637.7</ele>
        <time>2016-05-15T13:34:50Z</time>
      </trkpt>
      <trkpt lat="43.87133" lon="6.86701">
        <ele>634.4</ele>
        <time>2016-05-15T13:35:42Z</time>
      </trkpt>
      <trkpt lat="43.87132" lon="6.86715">
        <ele>634.2</ele>
        <time>2016-05-15T13:35:45Z</time>
      </trkpt>
      <trkpt lat="43.87135" lon="6.86727">
        <ele>631.5</ele>
        <time>2016-05-15T13:36:02Z</time>
      </trkpt>
      <trkpt lat="43.87137" lon="6.8674">
        <ele>630.5</ele>
        <time>2016-05-15T13:36:13Z</time>
      </trkpt>
      <trkpt lat="43.87142" lon="6.86755">
        <ele>629.7</ele>
        <time>2016-05-15T13:36:16Z</time>
      </trkpt>
      <trkpt lat="43.8715" lon="6.86768">
        <ele>627.4</ele>
        <time>2016-05-15T13:36:21Z</time>
      </trkpt>
      <trkpt lat="43.87156" lon="6.8678">
        <ele>626</ele>
        <time>2016-05-15T13:36:24Z</time>
      </trkpt>
      <trkpt lat="43.87159" lon="6.86791">
        <ele>624.9</ele>
        <time>2016-05-15T13:36:26Z</time>
      </trkpt>
      <trkpt lat="43.87163" lon="6.86805">
        <ele>623.9</ele>
        <time>2016-05-15T13:36:28Z</time>
      </trkpt>
      <trkpt lat="43.87166" lon="6.86819">
        <ele>622.7</ele>
        <time>2016-05-15T13:36:30Z</time>
      </trkpt>
      <trkpt lat="43.87171" lon="6.86832">
        <ele>621.6</ele>
        <time>2016-05-15T13:36:32Z</time>
      </trkpt>
      <trkpt lat="43.87175" lon="6.86845">
        <ele>620.5</ele>
        <time>2016-05-15T13:36:34Z</time>
      </trkpt>
      <trkpt lat="43.87182" lon="6.8686">
        <ele>619.5</ele>
        <time>2016-05-15T13:36:36Z</time>
      </trkpt>
      <trkpt lat="43.87187" lon="6.86875">
        <ele>618.2</ele>
        <time>2016-05-15T13:36:39Z</time>
      </trkpt>
      <trkpt lat="43.87188" lon="6.86888">
        <ele>616.2</ele>
        <time>2016-05-15T13:36:45Z</time>
      </trkpt>
      <trkpt lat="43.87189" lon="6.86901">
        <ele>614.7</ele>
        <time>2016-05-15T13:36:50Z</time>
      </trkpt>
      <trkpt lat="43.87199" lon="6.86899">
        <ele>611.1</ele>
        <time>2016-05-15T13:37:37Z</time>
      </trkpt>
      <trkpt lat="43.8721" lon="6.86892">
        <ele>611</ele>
        <time>2016-05-15T13:37:41Z</time>
      </trkpt>
      <trkpt lat="43.87219" lon="6.86887">
        <ele>610.8</ele>
        <time>2016-05-15T13:37:44Z</time>
      </trkpt>
      <trkpt lat="43.87229" lon="6.86881">
        <ele>610.6</ele>
        <time>2016-05-15T13:37:47Z</time>
      </trkpt>
      <trkpt lat="43.87238" lon="6.86878">
        <ele>610.4</ele>
        <time>2016-05-15T13:37:50Z</time>
      </trkpt>
      <trkpt lat="43.87247" lon="6.86873">
        <ele>610.3</ele>
        <time>2016-05-15T13:37:53Z</time>
      </trkpt>
      <trkpt lat="43.87256" lon="6.86868">
        <ele>610.1</ele>
        <time>2016-05-15T13:37:57Z</time>
      </trkpt>
      <trkpt lat="43.87267" lon="6.86862">
        <ele>610</ele>
        <time>2016-05-15T13:38:02Z</time>
      </trkpt>
      <trkpt lat="43.87278" lon="6.86856">
        <ele>609.9</ele>
        <time>2016-05-15T13:38:06Z</time>
      </trkpt>
      <trkpt lat="43.87288" lon="6.86851">
        <ele>609.9</ele>
        <time>2016-05-15T13:38:10Z</time>
      </trkpt>
      <trkpt lat="43.87297" lon="6.86846">
        <ele>609.8</ele>
        <time>2016-05-15T13:38:14Z</time>
      </trkpt>
      <trkpt lat="43.87307" lon="6.86841">
        <ele>609.8</ele>
        <time>2016-05-15T13:38:18Z</time>
      </trkpt>
      <trkpt lat="43.87316" lon="6.86836">
        <ele>609.8</ele>
        <time>2016-05-15T13:38:22Z</time>
      </trkpt>
      <trkpt lat="43.87327" lon="6.86832">
        <ele>609.7</ele>
        <time>2016-05-15T13:38:27Z</time>
      </trkpt>
      <trkpt lat="43.87336" lon="6.86832">
        <ele>609.9</ele>
        <time>2016-05-15T13:38:32Z</time>
      </trkpt>
      <trkpt lat="43.87347" lon="6.86832">
        <ele>609.8</ele>
        <time>2016-05-15T13:38:38Z</time>
      </trkpt>
      <trkpt lat="43.87357" lon="6.86833">
        <ele>609.9</ele>
        <time>2016-05-15T13:38:43Z</time>
      </trkpt>
      <trkpt lat="43.87366" lon="6.86834">
        <ele>610.2</ele>
        <time>2016-05-15T13:38:48Z</time>
      </trkpt>
      <trkpt lat="43.87376" lon="6.86835">
        <ele>610.5</ele>
        <time>2016-05-15T13:38:53Z</time>
      </trkpt>
      <trkpt lat="43.87386" lon="6.86834">
        <ele>611</ele>
        <time>2016-05-15T13:38:59Z</time>
      </trkpt>
      <trkpt lat="43.87395" lon="6.86832">
        <ele>611.4</ele>
        <time>2016-05-15T13:39:04Z</time>
      </trkpt>
      <trkpt lat="43.87406" lon="6.86829">
        <ele>611.9</ele>
        <time>2016-05-15T13:39:11Z</time>
      </trkpt>
      <trkpt lat="43.87415" lon="6.86827">
        <ele>612.2</ele>
        <time>2016-05-15T13:39:16Z</time>
      </trkpt>
      <trkpt lat="43.87425" lon="6.86829">
        <ele>612.7</ele>
        <time>2016-05-15T13:39:37Z</time>
      </trkpt>
      <trkpt lat="43.87434" lon="6.8683">
        <ele>612.7</ele>
        <time>2016-05-15T13:39:51Z</time>
      </trkpt>
      <trkpt lat="43.87442" lon="6.86824">
        <ele>613</ele>
        <time>2016-05-15T13:41:18Z</time>
      </trkpt>
      <trkpt lat="43.87451" lon="6.86815">
        <ele>613</ele>
        <time>2016-05-15T13:41:23Z</time>
      </trkpt>
      <trkpt lat="43.8746" lon="6.86806">
        <ele>613.2</ele>
        <time>2016-05-15T13:41:28Z</time>
      </trkpt>
      <trkpt lat="43.87469" lon="6.86799">
        <ele>613.4</ele>
        <time>2016-05-15T13:41:33Z</time>
      </trkpt>
      <trkpt lat="43.87477" lon="6.86791">
        <ele>613.7</ele>
        <time>2016-05-15T13:41:38Z</time>
      </trkpt>
      <trkpt lat="43.87485" lon="6.86784">
        <ele>614.2</ele>
        <time>2016-05-15T13:41:43Z</time>
      </trkpt>
      <trkpt lat="43.87492" lon="6.86776">
        <ele>614.6</ele>
        <time>2016-05-15T13:41:48Z</time>
      </trkpt>
      <trkpt lat="43.875" lon="6.86768">
        <ele>615.2</ele>
        <time>2016-05-15T13:41:53Z</time>
      </trkpt>
      <trkpt lat="43.87509" lon="6.86762">
        <ele>615.9</ele>
        <time>2016-05-15T13:41:59Z</time>
      </trkpt>
      <trkpt lat="43.87519" lon="6.8676">
        <ele>616.6</ele>
        <time>2016-05-15T13:42:05Z</time>
      </trkpt>
      <trkpt lat="43.8753" lon="6.86758">
        <ele>617.5</ele>
        <time>2016-05-15T13:42:12Z</time>
      </trkpt>
      <trkpt lat="43.87538" lon="6.86755">
        <ele>618.3</ele>
        <time>2016-05-15T13:42:18Z</time>
      </trkpt>
      <trkpt lat="43.87547" lon="6.86748">
        <ele>619</ele>
        <time>2016-05-15T13:42:24Z</time>
      </trkpt>
      <trkpt lat="43.87554" lon="6.86739">
        <ele>619.7</ele>
        <time>2016-05-15T13:42:30Z</time>
      </trkpt>
      <trkpt lat="43.8756" lon="6.86728">
        <ele>620.5</ele>
        <time>2016-05-15T13:42:36Z</time>
      </trkpt>
      <trkpt lat="43.87567" lon="6.86719">
        <ele>621.5</ele>
        <time>2016-05-15T13:42:42Z</time>
      </trkpt>
      <trkpt lat="43.87573" lon="6.86708">
        <ele>622.4</ele>
        <time>2016-05-15T13:42:48Z</time>
      </trkpt>
      <trkpt lat="43.87577" lon="6.86696">
        <ele>623.4</ele>
        <time>2016-05-15T13:42:54Z</time>
      </trkpt>
      <trkpt lat="43.87582" lon="6.86684">
        <ele>624.2</ele>
        <time>2016-05-15T13:42:59Z</time>
      </trkpt>
      <trkpt lat="43.87587" lon="6.86673">
        <ele>624.8</ele>
        <time>2016-05-15T13:43:04Z</time>
      </trkpt>
      <trkpt lat="43.87593" lon="6.86663">
        <ele>625.3</ele>
        <time>2016-05-15T13:43:09Z</time>
      </trkpt>
      <trkpt lat="43.87601" lon="6.86656">
        <ele>625.6</ele>
        <time>2016-05-15T13:43:14Z</time>
      </trkpt>
      <trkpt lat="43.87612" lon="6.86652">
        <ele>625.9</ele>
        <time>2016-05-15T13:43:19Z</time>
      </trkpt>
      <trkpt lat="43.87622" lon="6.86648">
        <ele>626.1</ele>
        <time>2016-05-15T13:43:24Z</time>
      </trkpt>
      <trkpt lat="43.8763" lon="6.86645">
        <ele>626.5</ele>
        <time>2016-05-15T13:43:29Z</time>
      </trkpt>
      <trkpt lat="43.8764" lon="6.86641">
        <ele>627.1</ele>
        <time>2016-05-15T13:43:35Z</time>
      </trkpt>
      <trkpt lat="43.8765" lon="6.86637">
        <ele>627.8</ele>
        <time>2016-05-15T13:43:41Z</time>
      </trkpt>
      <trkpt lat="43.87659" lon="6.86635">
        <ele>628.5</ele>
        <time>2016-05-15T13:43:46Z</time>
      </trkpt>
      <trkpt lat="43.87669" lon="6.86631">
        <ele>629.2</ele>
        <time>2016-05-15T13:43:52Z</time>
      </trkpt>
      <trkpt lat="43.87679" lon="6.86627">
        <ele>629.8</ele>
        <time>2016-05-15T13:43:57Z</time>
      </trkpt>
      <trkpt lat="43.87689" lon="6.86623">
        <ele>630.3</ele>
        <time>2016-05-15T13:44:02Z</time>
      </trkpt>
      <trkpt lat="43.87699" lon="6.8662">
        <ele>630.8</ele>
        <time>2016-05-15T13:44:07Z</time>
      </trkpt>
      <trkpt lat="43.87708" lon="6.86617">
        <ele>631.2</ele>
        <time>2016-05-15T13:44:12Z</time>
      </trkpt>
      <trkpt lat="43.87719" lon="6.86614">
        <ele>631.5</ele>
        <time>2016-05-15T13:44:17Z</time>
      </trkpt>
      <trkpt lat="43.87729" lon="6.86611">
        <ele>631.8</ele>
        <time>2016-05-15T13:44:22Z</time>
      </trkpt>
      <trkpt lat="43.87738" lon="6.86608">
        <ele>631.9</ele>
        <time>2016-05-15T13:44:26Z</time>
      </trkpt>
      <trkpt lat="43.87748" lon="6.86606">
        <ele>632.2</ele>
        <time>2016-05-15T13:44:31Z</time>
      </trkpt>
      <trkpt lat="43.87758" lon="6.86601">
        <ele>632.4</ele>
        <time>2016-05-15T13:44:36Z</time>
      </trkpt>
      <trkpt lat="43.87767" lon="6.86596">
        <ele>632.6</ele>
        <time>2016-05-15T13:44:40Z</time>
      </trkpt>
      <trkpt lat="43.87775" lon="6.86588">
        <ele>632.6</ele>
        <time>2016-05-15T13:44:45Z</time>
      </trkpt>
      <trkpt lat="43.87781" lon="6.86577">
        <ele>632.7</ele>
        <time>2016-05-15T13:44:51Z</time>
      </trkpt>
      <trkpt lat="43.87784" lon="6.86565">
        <ele>632.9</ele>
        <time>2016-05-15T13:44:57Z</time>
      </trkpt>
      <trkpt lat="43.87789" lon="6.86553">
        <ele>633.4</ele>
        <time>2016-05-15T13:45:03Z</time>
      </trkpt>
      <trkpt lat="43.87795" lon="6.86542">
        <ele>634.1</ele>
        <time>2016-05-15T13:45:09Z</time>
      </trkpt>
      <trkpt lat="43.87802" lon="6.86532">
        <ele>634.8</ele>
        <time>2016-05-15T13:45:15Z</time>
      </trkpt>
      <trkpt lat="43.87808" lon="6.8652">
        <ele>635.8</ele>
        <time>2016-05-15T13:45:22Z</time>
      </trkpt>
      <trkpt lat="43.87811" lon="6.86508">
        <ele>636.5</ele>
        <time>2016-05-15T13:45:28Z</time>
      </trkpt>
      <trkpt lat="43.87814" lon="6.86496">
        <ele>637.3</ele>
        <time>2016-05-15T13:45:34Z</time>
      </trkpt>
      <trkpt lat="43.87817" lon="6.86483">
        <ele>638.4</ele>
        <time>2016-05-15T13:45:41Z</time>
      </trkpt>
      <trkpt lat="43.8782" lon="6.8647">
        <ele>639.9</ele>
        <time>2016-05-15T13:45:48Z</time>
      </trkpt>
      <trkpt lat="43.87825" lon="6.86459">
        <ele>641.4</ele>
        <time>2016-05-15T13:45:55Z</time>
      </trkpt>
      <trkpt lat="43.87833" lon="6.86453">
        <ele>642.3</ele>
        <time>2016-05-15T13:46:02Z</time>
      </trkpt>
      <trkpt lat="43.87842" lon="6.86452">
        <ele>642.9</ele>
        <time>2016-05-15T13:46:08Z</time>
      </trkpt>
      <trkpt lat="43.87851" lon="6.8645">
        <ele>643.4</ele>
        <time>2016-05-15T13:46:14Z</time>
      </trkpt>
      <trkpt lat="43.87861" lon="6.86447">
        <ele>643.9</ele>
        <time>2016-05-15T13:46:20Z</time>
      </trkpt>
      <trkpt lat="43.8787" lon="6.86442">
        <ele>644.6</ele>
        <time>2016-05-15T13:46:26Z</time>
      </trkpt>
      <trkpt lat="43.87879" lon="6.86438">
        <ele>645.2</ele>
        <time>2016-05-15T13:46:32Z</time>
      </trkpt>
      <trkpt lat="43.87888" lon="6.86432">
        <ele>645.7</ele>
        <time>2016-05-15T13:46:38Z</time>
      </trkpt>
      <trkpt lat="43.87895" lon="6.86423">
        <ele>646.2</ele>
        <time>2016-05-15T13:46:44Z</time>
      </trkpt>
      <trkpt lat="43.879" lon="6.8641">
        <ele>646.7</ele>
        <time>2016-05-15T13:46:51Z</time>
      </trkpt>
      <trkpt lat="43.87903" lon="6.86399">
        <ele>647</ele>
        <time>2016-05-15T13:46:57Z</time>
      </trkpt>
      <trkpt lat="43.87906" lon="6.86385">
        <ele>647.4</ele>
        <time>2016-05-15T13:47:03Z</time>
      </trkpt>
      <trkpt lat="43.8791" lon="6.86373">
        <ele>648</ele>
        <time>2016-05-15T13:47:09Z</time>
      </trkpt>
      <trkpt lat="43.87917" lon="6.86362">
        <ele>648.7</ele>
        <time>2016-05-15T13:47:15Z</time>
      </trkpt>
      <trkpt lat="43.87924" lon="6.86351">
        <ele>649.4</ele>
        <time>2016-05-15T13:47:21Z</time>
      </trkpt>
      <trkpt lat="43.87928" lon="6.8634">
        <ele>650</ele>
        <time>2016-05-15T13:47:26Z</time>
      </trkpt>
      <trkpt lat="43.87931" lon="6.86326">
        <ele>650.6</ele>
        <time>2016-05-15T13:47:31Z</time>
      </trkpt>
      <trkpt lat="43.87935" lon="6.86314">
        <ele>651.1</ele>
        <time>2016-05-15T13:47:36Z</time>
      </trkpt>
      <trkpt lat="43.87939" lon="6.86302">
        <ele>651.9</ele>
        <time>2016-05-15T13:47:41Z</time>
      </trkpt>
      <trkpt lat="43.87943" lon="6.86288">
        <ele>652.5</ele>
        <time>2016-05-15T13:47:47Z</time>
      </trkpt>
      <trkpt lat="43.87947" lon="6.86277">
        <ele>653.2</ele>
        <time>2016-05-15T13:47:52Z</time>
      </trkpt>
      <trkpt lat="43.87951" lon="6.86265">
        <ele>653.8</ele>
        <time>2016-05-15T13:47:57Z</time>
      </trkpt>
      <trkpt lat="43.87954" lon="6.86253">
        <ele>654.4</ele>
        <time>2016-05-15T13:48:02Z</time>
      </trkpt>
      <trkpt lat="43.87958" lon="6.86241">
        <ele>654.9</ele>
        <time>2016-05-15T13:48:07Z</time>
      </trkpt>
      <trkpt lat="43.87962" lon="6.8623">
        <ele>655.3</ele>
        <time>2016-05-15T13:48:12Z</time>
      </trkpt>
      <trkpt lat="43.87967" lon="6.86217">
        <ele>655.9</ele>
        <time>2016-05-15T13:48:18Z</time>
      </trkpt>
      <trkpt lat="43.87971" lon="6.86206">
        <ele>656.2</ele>
        <time>2016-05-15T13:48:23Z</time>
      </trkpt>
      <trkpt lat="43.87976" lon="6.86194">
        <ele>656.7</ele>
        <time>2016-05-15T13:48:28Z</time>
      </trkpt>
      <trkpt lat="43.87983" lon="6.86183">
        <ele>657.3</ele>
        <time>2016-05-15T13:48:34Z</time>
      </trkpt>
      <trkpt lat="43.8799" lon="6.86174">
        <ele>657.9</ele>
        <time>2016-05-15T13:48:40Z</time>
      </trkpt>
      <trkpt lat="43.87996" lon="6.86164">
        <ele>658.8</ele>
        <time>2016-05-15T13:48:46Z</time>
      </trkpt>
      <trkpt lat="43.88002" lon="6.86152">
        <ele>659.9</ele>
        <time>2016-05-15T13:48:52Z</time>
      </trkpt>
      <trkpt lat="43.88003" lon="6.86138">
        <ele>660.8</ele>
        <time>2016-05-15T13:48:58Z</time>
      </trkpt>
      <trkpt lat="43.88005" lon="6.86124">
        <ele>661.9</ele>
        <time>2016-05-15T13:49:04Z</time>
      </trkpt>
      <trkpt lat="43.88006" lon="6.86112">
        <ele>662.8</ele>
        <time>2016-05-15T13:49:10Z</time>
      </trkpt>
      <trkpt lat="43.88008" lon="6.86098">
        <ele>663.7</ele>
        <time>2016-05-15T13:49:16Z</time>
      </trkpt>
      <trkpt lat="43.8801" lon="6.86085">
        <ele>664.6</ele>
        <time>2016-05-15T13:49:22Z</time>
      </trkpt>
      <trkpt lat="43.88011" lon="6.86071">
        <ele>665.4</ele>
        <time>2016-05-15T13:49:28Z</time>
      </trkpt>
      <trkpt lat="43.88012" lon="6.86058">
        <ele>666.3</ele>
        <time>2016-05-15T13:49:34Z</time>
      </trkpt>
      <trkpt lat="43.88015" lon="6.86046">
        <ele>667.1</ele>
        <time>2016-05-15T13:49:40Z</time>
      </trkpt>
      <trkpt lat="43.88019" lon="6.86033">
        <ele>668.1</ele>
        <time>2016-05-15T13:49:47Z</time>
      </trkpt>
      <trkpt lat="43.88028" lon="6.86029">
        <ele>669.3</ele>
        <time>2016-05-15T13:49:55Z</time>
      </trkpt>
      <trkpt lat="43.88035" lon="6.86036">
        <ele>670.3</ele>
        <time>2016-05-15T13:50:01Z</time>
      </trkpt>
      <trkpt lat="43.88043" lon="6.86045">
        <ele>671.3</ele>
        <time>2016-05-15T13:50:08Z</time>
      </trkpt>
      <trkpt lat="43.8805" lon="6.86055">
        <ele>672.3</ele>
        <time>2016-05-15T13:50:15Z</time>
      </trkpt>
      <trkpt lat="43.88057" lon="6.86063">
        <ele>673.1</ele>
        <time>2016-05-15T13:50:21Z</time>
      </trkpt>
      <trkpt lat="43.88066" lon="6.8607">
        <ele>674.1</ele>
        <time>2016-05-15T13:50:28Z</time>
      </trkpt>
      <trkpt lat="43.88075" lon="6.86075">
        <ele>675</ele>
        <time>2016-05-15T13:50:35Z</time>
      </trkpt>
      <trkpt lat="43.88086" lon="6.86074">
        <ele>676.1</ele>
        <time>2016-05-15T13:50:42Z</time>
      </trkpt>
      <trkpt lat="43.88096" lon="6.86074">
        <ele>676.9</ele>
        <time>2016-05-15T13:50:49Z</time>
      </trkpt>
      <trkpt lat="43.88105" lon="6.86079">
        <ele>677.7</ele>
        <time>2016-05-15T13:50:55Z</time>
      </trkpt>
      <trkpt lat="43.88114" lon="6.86085">
        <ele>678.5</ele>
        <time>2016-05-15T13:51:01Z</time>
      </trkpt>
      <trkpt lat="43.8812" lon="6.86095">
        <ele>679.5</ele>
        <time>2016-05-15T13:51:07Z</time>
      </trkpt>
      <trkpt lat="43.88126" lon="6.86106">
        <ele>680.4</ele>
        <time>2016-05-15T13:51:13Z</time>
      </trkpt>
      <trkpt lat="43.88132" lon="6.86116">
        <ele>681.3</ele>
        <time>2016-05-15T13:51:19Z</time>
      </trkpt>
      <trkpt lat="43.8814" lon="6.86126">
        <ele>682.5</ele>
        <time>2016-05-15T13:51:26Z</time>
      </trkpt>
      <trkpt lat="43.88147" lon="6.86134">
        <ele>683.6</ele>
        <time>2016-05-15T13:51:32Z</time>
      </trkpt>
      <trkpt lat="43.88155" lon="6.86143">
        <ele>684.6</ele>
        <time>2016-05-15T13:51:38Z</time>
      </trkpt>
      <trkpt lat="43.88163" lon="6.86151">
        <ele>685.6</ele>
        <time>2016-05-15T13:51:44Z</time>
      </trkpt>
      <trkpt lat="43.88171" lon="6.86159">
        <ele>686.4</ele>
        <time>2016-05-15T13:51:50Z</time>
      </trkpt>
      <trkpt lat="43.88179" lon="6.86168">
        <ele>687.3</ele>
        <time>2016-05-15T13:51:56Z</time>
      </trkpt>
      <trkpt lat="43.88188" lon="6.86166">
        <ele>688.1</ele>
        <time>2016-05-15T13:52:02Z</time>
      </trkpt>
      <trkpt lat="43.88184" lon="6.86153">
        <ele>688.8</ele>
        <time>2016-05-15T13:52:08Z</time>
      </trkpt>
      <trkpt lat="43.88176" lon="6.86144">
        <ele>689.5</ele>
        <time>2016-05-15T13:52:14Z</time>
      </trkpt>
      <trkpt lat="43.88171" lon="6.86134">
        <ele>690.2</ele>
        <time>2016-05-15T13:52:19Z</time>
      </trkpt>
      <trkpt lat="43.88166" lon="6.86121">
        <ele>690.9</ele>
        <time>2016-05-15T13:52:25Z</time>
      </trkpt>
      <trkpt lat="43.88163" lon="6.86106">
        <ele>691.8</ele>
        <time>2016-05-15T13:52:31Z</time>
      </trkpt>
      <trkpt lat="43.8816" lon="6.86092">
        <ele>692.7</ele>
        <time>2016-05-15T13:52:37Z</time>
      </trkpt>
      <trkpt lat="43.88159" lon="6.86078">
        <ele>693.7</ele>
        <time>2016-05-15T13:52:43Z</time>
      </trkpt>
      <trkpt lat="43.88159" lon="6.86064">
        <ele>694.5</ele>
        <time>2016-05-15T13:52:49Z</time>
      </trkpt>
      <trkpt lat="43.8816" lon="6.8605">
        <ele>695.6</ele>
        <time>2016-05-15T13:52:56Z</time>
      </trkpt>
      <trkpt lat="43.88161" lon="6.86036">
        <ele>696.5</ele>
        <time>2016-05-15T13:53:03Z</time>
      </trkpt>
      <trkpt lat="43.88162" lon="6.86022">
        <ele>697.4</ele>
        <time>2016-05-15T13:53:10Z</time>
      </trkpt>
      <trkpt lat="43.88164" lon="6.86009">
        <ele>698.3</ele>
        <time>2016-05-15T13:53:16Z</time>
      </trkpt>
      <trkpt lat="43.88166" lon="6.85996">
        <ele>699.3</ele>
        <time>2016-05-15T13:53:22Z</time>
      </trkpt>
      <trkpt lat="43.88168" lon="6.85983">
        <ele>700.5</ele>
        <time>2016-05-15T13:53:29Z</time>
      </trkpt>
      <trkpt lat="43.8817" lon="6.85969">
        <ele>701.6</ele>
        <time>2016-05-15T13:53:36Z</time>
      </trkpt>
      <trkpt lat="43.88171" lon="6.85955">
        <ele>702.7</ele>
        <time>2016-05-15T13:53:43Z</time>
      </trkpt>
      <trkpt lat="43.88173" lon="6.85941">
        <ele>703.7</ele>
        <time>2016-05-15T13:53:50Z</time>
      </trkpt>
      <trkpt lat="43.88174" lon="6.85928">
        <ele>704.7</ele>
        <time>2016-05-15T13:53:57Z</time>
      </trkpt>
      <trkpt lat="43.88175" lon="6.85915">
        <ele>705.6</ele>
        <time>2016-05-15T13:54:04Z</time>
      </trkpt>
      <trkpt lat="43.88177" lon="6.85901">
        <ele>706.8</ele>
        <time>2016-05-15T13:54:11Z</time>
      </trkpt>
      <trkpt lat="43.88178" lon="6.85887">
        <ele>707.8</ele>
        <time>2016-05-15T13:54:18Z</time>
      </trkpt>
      <trkpt lat="43.88179" lon="6.85874">
        <ele>709</ele>
        <time>2016-05-15T13:54:25Z</time>
      </trkpt>
      <trkpt lat="43.88179" lon="6.8586">
        <ele>710.3</ele>
        <time>2016-05-15T13:54:32Z</time>
      </trkpt>
      <trkpt lat="43.8818" lon="6.85847">
        <ele>711.5</ele>
        <time>2016-05-15T13:54:39Z</time>
      </trkpt>
      <trkpt lat="43.88176" lon="6.85835">
        <ele>712.6</ele>
        <time>2016-05-15T13:54:46Z</time>
      </trkpt>
      <trkpt lat="43.88171" lon="6.85823">
        <ele>713.9</ele>
        <time>2016-05-15T13:54:53Z</time>
      </trkpt>
      <trkpt lat="43.88166" lon="6.8581">
        <ele>715</ele>
        <time>2016-05-15T13:55:00Z</time>
      </trkpt>
      <trkpt lat="43.88162" lon="6.85798">
        <ele>716.3</ele>
        <time>2016-05-15T13:55:07Z</time>
      </trkpt>
      <trkpt lat="43.88157" lon="6.85785">
        <ele>717.4</ele>
        <time>2016-05-15T13:55:14Z</time>
      </trkpt>
      <trkpt lat="43.88152" lon="6.85773">
        <ele>718.6</ele>
        <time>2016-05-15T13:55:21Z</time>
      </trkpt>
      <trkpt lat="43.88149" lon="6.8576">
        <ele>719.6</ele>
        <time>2016-05-15T13:55:27Z</time>
      </trkpt>
      <trkpt lat="43.88146" lon="6.85748">
        <ele>720.5</ele>
        <time>2016-05-15T13:55:33Z</time>
      </trkpt>
      <trkpt lat="43.88144" lon="6.85736">
        <ele>721.5</ele>
        <time>2016-05-15T13:55:39Z</time>
      </trkpt>
      <trkpt lat="43.88144" lon="6.85723">
        <ele>722.6</ele>
        <time>2016-05-15T13:55:46Z</time>
      </trkpt>
      <trkpt lat="43.88145" lon="6.8571">
        <ele>723.8</ele>
        <time>2016-05-15T13:55:53Z</time>
      </trkpt>
      <trkpt lat="43.88146" lon="6.85697">
        <ele>724.7</ele>
        <time>2016-05-15T13:56:00Z</time>
      </trkpt>
      <trkpt lat="43.88147" lon="6.85683">
        <ele>725.6</ele>
        <time>2016-05-15T13:56:07Z</time>
      </trkpt>
      <trkpt lat="43.88149" lon="6.85669">
        <ele>726.5</ele>
        <time>2016-05-15T13:56:14Z</time>
      </trkpt>
      <trkpt lat="43.88151" lon="6.85656">
        <ele>727.3</ele>
        <time>2016-05-15T13:56:20Z</time>
      </trkpt>
      <trkpt lat="43.88154" lon="6.85642">
        <ele>728.3</ele>
        <time>2016-05-15T13:56:27Z</time>
      </trkpt>
      <trkpt lat="43.88158" lon="6.85631">
        <ele>729.3</ele>
        <time>2016-05-15T13:56:34Z</time>
      </trkpt>
      <trkpt lat="43.88162" lon="6.85619">
        <ele>730.2</ele>
        <time>2016-05-15T13:56:41Z</time>
      </trkpt>
      <trkpt lat="43.88167" lon="6.85608">
        <ele>731</ele>
        <time>2016-05-15T13:56:48Z</time>
      </trkpt>
      <trkpt lat="43.8817" lon="6.85596">
        <ele>731.6</ele>
        <time>2016-05-15T13:56:55Z</time>
      </trkpt>
      <trkpt lat="43.88175" lon="6.85583">
        <ele>732.3</ele>
        <time>2016-05-15T13:57:01Z</time>
      </trkpt>
      <trkpt lat="43.88179" lon="6.8557">
        <ele>735.4</ele>
        <time>2016-05-15T13:58:46Z</time>
      </trkpt>
      <trkpt lat="43.88181" lon="6.85583">
        <ele>735.7</ele>
        <time>2016-05-15T13:58:58Z</time>
      </trkpt>
      <trkpt lat="43.88177" lon="6.85596">
        <ele>736.1</ele>
        <time>2016-05-15T13:59:04Z</time>
      </trkpt>
      <trkpt lat="43.88174" lon="6.85608">
        <ele>737</ele>
        <time>2016-05-15T13:59:11Z</time>
      </trkpt>
      <trkpt lat="43.88175" lon="6.85623">
        <ele>738</ele>
        <time>2016-05-15T13:59:19Z</time>
      </trkpt>
      <trkpt lat="43.88177" lon="6.85637">
        <ele>739.2</ele>
        <time>2016-05-15T13:59:27Z</time>
      </trkpt>
      <trkpt lat="43.88177" lon="6.85651">
        <ele>740</ele>
        <time>2016-05-15T13:59:34Z</time>
      </trkpt>
      <trkpt lat="43.88179" lon="6.85664">
        <ele>740.8</ele>
        <time>2016-05-15T13:59:40Z</time>
      </trkpt>
      <trkpt lat="43.88181" lon="6.85678">
        <ele>741.7</ele>
        <time>2016-05-15T13:59:46Z</time>
      </trkpt>
      <trkpt lat="43.88184" lon="6.85692">
        <ele>742.4</ele>
        <time>2016-05-15T13:59:52Z</time>
      </trkpt>
      <trkpt lat="43.88188" lon="6.85705">
        <ele>743.3</ele>
        <time>2016-05-15T13:59:58Z</time>
      </trkpt>
      <trkpt lat="43.8819" lon="6.85718">
        <ele>744.1</ele>
        <time>2016-05-15T14:00:04Z</time>
      </trkpt>
      <trkpt lat="43.88194" lon="6.8573">
        <ele>745</ele>
        <time>2016-05-15T14:00:10Z</time>
      </trkpt>
      <trkpt lat="43.88198" lon="6.85743">
        <ele>745.9</ele>
        <time>2016-05-15T14:00:16Z</time>
      </trkpt>
      <trkpt lat="43.88203" lon="6.85754">
        <ele>746.4</ele>
        <time>2016-05-15T14:00:21Z</time>
      </trkpt>
      <trkpt lat="43.8821" lon="6.85764">
        <ele>747</ele>
        <time>2016-05-15T14:00:26Z</time>
      </trkpt>
      <trkpt lat="43.88219" lon="6.85772">
        <ele>747.7</ele>
        <time>2016-05-15T14:00:32Z</time>
      </trkpt>
      <trkpt lat="43.88225" lon="6.85781">
        <ele>748.5</ele>
        <time>2016-05-15T14:00:39Z</time>
      </trkpt>
      <trkpt lat="43.88233" lon="6.85789">
        <ele>749.7</ele>
        <time>2016-05-15T14:00:46Z</time>
      </trkpt>
      <trkpt lat="43.88239" lon="6.858">
        <ele>750.8</ele>
        <time>2016-05-15T14:00:53Z</time>
      </trkpt>
      <trkpt lat="43.88244" lon="6.8581">
        <ele>751.9</ele>
        <time>2016-05-15T14:01:00Z</time>
      </trkpt>
      <trkpt lat="43.88251" lon="6.8582">
        <ele>753.2</ele>
        <time>2016-05-15T14:01:07Z</time>
      </trkpt>
      <trkpt lat="43.88259" lon="6.85828">
        <ele>754.8</ele>
        <time>2016-05-15T14:01:15Z</time>
      </trkpt>
      <trkpt lat="43.88267" lon="6.85836">
        <ele>756</ele>
        <time>2016-05-15T14:01:22Z</time>
      </trkpt>
      <trkpt lat="43.88274" lon="6.85846">
        <ele>757.2</ele>
        <time>2016-05-15T14:01:29Z</time>
      </trkpt>
      <trkpt lat="43.88281" lon="6.85857">
        <ele>758.4</ele>
        <time>2016-05-15T14:01:36Z</time>
      </trkpt>
      <trkpt lat="43.88287" lon="6.85866">
        <ele>759.4</ele>
        <time>2016-05-15T14:01:42Z</time>
      </trkpt>
      <trkpt lat="43.88294" lon="6.85875">
        <ele>760.2</ele>
        <time>2016-05-15T14:01:48Z</time>
      </trkpt>
      <trkpt lat="43.88298" lon="6.85886">
        <ele>761.1</ele>
        <time>2016-05-15T14:01:54Z</time>
      </trkpt>
      <trkpt lat="43.88304" lon="6.85897">
        <ele>762.2</ele>
        <time>2016-05-15T14:02:01Z</time>
      </trkpt>
      <trkpt lat="43.88308" lon="6.85908">
        <ele>763.1</ele>
        <time>2016-05-15T14:02:07Z</time>
      </trkpt>
      <trkpt lat="43.88312" lon="6.85921">
        <ele>764.2</ele>
        <time>2016-05-15T14:02:13Z</time>
      </trkpt>
      <trkpt lat="43.88315" lon="6.85934">
        <ele>765.1</ele>
        <time>2016-05-15T14:02:19Z</time>
      </trkpt>
      <trkpt lat="43.88313" lon="6.85947">
        <ele>765.8</ele>
        <time>2016-05-15T14:02:24Z</time>
      </trkpt>
      <trkpt lat="43.88308" lon="6.85962">
        <ele>766.5</ele>
        <time>2016-05-15T14:02:29Z</time>
      </trkpt>
      <trkpt lat="43.88303" lon="6.85974">
        <ele>766.9</ele>
        <time>2016-05-15T14:02:33Z</time>
      </trkpt>
      <trkpt lat="43.88299" lon="6.85985">
        <ele>767.2</ele>
        <time>2016-05-15T14:02:37Z</time>
      </trkpt>
      <trkpt lat="43.88298" lon="6.86">
        <ele>767.8</ele>
        <time>2016-05-15T14:02:43Z</time>
      </trkpt>
      <trkpt lat="43.88303" lon="6.86013">
        <ele>768.2</ele>
        <time>2016-05-15T14:02:48Z</time>
      </trkpt>
      <trkpt lat="43.8831" lon="6.86024">
        <ele>768.6</ele>
        <time>2016-05-15T14:02:53Z</time>
      </trkpt>
      <trkpt lat="43.88318" lon="6.86033">
        <ele>769.1</ele>
        <time>2016-05-15T14:02:58Z</time>
      </trkpt>
      <trkpt lat="43.88327" lon="6.86042">
        <ele>769.7</ele>
        <time>2016-05-15T14:03:03Z</time>
      </trkpt>
      <trkpt lat="43.88336" lon="6.86051">
        <ele>770.1</ele>
        <time>2016-05-15T14:03:08Z</time>
      </trkpt>
      <trkpt lat="43.88345" lon="6.86058">
        <ele>770.4</ele>
        <time>2016-05-15T14:03:12Z</time>
      </trkpt>
      <trkpt lat="43.88353" lon="6.86064">
        <ele>770.7</ele>
        <time>2016-05-15T14:03:16Z</time>
      </trkpt>
      <trkpt lat="43.88362" lon="6.86067">
        <ele>770.8</ele>
        <time>2016-05-15T14:03:20Z</time>
      </trkpt>
      <trkpt lat="43.88372" lon="6.86072">
        <ele>771</ele>
        <time>2016-05-15T14:03:24Z</time>
      </trkpt>
      <trkpt lat="43.8838" lon="6.86079">
        <ele>771.1</ele>
        <time>2016-05-15T14:03:27Z</time>
      </trkpt>
      <trkpt lat="43.88387" lon="6.86092">
        <ele>771.1</ele>
        <time>2016-05-15T14:03:31Z</time>
      </trkpt>
      <trkpt lat="43.88391" lon="6.86105">
        <ele>771.2</ele>
        <time>2016-05-15T14:03:35Z</time>
      </trkpt>
      <trkpt lat="43.88387" lon="6.86117">
        <ele>771.3</ele>
        <time>2016-05-15T14:03:41Z</time>
      </trkpt>
      <trkpt lat="43.88381" lon="6.86127">
        <ele>772.5</ele>
        <time>2016-05-15T14:14:59Z</time>
      </trkpt>
      <trkpt lat="43.8839" lon="6.86131">
        <ele>772.8</ele>
        <time>2016-05-15T14:16:54Z</time>
      </trkpt>
      <trkpt lat="43.88399" lon="6.86129">
        <ele>773.3</ele>
        <time>2016-05-15T14:17:06Z</time>
      </trkpt>
      <trkpt lat="43.88408" lon="6.86127">
        <ele>774.4</ele>
        <time>2016-05-15T14:17:45Z</time>
      </trkpt>
      <trkpt lat="43.88418" lon="6.8612">
        <ele>774.3</ele>
        <time>2016-05-15T14:17:50Z</time>
      </trkpt>
      <trkpt lat="43.88426" lon="6.86118">
        <ele>774.2</ele>
        <time>2016-05-15T14:17:54Z</time>
      </trkpt>
      <trkpt lat="43.88436" lon="6.86113">
        <ele>773.8</ele>
        <time>2016-05-15T14:18:00Z</time>
      </trkpt>
      <trkpt lat="43.88445" lon="6.86107">
        <ele>773.4</ele>
        <time>2016-05-15T14:18:04Z</time>
      </trkpt>
      <trkpt lat="43.88456" lon="6.86098">
        <ele>772.7</ele>
        <time>2016-05-15T14:18:07Z</time>
      </trkpt>
      <trkpt lat="43.88463" lon="6.86089">
        <ele>772.1</ele>
        <time>2016-05-15T14:18:09Z</time>
      </trkpt>
      <trkpt lat="43.88471" lon="6.86083">
        <ele>770.4</ele>
        <time>2016-05-15T14:18:15Z</time>
      </trkpt>
      <trkpt lat="43.88481" lon="6.86081">
        <ele>768.2</ele>
        <time>2016-05-15T14:18:22Z</time>
      </trkpt>
      <trkpt lat="43.88491" lon="6.86074">
        <ele>766.3</ele>
        <time>2016-05-15T14:18:27Z</time>
      </trkpt>
      <trkpt lat="43.88501" lon="6.86067">
        <ele>765.2</ele>
        <time>2016-05-15T14:18:30Z</time>
      </trkpt>
      <trkpt lat="43.88509" lon="6.86073">
        <ele>762</ele>
        <time>2016-05-15T14:18:39Z</time>
      </trkpt>
      <trkpt lat="43.88512" lon="6.86088">
        <ele>759.7</ele>
        <time>2016-05-15T14:18:44Z</time>
      </trkpt>
      <trkpt lat="43.88519" lon="6.86098">
        <ele>757.7</ele>
        <time>2016-05-15T14:18:48Z</time>
      </trkpt>
      <trkpt lat="43.88525" lon="6.86108">
        <ele>754.9</ele>
        <time>2016-05-15T14:18:54Z</time>
      </trkpt>
      <trkpt lat="43.88533" lon="6.86116">
        <ele>752.8</ele>
        <time>2016-05-15T14:18:59Z</time>
      </trkpt>
      <trkpt lat="43.88539" lon="6.86126">
        <ele>749.9</ele>
        <time>2016-05-15T14:19:05Z</time>
      </trkpt>
      <trkpt lat="43.8855" lon="6.86125">
        <ele>747.7</ele>
        <time>2016-05-15T14:19:10Z</time>
      </trkpt>
      <trkpt lat="43.88557" lon="6.86136">
        <ele>744.2</ele>
        <time>2016-05-15T14:19:17Z</time>
      </trkpt>
      <trkpt lat="43.88563" lon="6.86146">
        <ele>736.2</ele>
        <time>2016-05-15T14:19:44Z</time>
      </trkpt>
      <trkpt lat="43.88562" lon="6.86162">
        <ele>734</ele>
        <time>2016-05-15T14:19:49Z</time>
      </trkpt>
      <trkpt lat="43.88571" lon="6.8616">
        <ele>730.5</ele>
        <time>2016-05-15T14:19:57Z</time>
      </trkpt>
      <trkpt lat="43.88582" lon="6.86152">
        <ele>727.7</ele>
        <time>2016-05-15T14:20:02Z</time>
      </trkpt>
      <trkpt lat="43.88589" lon="6.86162">
        <ele>724.5</ele>
        <time>2016-05-15T14:20:07Z</time>
      </trkpt>
      <trkpt lat="43.88594" lon="6.86173">
        <ele>719.3</ele>
        <time>2016-05-15T14:20:14Z</time>
      </trkpt>
      <trkpt lat="43.88598" lon="6.86187">
        <ele>716.1</ele>
        <time>2016-05-15T14:20:18Z</time>
      </trkpt>
      <trkpt lat="43.88602" lon="6.86199">
        <ele>713.6</ele>
        <time>2016-05-15T14:20:21Z</time>
      </trkpt>
      <trkpt lat="43.88607" lon="6.8621">
        <ele>711</ele>
        <time>2016-05-15T14:20:24Z</time>
      </trkpt>
      <trkpt lat="43.88613" lon="6.86224">
        <ele>706.9</ele>
        <time>2016-05-15T14:20:29Z</time>
      </trkpt>
      <trkpt lat="43.88618" lon="6.86236">
        <ele>703.5</ele>
        <time>2016-05-15T14:20:33Z</time>
      </trkpt>
      <trkpt lat="43.88625" lon="6.86251">
        <ele>700.4</ele>
        <time>2016-05-15T14:20:36Z</time>
      </trkpt>
      <trkpt lat="43.8863" lon="6.86261">
        <ele>697.7</ele>
        <time>2016-05-15T14:20:39Z</time>
      </trkpt>
      <trkpt lat="43.8864" lon="6.8627">
        <ele>694.4</ele>
        <time>2016-05-15T14:20:43Z</time>
      </trkpt>
      <trkpt lat="43.8864" lon="6.86284">
        <ele>690.3</ele>
        <time>2016-05-15T14:20:48Z</time>
      </trkpt>
      <trkpt lat="43.88648" lon="6.86289">
        <ele>685.8</ele>
        <time>2016-05-15T14:20:54Z</time>
      </trkpt>
      <trkpt lat="43.88654" lon="6.86299">
        <ele>680.3</ele>
        <time>2016-05-15T14:21:03Z</time>
      </trkpt>
      <trkpt lat="43.88661" lon="6.86309">
        <ele>674.7</ele>
        <time>2016-05-15T14:21:13Z</time>
      </trkpt>
      <trkpt lat="43.8867" lon="6.86311">
        <ele>669.7</ele>
        <time>2016-05-15T14:21:29Z</time>
      </trkpt>
      <trkpt lat="43.88677" lon="6.86321">
        <ele>667.6</ele>
        <time>2016-05-15T14:21:37Z</time>
      </trkpt>
      <trkpt lat="43.88685" lon="6.86325">
        <ele>665.5</ele>
        <time>2016-05-15T14:21:42Z</time>
      </trkpt>
      <trkpt lat="43.88693" lon="6.86331">
        <ele>663.5</ele>
        <time>2016-05-15T14:21:46Z</time>
      </trkpt>
      <trkpt lat="43.88704" lon="6.86334">
        <ele>662</ele>
        <time>2016-05-15T14:21:49Z</time>
      </trkpt>
      <trkpt lat="43.88712" lon="6.86342">
        <ele>660.4</ele>
        <time>2016-05-15T14:21:52Z</time>
      </trkpt>
      <trkpt lat="43.88719" lon="6.86351">
        <ele>655.9</ele>
        <time>2016-05-15T14:22:05Z</time>
      </trkpt>
      <trkpt lat="43.88724" lon="6.86362">
        <ele>652.4</ele>
        <time>2016-05-15T14:25:02Z</time>
      </trkpt>
      <trkpt lat="43.88734" lon="6.86356">
        <ele>652.7</ele>
        <time>2016-05-15T14:26:41Z</time>
      </trkpt>
      <trkpt lat="43.88743" lon="6.86351">
        <ele>652.7</ele>
        <time>2016-05-15T14:26:44Z</time>
      </trkpt>
      <trkpt lat="43.88752" lon="6.86343">
        <ele>652.5</ele>
        <time>2016-05-15T14:26:47Z</time>
      </trkpt>
      <trkpt lat="43.88761" lon="6.86335">
        <ele>652.4</ele>
        <time>2016-05-15T14:26:50Z</time>
      </trkpt>
      <trkpt lat="43.8877" lon="6.86327">
        <ele>652.3</ele>
        <time>2016-05-15T14:26:53Z</time>
      </trkpt>
      <trkpt lat="43.88782" lon="6.8632">
        <ele>652.2</ele>
        <time>2016-05-15T14:26:56Z</time>
      </trkpt>
      <trkpt lat="43.88792" lon="6.86325">
        <ele>652</ele>
        <time>2016-05-15T14:26:59Z</time>
      </trkpt>
      <trkpt lat="43.88803" lon="6.86335">
        <ele>651.7</ele>
        <time>2016-05-15T14:27:04Z</time>
      </trkpt>
      <trkpt lat="43.88809" lon="6.86344">
        <ele>651.5</ele>
        <time>2016-05-15T14:27:07Z</time>
      </trkpt>
      <trkpt lat="43.88817" lon="6.86354">
        <ele>651.3</ele>
        <time>2016-05-15T14:27:10Z</time>
      </trkpt>
      <trkpt lat="43.88821" lon="6.86367">
        <ele>651</ele>
        <time>2016-05-15T14:27:14Z</time>
      </trkpt>
      <trkpt lat="43.88826" lon="6.86378">
        <ele>650.5</ele>
        <time>2016-05-15T14:27:27Z</time>
      </trkpt>
      <trkpt lat="43.88828" lon="6.8638">
        <ele>650.3</ele>
        <time>2016-05-15T14:27:45Z</time>
      </trkpt>
    </trkseg>
  </trk>
</gpx>